| time (UTC) | temp F | wind direction | speed MPH | gust MPH | rain 1hr in | rain 24hr in | rain mn in | humidity % | barometer mb |
| 20260509184223 | 72 | 157 | 3.0 | 6.0 | 0.00 | 0.00 | 0.00 | 28 | 1014.4 |
| 20260509184134 | 72 | 157 | 2.0 | 5.0 | 0.00 | 0.00 | 0.00 | 27 | 1014.4 |
| 20260509184029 | 72 | 154 | 1.0 | 5.0 | 0.00 | 0.00 | 0.00 | 27 | 1014.4 |
| 20260509183933 | 72 | 154 | 1.0 | 5.0 | 0.00 | 0.00 | 0.00 | 28 | 1014.4 |
| 20260509183829 | 72 | 154 | 2.0 | 5.0 | 0.00 | 0.00 | 0.00 | 28 | 1014.5 |
| 20260509183736 | 72 | 154 | 2.0 | 5.0 | 0.00 | 0.00 | 0.00 | 28 | 1014.5 |
| 20260509183635 | 72 | 154 | 2.0 | 5.0 | 0.00 | 0.00 | 0.00 | 29 | 1014.4 |
| 20260509183539 | 72 | 154 | 3.0 | 5.0 | 0.00 | 0.00 | 0.00 | 28 | 1014.5 |
| 20260509183441 | 72 | 154 | 3.0 | 5.0 | 0.00 | 0.00 | 0.00 | 29 | 1014.5 |
| 20260509183324 | 72 | 154 | 2.0 | 5.0 | 0.00 | 0.00 | 0.00 | 28 | 1014.5 |
| 20260509183220 | 71 | 154 | 2.0 | 7.0 | 0.00 | 0.00 | 0.00 | 28 | 1014.5 |
| 20260509183147 | 71 | 154 | 2.0 | 9.0 | 0.00 | 0.00 | 0.00 | 28 | 1014.5 |
| 20260509183022 | 71 | 154 | 2.0 | 9.0 | 0.00 | 0.00 | 0.00 | 29 | 1014.6 |
| 20260509182918 | 71 | 154 | 3.0 | 9.0 | 0.00 | 0.00 | 0.00 | 30 | 1014.6 |
| 20260509182828 | 71 | 154 | 3.0 | 9.0 | 0.00 | 0.00 | 0.00 | 30 | 1014.6 |
| 20260509182725 | 71 | 154 | 2.0 | 9.0 | 0.00 | 0.00 | 0.00 | 30 | 1014.6 |
| 20260509182632 | 71 | 154 | 1.0 | 9.0 | 0.00 | 0.00 | 0.00 | 30 | 1014.6 |
| 20260509182526 | 71 | 154 | 3.0 | 9.0 | 0.00 | 0.00 | 0.00 | 30 | 1014.7 |
| 20260509182423 | 71 | 154 | 5.0 | 9.0 | 0.00 | 0.00 | 0.00 | 30 | 1014.7 |
| 20260509182328 | 71 | 154 | 4.0 | 9.0 | 0.00 | 0.00 | 0.00 | 29 | 1014.7 |
| 20260509182223 | 70 | 154 | 2.0 | 7.0 | 0.00 | 0.00 | 0.00 | 29 | 1014.7 |
| 20260509182135 | 70 | 154 | 2.0 | 7.0 | 0.00 | 0.00 | 0.00 | 29 | 1014.7 |
| 20260509182050 | 70 | 154 | 3.0 | 8.0 | 0.00 | 0.00 | 0.00 | 29 | 1014.7 |
| 20260509181934 | 70 | 154 | 2.0 | 8.0 | 0.00 | 0.00 | 0.00 | 33 | 1014.7 |
| 20260509181830 | 70 | 154 | 2.0 | 9.0 | 0.00 | 0.00 | 0.00 | 31 | 1014.7 |
| 20260509181737 | 70 | 154 | 3.0 | 9.0 | 0.00 | 0.00 | 0.00 | 31 | 1014.8 |
| 20260509181634 | 70 | 154 | 3.0 | 9.0 | 0.00 | 0.00 | 0.00 | 32 | 1014.8 |
| 20260509181517 | 70 | 154 | 3.0 | 9.0 | 0.00 | 0.00 | 0.00 | 30 | 1014.8 |
| 20260509181418 | 70 | 154 | 4.0 | 9.0 | 0.00 | 0.00 | 0.00 | 30 | 1014.8 |
| 20260509181325 | 69 | 154 | 4.0 | 9.0 | 0.00 | 0.00 | 0.00 | 30 | 1014.8 |
| 20260509181221 | 69 | 154 | 4.0 | 9.0 | 0.00 | 0.00 | 0.00 | 31 | 1014.8 |
| 20260509181129 | 69 | 157 | 5.0 | 9.0 | 0.00 | 0.00 | 0.00 | 32 | 1014.8 |
| 20260509181023 | 69 | 157 | 5.0 | 9.0 | 0.00 | 0.00 | 0.00 | 31 | 1014.8 |
| 20260509180921 | 69 | 159 | 4.0 | 9.0 | 0.00 | 0.00 | 0.00 | 32 | 1014.8 |
| 20260509180848 | 69 | 160 | 5.0 | 9.0 | 0.00 | 0.00 | 0.00 | 33 | 1014.8 |
| 20260509180753 | 69 | 156 | 4.0 | 9.0 | 0.00 | 0.00 | 0.00 | 34 | 1014.8 |
| 20260509180701 | 69 | 157 | 4.0 | 9.0 | 0.00 | 0.00 | 0.00 | 33 | 1014.8 |
| 20260509180536 | 69 | 158 | 3.0 | 9.0 | 0.00 | 0.00 | 0.00 | 34 | 1014.8 |
| 20260509180441 | 69 | 154 | 3.0 | 9.0 | 0.00 | 0.00 | 0.00 | 33 | 1014.8 |
| 20260509180318 | 69 | 154 | 4.0 | 9.0 | 0.00 | 0.00 | 0.00 | 34 | 1014.8 |
| 20260509180237 | 69 | 154 | 4.0 | 9.0 | 0.00 | 0.00 | 0.00 | 34 | 1014.8 |
| 20260509180141 | 69 | 154 | 3.0 | 9.0 | 0.00 | 0.00 | 0.00 | 34 | 1014.8 |
| 20260509180018 | 69 | 157 | 2.0 | 9.0 | 0.00 | 0.00 | 0.00 | 35 | 1014.8 |
| 20260509175928 | 69 | 153 | 2.0 | 7.0 | 0.00 | 0.00 | 0.00 | 36 | 1014.8 |
| 20260509175825 | 69 | 151 | 3.0 | 7.0 | 0.00 | 0.00 | 0.00 | 35 | 1014.8 |
| 20260509175731 | 68 | 151 | 4.0 | 7.0 | 0.00 | 0.00 | 0.00 | 36 | 1014.8 |
| 20260509175629 | 68 | 151 | 3.0 | 7.0 | 0.00 | 0.00 | 0.00 | 35 | 1014.8 |
| 20260509175524 | 68 | 151 | 3.0 | 7.0 | 0.00 | 0.00 | 0.00 | 34 | 1014.9 |
| 20260509175430 | 68 | 151 | 3.0 | 7.0 | 0.00 | 0.00 | 0.00 | 36 | 1014.9 |
| 20260509175331 | 68 | 151 | 1.0 | 8.0 | 0.00 | 0.00 | 0.00 | 37 | 1014.9 |
| 20260509175236 | 68 | 151 | 2.0 | 9.0 | 0.00 | 0.00 | 0.00 | 36 | 1014.8 |
| 20260509175134 | 68 | 151 | 2.0 | 9.0 | 0.00 | 0.00 | 0.00 | 36 | 1014.9 |
| 20260509175059 | 68 | 151 | 2.0 | 9.0 | 0.00 | 0.00 | 0.00 | 35 | 1014.9 |
| 20260509174943 | 68 | 151 | 2.0 | 9.0 | 0.00 | 0.00 | 0.00 | 35 | 1014.8 |
| 20260509174820 | 68 | 151 | 3.0 | 9.0 | 0.00 | 0.00 | 0.00 | 37 | 1014.9 |
| 20260509174726 | 68 | 151 | 4.0 | 9.0 | 0.00 | 0.00 | 0.00 | 37 | 1014.9 |
| 20260509174621 | 68 | 151 | 5.0 | 9.0 | 0.00 | 0.00 | 0.00 | 37 | 1014.9 |
| 20260509174522 | 68 | 152 | 4.0 | 9.0 | 0.00 | 0.00 | 0.00 | 38 | 1014.8 |
| 20260509174427 | 68 | 225 | 2.0 | 6.0 | 0.00 | 0.00 | 0.00 | 39 | 1014.8 |
| 20260509174321 | 68 | 225 | 1.0 | 6.0 | 0.00 | 0.00 | 0.00 | 39 | 1014.9 |
| 20260509174230 | 68 | 225 | 1.0 | 6.0 | 0.00 | 0.00 | 0.00 | 39 | 1014.9 |
| 20260509174125 | 68 | 225 | 1.0 | 6.0 | 0.00 | 0.00 | 0.00 | 39 | 1014.8 |
| 20260509174031 | 68 | 225 | 1.0 | 6.0 | 0.00 | 0.00 | 0.00 | 38 | 1014.9 |
| 20260509173933 | 68 | 225 | 2.0 | 6.0 | 0.00 | 0.00 | 0.00 | 38 | 1014.8 |
| 20260509173857 | 68 | 225 | 2.0 | 8.0 | 0.00 | 0.00 | 0.00 | 40 | 1014.9 |
| 20260509173734 | 68 | 225 | 3.0 | 9.0 | 0.00 | 0.00 | 0.00 | 40 | 1014.9 |
| 20260509173643 | 68 | 225 | 3.0 | 9.0 | 0.00 | 0.00 | 0.00 | 41 | 1014.8 |
| 20260509173537 | 68 | 227 | 3.0 | 9.0 | 0.00 | 0.00 | 0.00 | 41 | 1014.9 |
| 20260509173432 | 67 | 227 | 4.0 | 9.0 | 0.00 | 0.00 | 0.00 | 40 | 1014.9 |
| 20260509173339 | 67 | 227 | 3.0 | 9.0 | 0.00 | 0.00 | 0.00 | 41 | 1014.8 |
| 20260509173221 | 67 | 227 | 4.0 | 11.0 | 0.00 | 0.00 | 0.00 | 40 | 1014.9 |
| 20260509173145 | 67 | 227 | 5.0 | 11.0 | 0.00 | 0.00 | 0.00 | 41 | 1014.9 |
| 20260509173021 | 67 | 227 | 6.0 | 11.0 | 0.00 | 0.00 | 0.00 | 41 | 1014.9 |
| 20260509172928 | 67 | 227 | 6.0 | 11.0 | 0.00 | 0.00 | 0.00 | 42 | 1014.9 |
| 20260509172845 | 67 | 217 | 5.0 | 11.0 | 0.00 | 0.00 | 0.00 | 43 | 1014.9 |
| 20260509172730 | 67 | 215 | 4.0 | 11.0 | 0.00 | 0.00 | 0.00 | 42 | 1014.9 |
| 20260509172624 | 67 | 221 | 3.0 | 11.0 | 0.00 | 0.00 | 0.00 | 43 | 1015.0 |
| 20260509172551 | 67 | 221 | 4.0 | 11.0 | 0.00 | 0.00 | 0.00 | 42 | 1015.0 |
| 20260509172431 | 67 | 221 | 7.0 | 11.0 | 0.00 | 0.00 | 0.00 | 42 | 1015.0 |
| 20260509172337 | 67 | 221 | 6.0 | 11.0 | 0.00 | 0.00 | 0.00 | 42 | 1015.0 |
| 20260509172307 | 66 | 221 | 4.0 | 8.0 | 0.00 | 0.00 | 0.00 | 41 | 1015.0 |
| 20260509172119 | 66 | 221 | 3.0 | 8.0 | 0.00 | 0.00 | 0.00 | 41 | 1015.0 |
| 20260509172044 | 66 | 221 | 3.0 | 8.0 | 0.00 | 0.00 | 0.00 | 42 | 1015.0 |
| 20260509171919 | 66 | 221 | 5.0 | 8.0 | 0.00 | 0.00 | 0.00 | 42 | 1015.0 |
| 20260509171819 | 66 | 220 | 5.0 | 8.0 | 0.00 | 0.00 | 0.00 | 43 | 1015.0 |
| 20260509171747 | 66 | 221 | 5.0 | 8.0 | 0.00 | 0.00 | 0.00 | 43 | 1015.0 |
| 20260509171622 | 65 | 221 | 4.0 | 7.0 | 0.00 | 0.00 | 0.00 | 45 | 1015.0 |
| 20260509171520 | 65 | 220 | 4.0 | 7.0 | 0.00 | 0.00 | 0.00 | 44 | 1015.0 |
| 20260509171427 | 65 | 220 | 4.0 | 7.0 | 0.00 | 0.00 | 0.00 | 45 | 1015.0 |
| 20260509171342 | 65 | 221 | 3.0 | 6.0 | 0.00 | 0.00 | 0.00 | 47 | 1015.0 |
| 20260509171247 | 65 | 219 | 1.0 | 6.0 | 0.00 | 0.00 | 0.00 | 45 | 1015.0 |
| 20260509171154 | 65 | 219 | 0.0 | 6.0 | 0.00 | 0.00 | 0.00 | 45 | 1015.1 |
| 20260509171042 | 64 | 219 | 0.0 | 7.0 | 0.00 | 0.00 | 0.00 | 45 | 1015.1 |
| 20260509170917 | 64 | 219 | 1.0 | 7.0 | 0.00 | 0.00 | 0.00 | 45 | 1015.1 |
| 20260509170844 | 64 | 219 | 2.0 | 7.0 | 0.00 | 0.00 | 0.00 | 46 | 1015.1 |
| 20260509170743 | 64 | 219 | 4.0 | 7.0 | 0.00 | 0.00 | 0.00 | 47 | 1015.1 |
| 20260509170625 | 64 | 219 | 3.0 | 7.0 | 0.00 | 0.00 | 0.00 | 47 | 1015.1 |
| 20260509170522 | 64 | 222 | 3.0 | 7.0 | 0.00 | 0.00 | 0.00 | 47 | 1015.1 |
| 20260509170418 | 64 | 222 | 4.0 | 7.0 | 0.00 | 0.00 | 0.00 | 48 | 1015.1 |
| 20260509170324 | 64 | 222 | 4.0 | 7.0 | 0.00 | 0.00 | 0.00 | 49 | 1015.1 |
| 20260509170221 | 63 | 223 | 3.0 | 5.0 | 0.00 | 0.00 | 0.00 | 48 | 1015.1 |
| 20260509170128 | 63 | 223 | 2.0 | 5.0 | 0.00 | 0.00 | 0.00 | 47 | 1015.1 |
| 20260509170023 | 63 | 223 | 2.0 | 6.0 | 0.00 | 0.00 | 0.00 | 47 | 1015.1 |
| 20260509165929 | 63 | 223 | 3.0 | 6.0 | 0.00 | 0.00 | 0.00 | 47 | 1015.1 |
| 20260509165826 | 63 | 223 | 3.0 | 6.0 | 0.00 | 0.00 | 0.00 | 48 | 1015.1 |
| 20260509165730 | 63 | 223 | 2.0 | 6.0 | 0.00 | 0.00 | 0.00 | 49 | 1015.2 |
| 20260509165633 | 63 | 223 | 1.0 | 6.0 | 0.00 | 0.00 | 0.00 | 48 | 1015.2 |
| 20260509165537 | 63 | 223 | 2.0 | 6.0 | 0.00 | 0.00 | 0.00 | 48 | 1015.2 |
| 20260509165433 | 63 | 223 | 3.0 | 6.0 | 0.00 | 0.00 | 0.00 | 48 | 1015.2 |
| 20260509165359 | 63 | 223 | 4.0 | 6.0 | 0.00 | 0.00 | 0.00 | 49 | 1015.2 |
| 20260509165234 | 62 | 223 | 5.0 | 6.0 | 0.00 | 0.00 | 0.00 | 50 | 1015.3 |
| 20260509165141 | 62 | 223 | 4.0 | 8.0 | 0.00 | 0.00 | 0.00 | 50 | 1015.3 |
| 20260509165036 | 62 | 223 | 4.0 | 8.0 | 0.00 | 0.00 | 0.00 | 51 | 1015.4 |
| 20260509164918 | 62 | 223 | 3.0 | 8.0 | 0.00 | 0.00 | 0.00 | 51 | 1015.4 |
| 20260509164844 | 62 | 224 | 3.0 | 8.0 | 0.00 | 0.00 | 0.00 | 51 | 1015.4 |
| 20260509164721 | 62 | 224 | 2.0 | 8.0 | 0.00 | 0.00 | 0.00 | 51 | 1015.4 |
| 20260509164625 | 61 | 224 | 2.0 | 8.0 | 0.00 | 0.00 | 0.00 | 50 | 1015.4 |
| 20260509164522 | 61 | 224 | 4.0 | 8.0 | 0.00 | 0.00 | 0.00 | 51 | 1015.4 |
| 20260509164449 | 61 | 224 | 5.0 | 8.0 | 0.00 | 0.00 | 0.00 | 51 | 1015.4 |
| 20260509164324 | 61 | 224 | 4.0 | 8.0 | 0.00 | 0.00 | 0.00 | 50 | 1015.4 |
| 20260509164233 | 61 | 224 | 3.0 | 8.0 | 0.00 | 0.00 | 0.00 | 50 | 1015.4 |
| 20260509164131 | 61 | 224 | 4.0 | 8.0 | 0.00 | 0.00 | 0.00 | 51 | 1015.5 |
| 20260509164034 | 61 | 224 | 5.0 | 8.0 | 0.00 | 0.00 | 0.00 | 51 | 1015.4 |
| 20260509163930 | 61 | 224 | 5.0 | 8.0 | 0.00 | 0.00 | 0.00 | 51 | 1015.4 |
| 20260509163835 | 61 | 223 | 4.0 | 7.0 | 0.00 | 0.00 | 0.00 | 51 | 1015.4 |
| 20260509163734 | 61 | 219 | 3.0 | 7.0 | 0.00 | 0.00 | 0.00 | 51 | 1015.4 |
| 20260509163617 | 60 | 219 | 4.0 | 7.0 | 0.00 | 0.00 | 0.00 | 52 | 1015.4 |
| 20260509163532 | 60 | 219 | 4.0 | 7.0 | 0.00 | 0.00 | 0.00 | 51 | 1015.4 |
| 20260509163441 | 60 | 219 | 3.0 | 7.0 | 0.00 | 0.00 | 0.00 | 53 | 1015.5 |
| 20260509163407 | 60 | 219 | 3.0 | 7.0 | 0.00 | 0.00 | 0.00 | 53 | 1015.5 |
| 20260509163243 | 60 | 219 | 3.0 | 7.0 | 0.00 | 0.00 | 0.00 | 53 | 1015.5 |
| 20260509163131 | 60 | 219 | 4.0 | 7.0 | 0.00 | 0.00 | 0.00 | 53 | 1015.5 |
| 20260509163023 | 60 | 219 | 4.0 | 7.0 | 0.00 | 0.00 | 0.00 | 53 | 1015.5 |
| 20260509162920 | 60 | 216 | 3.0 | 7.0 | 0.00 | 0.00 | 0.00 | 53 | 1015.5 |
| 20260509162846 | 59 | 215 | 4.0 | 7.0 | 0.00 | 0.00 | 0.00 | 53 | 1015.5 |
| 20260509162735 | 59 | 216 | 4.0 | 7.0 | 0.00 | 0.00 | 0.00 | 54 | 1015.5 |
| 20260509162634 | 59 | 216 | 3.0 | 7.0 | 0.00 | 0.00 | 0.00 | 54 | 1015.5 |
| 20260509162529 | 59 | 216 | 2.0 | 5.0 | 0.00 | 0.00 | 0.00 | 53 | 1015.5 |
| 20260509162434 | 59 | 216 | 3.0 | 6.0 | 0.00 | 0.00 | 0.00 | 54 | 1015.5 |
| 20260509162332 | 59 | 216 | 2.0 | 6.0 | 0.00 | 0.00 | 0.00 | 55 | 1015.5 |
| 20260509162217 | 59 | 216 | 2.0 | 7.0 | 0.00 | 0.00 | 0.00 | 55 | 1015.6 |
| 20260509162134 | 59 | 216 | 3.0 | 7.0 | 0.00 | 0.00 | 0.00 | 55 | 1015.6 |
| 20260509162041 | 59 | 216 | 3.0 | 7.0 | 0.00 | 0.00 | 0.00 | 55 | 1015.6 |
| 20260509161937 | 58 | 216 | 2.0 | 7.0 | 0.00 | 0.00 | 0.00 | 55 | 1015.6 |
| 20260509161843 | 58 | 216 | 3.0 | 7.0 | 0.00 | 0.00 | 0.00 | 55 | 1015.6 |
| 20260509161720 | 58 | 216 | 4.0 | 7.0 | 0.00 | 0.00 | 0.00 | 56 | 1015.6 |
| 20260509161638 | 58 | 216 | 3.0 | 7.0 | 0.00 | 0.00 | 0.00 | 56 | 1015.6 |
| 20260509161543 | 58 | 216 | 4.0 | 7.0 | 0.00 | 0.00 | 0.00 | 56 | 1015.6 |
| 20260509161426 | 58 | 216 | 5.0 | 7.0 | 0.00 | 0.00 | 0.00 | 56 | 1015.6 |
| 20260509161325 | 57 | 216 | 5.0 | 7.0 | 0.00 | 0.00 | 0.00 | 57 | 1015.7 |
| 20260509161231 | 57 | 213 | 4.0 | 6.0 | 0.00 | 0.00 | 0.00 | 57 | 1015.7 |
| 20260509161150 | 57 | 212 | 3.0 | 6.0 | 0.00 | 0.00 | 0.00 | 57 | 1015.6 |
| 20260509161033 | 57 | 212 | 3.0 | 6.0 | 0.00 | 0.00 | 0.00 | 57 | 1015.7 |
| 20260509160930 | 57 | 212 | 3.0 | 6.0 | 0.00 | 0.00 | 0.00 | 58 | 1015.7 |
| 20260509160835 | 56 | 212 | 3.0 | 6.0 | 0.00 | 0.00 | 0.00 | 58 | 1015.7 |
| 20260509160731 | 56 | 212 | 3.0 | 7.0 | 0.00 | 0.00 | 0.00 | 58 | 1015.7 |
| 20260509160639 | 56 | 213 | 3.0 | 7.0 | 0.00 | 0.00 | 0.00 | 58 | 1015.7 |
| 20260509160519 | 56 | 215 | 3.0 | 7.0 | 0.00 | 0.00 | 0.00 | 59 | 1015.7 |
| 20260509160444 | 56 | 215 | 3.0 | 7.0 | 0.00 | 0.00 | 0.00 | 59 | 1015.7 |
| 20260509160340 | 56 | 214 | 4.0 | 7.0 | 0.00 | 0.00 | 0.00 | 59 | 1015.6 |
| 20260509160247 | 56 | 214 | 4.0 | 7.0 | 0.00 | 0.00 | 0.00 | 60 | 1015.6 |
| 20260509160122 | 55 | 214 | 5.0 | 7.0 | 0.00 | 0.00 | 0.00 | 60 | 1015.6 |
| 20260509160045 | 55 | 214 | 4.0 | 7.0 | 0.00 | 0.00 | 0.00 | 60 | 1015.6 |
| 20260509155924 | 55 | 213 | 3.0 | 7.0 | 0.00 | 0.00 | 0.00 | 59 | 1015.6 |
| 20260509155817 | 55 | 213 | 4.0 | 7.0 | 0.00 | 0.00 | 0.00 | 60 | 1015.6 |
| 20260509155726 | 55 | 213 | 4.0 | 7.0 | 0.00 | 0.00 | 0.00 | 60 | 1015.6 |
| 20260509155621 | 55 | 212 | 3.0 | 7.0 | 0.00 | 0.00 | 0.00 | 61 | 1015.6 |
| 20260509155547 | 55 | 212 | 4.0 | 7.0 | 0.00 | 0.00 | 0.00 | 61 | 1015.6 |
| 20260509155424 | 54 | 212 | 4.0 | 7.0 | 0.00 | 0.00 | 0.00 | 61 | 1015.7 |
| 20260509155331 | 54 | 212 | 4.0 | 7.0 | 0.00 | 0.00 | 0.00 | 61 | 1015.7 |
| 20260509155233 | 54 | 212 | 5.0 | 7.0 | 0.00 | 0.00 | 0.00 | 61 | 1015.6 |
| 20260509155138 | 54 | 212 | 4.0 | 7.0 | 0.00 | 0.00 | 0.00 | 62 | 1015.7 |
| 20260509155033 | 54 | 213 | 3.0 | 7.0 | 0.00 | 0.00 | 0.00 | 62 | 1015.6 |
| 20260509154939 | 54 | 213 | 4.0 | 7.0 | 0.00 | 0.00 | 0.00 | 62 | 1015.7 |
| 20260509154836 | 54 | 213 | 4.0 | 7.0 | 0.00 | 0.00 | 0.00 | 62 | 1015.7 |
| 20260509154745 | 54 | 213 | 3.0 | 6.0 | 0.00 | 0.00 | 0.00 | 62 | 1015.7 |
| 20260509154620 | 53 | 213 | 4.0 | 7.0 | 0.00 | 0.00 | 0.00 | 63 | 1015.7 |
| 20260509154519 | 53 | 213 | 4.0 | 8.0 | 0.00 | 0.00 | 0.00 | 63 | 1015.7 |
| 20260509154426 | 53 | 213 | 4.0 | 8.0 | 0.00 | 0.00 | 0.00 | 63 | 1015.7 |
| 20260509154323 | 53 | 213 | 4.0 | 8.0 | 0.00 | 0.00 | 0.00 | 63 | 1015.8 |
| 20260509154222 | 53 | 213 | 4.0 | 8.0 | 0.00 | 0.00 | 0.00 | 64 | 1015.8 |
| 20260509154125 | 53 | 213 | 4.0 | 8.0 | 0.00 | 0.00 | 0.00 | 64 | 1015.8 |
| 20260509154050 | 53 | 216 | 4.0 | 8.0 | 0.00 | 0.00 | 0.00 | 64 | 1015.9 |
| 20260509153925 | 53 | 216 | 5.0 | 8.0 | 0.00 | 0.00 | 0.00 | 64 | 1015.9 |
| 20260509153825 | 52 | 216 | 5.0 | 8.0 | 0.00 | 0.00 | 0.00 | 65 | 1015.9 |
| 20260509153730 | 52 | 215 | 5.0 | 8.0 | 0.00 | 0.00 | 0.00 | 65 | 1015.8 |
| 20260509153629 | 52 | 215 | 3.0 | 8.0 | 0.00 | 0.00 | 0.00 | 66 | 1015.9 |
| 20260509153533 | 52 | 215 | 3.0 | 8.0 | 0.00 | 0.00 | 0.00 | 66 | 1015.9 |
| 20260509153431 | 52 | 216 | 4.0 | 8.0 | 0.00 | 0.00 | 0.00 | 66 | 1015.9 |
| 20260509153337 | 52 | 215 | 4.0 | 8.0 | 0.00 | 0.00 | 0.00 | 66 | 1015.8 |
| 20260509153218 | 51 | 213 | 4.0 | 8.0 | 0.00 | 0.00 | 0.00 | 67 | 1015.9 |
| 20260509153136 | 51 | 213 | 4.0 | 8.0 | 0.00 | 0.00 | 0.00 | 67 | 1015.9 |
| 20260509153021 | 51 | 223 | 4.0 | 8.0 | 0.00 | 0.00 | 0.00 | 67 | 1015.9 |
| 20260509152935 | 51 | 223 | 4.0 | 8.0 | 0.00 | 0.00 | 0.00 | 68 | 1015.9 |
| 20260509152819 | 51 | 224 | 5.0 | 8.0 | 0.00 | 0.00 | 0.00 | 68 | 1015.9 |
| 20260509152748 | 51 | 224 | 5.0 | 8.0 | 0.00 | 0.00 | 0.00 | 68 | 1015.9 |
| 20260509152621 | 50 | 224 | 4.0 | 8.0 | 0.00 | 0.00 | 0.00 | 69 | 1015.9 |
| 20260509152522 | 50 | 224 | 4.0 | 8.0 | 0.00 | 0.00 | 0.00 | 69 | 1016.0 |
| 20260509152426 | 50 | 224 | 4.0 | 8.0 | 0.00 | 0.00 | 0.00 | 70 | 1016.0 |
| 20260509152323 | 50 | 224 | 5.0 | 8.0 | 0.00 | 0.00 | 0.00 | 70 | 1016.0 |
| 20260509152229 | 49 | 224 | 5.0 | 8.0 | 0.00 | 0.00 | 0.00 | 70 | 1016.0 |
| 20260509152127 | 49 | 224 | 6.0 | 8.0 | 0.00 | 0.00 | 0.00 | 71 | 1016.0 |
| 20260509152031 | 49 | 223 | 6.0 | 8.0 | 0.00 | 0.00 | 0.00 | 71 | 1016.1 |
| 20260509151927 | 49 | 223 | 5.0 | 8.0 | 0.00 | 0.00 | 0.00 | 71 | 1016.1 |
| 20260509151838 | 49 | 223 | 4.0 | 8.0 | 0.00 | 0.00 | 0.00 | 71 | 1016.1 |
| 20260509151735 | 48 | 223 | 5.0 | 8.0 | 0.00 | 0.00 | 0.00 | 72 | 1016.1 |
| 20260509151642 | 48 | 223 | 5.0 | 8.0 | 0.00 | 0.00 | 0.00 | 72 | 1016.1 |
| 20260509151536 | 48 | 223 | 5.0 | 8.0 | 0.00 | 0.00 | 0.00 | 73 | 1016.1 |
| 20260509151433 | 48 | 223 | 5.0 | 8.0 | 0.00 | 0.00 | 0.00 | 74 | 1016.1 |
| 20260509151338 | 48 | 223 | 5.0 | 8.0 | 0.00 | 0.00 | 0.00 | 75 | 1016.2 |
| 20260509151245 | 47 | 223 | 5.0 | 8.0 | 0.00 | 0.00 | 0.00 | 75 | 1016.1 |
| 20260509151125 | 47 | 223 | 6.0 | 8.0 | 0.00 | 0.00 | 0.00 | 76 | 1016.1 |
| 20260509151021 | 47 | 223 | 5.0 | 8.0 | 0.00 | 0.00 | 0.00 | 76 | 1016.2 |
| 20260509150917 | 46 | 221 | 5.0 | 8.0 | 0.00 | 0.00 | 0.00 | 76 | 1016.1 |
| 20260509150823 | 46 | 221 | 6.0 | 8.0 | 0.00 | 0.00 | 0.00 | 77 | 1016.1 |
| 20260509150721 | 46 | 219 | 6.0 | 8.0 | 0.00 | 0.00 | 0.00 | 77 | 1016.2 |
| 20260509150628 | 46 | 200 | 5.0 | 8.0 | 0.00 | 0.00 | 0.00 | 77 | 1016.2 |
| 20260509150527 | 45 | 194 | 5.0 | 8.0 | 0.00 | 0.00 | 0.00 | 78 | 1016.1 |
| 20260509150453 | 45 | 188 | 4.0 | 6.0 | 0.00 | 0.00 | 0.00 | 78 | 1016.1 |
| 20260509150329 | 45 | 188 | 3.0 | 6.0 | 0.00 | 0.00 | 0.00 | 78 | 1016.1 |
| 20260509150234 | 45 | 188 | 2.0 | 6.0 | 0.00 | 0.00 | 0.00 | 79 | 1016.1 |
| 20260509150201 | 45 | 188 | 3.0 | 6.0 | 0.00 | 0.00 | 0.00 | 79 | 1016.1 |
| 20260509150036 | 44 | 188 | 4.0 | 6.0 | 0.00 | 0.00 | 0.00 | 79 | 1016.1 |
| 20260509145932 | 44 | 188 | 4.0 | 6.0 | 0.00 | 0.00 | 0.00 | 79 | 1016.1 |
| 20260509145821 | 44 | 188 | 3.0 | 6.0 | 0.00 | 0.00 | 0.00 | 80 | 1016.1 |
| 20260509145720 | 44 | 188 | 4.0 | 6.0 | 0.00 | 0.00 | 0.00 | 80 | 1016.1 |
| 20260509145623 | 43 | 188 | 4.0 | 6.0 | 0.00 | 0.00 | 0.00 | 80 | 1016.0 |
| 20260509145519 | 43 | 188 | 4.0 | 6.0 | 0.00 | 0.00 | 0.00 | 81 | 1016.0 |
| 20260509145445 | 43 | 188 | 5.0 | 6.0 | 0.00 | 0.00 | 0.00 | 81 | 1016.1 |
| 20260509145320 | 43 | 188 | 5.0 | 6.0 | 0.00 | 0.00 | 0.00 | 81 | 1016.1 |
| 20260509145227 | 43 | 186 | 5.0 | 6.0 | 0.00 | 0.00 | 0.00 | 81 | 1016.1 |
| 20260509145122 | 43 | 179 | 5.0 | 7.0 | 0.00 | 0.00 | 0.00 | 81 | 1016.0 |
| 20260509145031 | 42 | 179 | 5.0 | 7.0 | 0.00 | 0.00 | 0.00 | 81 | 1016.0 |
| 20260509144927 | 42 | 179 | 5.0 | 8.0 | 0.00 | 0.00 | 0.00 | 81 | 1016.0 |
| 20260509144824 | 42 | 175 | 4.0 | 6.0 | 0.00 | 0.00 | 0.00 | 81 | 1016.1 |
| 20260509144729 | 42 | 173 | 4.0 | 5.0 | 0.00 | 0.00 | 0.00 | 82 | 1016.1 |
| 20260509144628 | 42 | 173 | 4.0 | 6.0 | 0.00 | 0.00 | 0.00 | 81 | 1016.0 |
| 20260509144532 | 41 | 173 | 3.0 | 6.0 | 0.00 | 0.00 | 0.00 | 82 | 1016.0 |
| 20260509144426 | 41 | 173 | 2.0 | 6.0 | 0.00 | 0.00 | 0.00 | 82 | 1016.0 |
| 20260509144336 | 41 | 173 | 2.0 | 6.0 | 0.00 | 0.00 | 0.00 | 82 | 1016.1 |
| 20260509144233 | 41 | 173 | 1.0 | 6.0 | 0.00 | 0.00 | 0.00 | 82 | 1016.1 |
| 20260509144141 | 41 | 173 | 1.0 | 6.0 | 0.00 | 0.00 | 0.00 | 82 | 1016.1 |
| 20260509144017 | 41 | 173 | 3.0 | 6.0 | 0.00 | 0.00 | 0.00 | 81 | 1016.0 |
| 20260509143943 | 41 | 173 | 3.0 | 6.0 | 0.00 | 0.00 | 0.00 | 81 | 1016.0 |
| 20260509143841 | 41 | 173 | 3.0 | 6.0 | 0.00 | 0.00 | 0.00 | 81 | 1016.1 |
| 20260509143732 | 41 | 173 | 2.0 | 5.0 | 0.00 | 0.00 | 0.00 | 81 | 1016.1 |
| 20260509143624 | 41 | 173 | 2.0 | 3.0 | 0.00 | 0.00 | 0.00 | 81 | 1016.1 |
| 20260509143522 | 41 | 173 | 2.0 | 5.0 | 0.00 | 0.00 | 0.00 | 81 | 1016.1 |
| 20260509143426 | 41 | 173 | 2.0 | 5.0 | 0.00 | 0.00 | 0.00 | 81 | 1016.1 |
| 20260509143323 | 41 | 173 | 2.0 | 5.0 | 0.00 | 0.00 | 0.00 | 82 | 1016.1 |
| 20260509143229 | 41 | 173 | 2.0 | 5.0 | 0.00 | 0.00 | 0.00 | 82 | 1016.1 |
| 20260509143127 | 41 | 173 | 2.0 | 5.0 | 0.00 | 0.00 | 0.00 | 82 | 1016.0 |
| 20260509143034 | 40 | 173 | 2.0 | 5.0 | 0.00 | 0.00 | 0.00 | 82 | 1016.1 |
| 20260509142930 | 40 | 173 | 2.0 | 5.0 | 0.00 | 0.00 | 0.00 | 82 | 1016.1 |
| 20260509142836 | 40 | 173 | 2.0 | 5.0 | 0.00 | 0.00 | 0.00 | 82 | 1016.1 |
| 20260509142732 | 40 | 173 | 3.0 | 5.0 | 0.00 | 0.00 | 0.00 | 82 | 1016.1 |
| 20260509142659 | 40 | 173 | 3.0 | 5.0 | 0.00 | 0.00 | 0.00 | 82 | 1016.1 |
| 20260509142541 | 40 | 173 | 3.0 | 5.0 | 0.00 | 0.00 | 0.00 | 82 | 1016.1 |
| 20260509142419 | 40 | 173 | 4.0 | 5.0 | 0.00 | 0.00 | 0.00 | 82 | 1016.1 |
| 20260509142320 | 40 | 173 | 4.0 | 5.0 | 0.00 | 0.00 | 0.00 | 82 | 1016.1 |
| 20260509142247 | 40 | 173 | 3.0 | 5.0 | 0.00 | 0.00 | 0.00 | 82 | 1016.1 |
| 20260509142120 | 40 | 173 | 3.0 | 5.0 | 0.00 | 0.00 | 0.00 | 82 | 1016.1 |
| 20260509142047 | 40 | 173 | 3.0 | 5.0 | 0.00 | 0.00 | 0.00 | 82 | 1016.1 |
| 20260509141931 | 40 | 173 | 3.0 | 5.0 | 0.00 | 0.00 | 0.00 | 81 | 1016.0 |
| 20260509141828 | 39 | 173 | 4.0 | 5.0 | 0.00 | 0.00 | 0.00 | 81 | 1016.0 |
| 20260509141732 | 39 | 173 | 4.0 | 5.0 | 0.00 | 0.00 | 0.00 | 81 | 1016.0 |
| 20260509141630 | 39 | 173 | 4.0 | 5.0 | 0.00 | 0.00 | 0.00 | 81 | 1016.0 |
| 20260509141538 | 39 | 173 | 3.0 | 5.0 | 0.00 | 0.00 | 0.00 | 81 | 1016.0 |
| 20260509141434 | 39 | 173 | 3.0 | 4.0 | 0.00 | 0.00 | 0.00 | 81 | 1016.0 |
| 20260509141331 | 39 | 173 | 3.0 | 4.0 | 0.00 | 0.00 | 0.00 | 81 | 1016.0 |
| 20260509141234 | 39 | 173 | 3.0 | 4.0 | 0.00 | 0.00 | 0.00 | 81 | 1015.9 |
| 20260509141141 | 39 | 173 | 2.0 | 4.0 | 0.00 | 0.00 | 0.00 | 81 | 1015.9 |
| 20260509141037 | 39 | 173 | 1.0 | 3.0 | 0.00 | 0.00 | 0.00 | 81 | 1015.9 |
| 20260509140934 | 39 | 173 | 1.0 | 3.0 | 0.00 | 0.00 | 0.00 | 81 | 1015.9 |
| 20260509140823 | 39 | 173 | 1.0 | 3.0 | 0.00 | 0.00 | 0.00 | 80 | 1015.9 |
| 20260509140737 | 39 | 173 | 1.0 | 3.0 | 0.00 | 0.00 | 0.00 | 80 | 1015.9 |
| 20260509140704 | 39 | 173 | 1.0 | 3.0 | 0.00 | 0.00 | 0.00 | 80 | 1016.0 |
| 20260509140606 | 39 | 173 | 2.0 | 3.0 | 0.00 | 0.00 | 0.00 | 80 | 1015.9 |
| 20260509140422 | 39 | 173 | 2.0 | 5.0 | 0.00 | 0.00 | 0.00 | 80 | 1016.0 |
| 20260509140327 | 39 | 173 | 2.0 | 5.0 | 0.00 | 0.00 | 0.00 | 80 | 1016.0 |
| 20260509140226 | 39 | 173 | 2.0 | 5.0 | 0.00 | 0.00 | 0.00 | 80 | 1016.0 |
| 20260509140121 | 39 | 173 | 2.0 | 5.0 | 0.00 | 0.00 | 0.00 | 80 | 1016.0 |
| 20260509140031 | 39 | 173 | 2.0 | 5.0 | 0.00 | 0.00 | 0.00 | 79 | 1016.0 |
| 20260509135927 | 39 | 173 | 2.0 | 5.0 | 0.00 | 0.00 | 0.00 | 79 | 1016.0 |
| 20260509135830 | 39 | 173 | 2.0 | 5.0 | 0.00 | 0.00 | 0.00 | 79 | 1016.0 |
| 20260509135734 | 39 | 173 | 3.0 | 5.0 | 0.00 | 0.00 | 0.00 | 79 | 1015.9 |
| 20260509135632 | 39 | 173 | 4.0 | 5.0 | 0.00 | 0.00 | 0.00 | 79 | 1016.0 |
| 20260509135557 | 39 | 173 | 4.0 | 5.0 | 0.00 | 0.00 | 0.00 | 79 | 1016.0 |
| 20260509135433 | 39 | 173 | 4.0 | 5.0 | 0.00 | 0.00 | 0.00 | 79 | 1016.0 |
| 20260509135341 | 39 | 173 | 4.0 | 5.0 | 0.00 | 0.00 | 0.00 | 79 | 1015.9 |
| 20260509135217 | 39 | 173 | 4.0 | 5.0 | 0.00 | 0.00 | 0.00 | 78 | 1015.8 |
| 20260509135135 | 39 | 173 | 4.0 | 5.0 | 0.00 | 0.00 | 0.00 | 78 | 1015.8 |
| 20260509135039 | 39 | 173 | 3.0 | 5.0 | 0.00 | 0.00 | 0.00 | 78 | 1015.8 |
| 20260509135006 | 39 | 173 | 3.0 | 4.0 | 0.00 | 0.00 | 0.00 | 78 | 1015.8 |
| 20260509134840 | 39 | 173 | 3.0 | 4.0 | 0.00 | 0.00 | 0.00 | 78 | 1015.7 |
| 20260509134719 | 39 | 173 | 3.0 | 4.0 | 0.00 | 0.00 | 0.00 | 78 | 1015.8 |
| 20260509134643 | 39 | 173 | 3.0 | 4.0 | 0.00 | 0.00 | 0.00 | 77 | 1015.7 |
| 20260509134533 | 39 | 173 | 3.0 | 4.0 | 0.00 | 0.00 | 0.00 | 77 | 1015.7 |
| 20260509134459 | 39 | 173 | 3.0 | 4.0 | 0.00 | 0.00 | 0.00 | 77 | 1015.8 |
| 20260509134333 | 39 | 173 | 3.0 | 4.0 | 0.00 | 0.00 | 0.00 | 77 | 1015.8 |
| 20260509134239 | 39 | 173 | 3.0 | 4.0 | 0.00 | 0.00 | 0.00 | 77 | 1015.8 |
| 20260509134138 | 39 | 173 | 3.0 | 3.0 | 0.00 | 0.00 | 0.00 | 77 | 1015.8 |
| 20260509134043 | 39 | 173 | 4.0 | 3.0 | 0.00 | 0.00 | 0.00 | 77 | 1015.8 |
| 20260509133919 | 39 | 173 | 3.0 | 4.0 | 0.00 | 0.00 | 0.00 | 77 | 1015.7 |
| 20260509133821 | 39 | 173 | 2.0 | 4.0 | 0.00 | 0.00 | 0.00 | 77 | 1015.6 |
| 20260509133729 | 39 | 173 | 2.0 | 4.0 | 0.00 | 0.00 | 0.00 | 77 | 1015.6 |
| 20260509133622 | 39 | 173 | 2.0 | 3.0 | 0.00 | 0.00 | 0.00 | 77 | 1015.6 |
| 20260509133547 | 40 | 173 | 1.0 | 3.0 | 0.00 | 0.00 | 0.00 | 77 | 1015.6 |
| 20260509133442 | 40 | 173 | 1.0 | 2.0 | 0.00 | 0.00 | 0.00 | 77 | 1015.6 |
| 20260509133327 | 40 | 173 | 1.0 | 2.0 | 0.00 | 0.00 | 0.00 | 77 | 1015.6 |
| 20260509133232 | 40 | 173 | 1.0 | 2.0 | 0.00 | 0.00 | 0.00 | 77 | 1015.6 |
| 20260509133130 | 40 | 173 | 1.0 | 2.0 | 0.00 | 0.00 | 0.00 | 77 | 1015.6 |
| 20260509133039 | 40 | 173 | 1.0 | 2.0 | 0.00 | 0.00 | 0.00 | 77 | 1015.6 |
| 20260509132937 | 40 | 173 | 0.0 | 2.0 | 0.00 | 0.00 | 0.00 | 77 | 1015.6 |
| 20260509132821 | 40 | 173 | 1.0 | 2.0 | 0.00 | 0.00 | 0.00 | 76 | 1015.7 |
| 20260509132737 | 40 | 173 | 1.0 | 2.0 | 0.00 | 0.00 | 0.00 | 76 | 1015.7 |
| 20260509132620 | 40 | 173 | 1.0 | 2.0 | 0.00 | 0.00 | 0.00 | 76 | 1015.7 |
| 20260509132535 | 40 | 173 | 1.0 | 2.0 | 0.00 | 0.00 | 0.00 | 76 | 1015.7 |
| 20260509132439 | 40 | 173 | 1.0 | 2.0 | 0.00 | 0.00 | 0.00 | 76 | 1015.7 |
| 20260509132339 | 40 | 173 | 1.0 | 2.0 | 0.00 | 0.00 | 0.00 | 76 | 1015.7 |
| 20260509132226 | 40 | 173 | 1.0 | 2.0 | 0.00 | 0.00 | 0.00 | 76 | 1015.7 |
| 20260509132141 | 40 | 173 | 1.0 | 2.0 | 0.00 | 0.00 | 0.00 | 76 | 1015.6 |
| 20260509132024 | 40 | 173 | 2.0 | 2.0 | 0.00 | 0.00 | 0.00 | 76 | 1015.6 |
| 20260509131922 | 40 | 173 | 1.0 | 2.0 | 0.00 | 0.00 | 0.00 | 76 | 1015.6 |
| 20260509131828 | 40 | 173 | 1.0 | 3.0 | 0.00 | 0.00 | 0.00 | 76 | 1015.6 |
| 20260509131723 | 40 | 173 | 1.0 | 3.0 | 0.00 | 0.00 | 0.00 | 76 | 1015.5 |
| 20260509131650 | 40 | 173 | 1.0 | 3.0 | 0.00 | 0.00 | 0.00 | 76 | 1015.5 |
| 20260509131537 | 40 | 173 | 1.0 | 3.0 | 0.00 | 0.00 | 0.00 | 76 | 1015.5 |
| 20260509131434 | 40 | 173 | 1.0 | 3.0 | 0.00 | 0.00 | 0.00 | 76 | 1015.5 |
| 20260509131331 | 40 | 173 | 1.0 | 3.0 | 0.00 | 0.00 | 0.00 | 76 | 1015.4 |
| 20260509131236 | 41 | 173 | 1.0 | 3.0 | 0.00 | 0.00 | 0.00 | 76 | 1015.4 |
| 20260509131142 | 41 | 173 | 2.0 | 3.0 | 0.00 | 0.00 | 0.00 | 76 | 1015.5 |
| 20260509131018 | 41 | 173 | 2.0 | 3.0 | 0.00 | 0.00 | 0.00 | 76 | 1015.5 |
| 20260509130936 | 41 | 173 | 2.0 | 4.0 | 0.00 | 0.00 | 0.00 | 76 | 1015.5 |
| 20260509130827 | 41 | 173 | 2.0 | 3.0 | 0.00 | 0.00 | 0.00 | 76 | 1015.5 |
| 20260509130724 | 41 | 173 | 1.0 | 3.0 | 0.00 | 0.00 | 0.00 | 77 | 1015.5 |
| 20260509130631 | 41 | 173 | 1.0 | 2.0 | 0.00 | 0.00 | 0.00 | 77 | 1015.5 |
| 20260509130526 | 41 | 173 | 0.0 | 2.0 | 0.00 | 0.00 | 0.00 | 77 | 1015.5 |
| 20260509130453 | 41 | 173 | 0.0 | 2.0 | 0.00 | 0.00 | 0.00 | 77 | 1015.5 |
| 20260509130329 | 41 | 173 | 1.0 | 2.0 | 0.00 | 0.00 | 0.00 | 77 | 1015.5 |
| 20260509130235 | 41 | 173 | 1.0 | 5.0 | 0.00 | 0.00 | 0.00 | 77 | 1015.4 |
| 20260509130203 | 41 | 173 | 1.0 | 5.0 | 0.00 | 0.00 | 0.00 | 77 | 1015.4 |
| 20260509130018 | 41 | 173 | 1.0 | 5.0 | 0.00 | 0.00 | 0.00 | 77 | 1015.4 |
| 20260509125945 | 41 | 173 | 1.0 | 5.0 | 0.00 | 0.00 | 0.00 | 77 | 1015.4 |
| 20260509125822 | 41 | 173 | 1.0 | 5.0 | 0.00 | 0.00 | 0.00 | 77 | 1015.4 |
| 20260509125720 | 41 | 173 | 1.0 | 5.0 | 0.00 | 0.00 | 0.00 | 77 | 1015.4 |
| 20260509125624 | 41 | 173 | 1.0 | 5.0 | 0.00 | 0.00 | 0.00 | 77 | 1015.3 |
| 20260509125521 | 41 | 173 | 2.0 | 5.0 | 0.00 | 0.00 | 0.00 | 77 | 1015.3 |
| 20260509125430 | 41 | 173 | 2.0 | 5.0 | 0.00 | 0.00 | 0.00 | 77 | 1015.3 |
| 20260509125347 | 41 | 173 | 1.0 | 5.0 | 0.00 | 0.00 | 0.00 | 77 | 1015.3 |
| 20260509125232 | 41 | 173 | 1.0 | 5.0 | 0.00 | 0.00 | 0.00 | 77 | 1015.3 |
| 20260509125130 | 41 | 173 | 2.0 | 7.0 | 0.00 | 0.00 | 0.00 | 77 | 1015.2 |
| 20260509125052 | 41 | 173 | 2.0 | 8.0 | 0.00 | 0.00 | 0.00 | 77 | 1015.2 |
| 20260509124929 | 41 | 173 | 1.0 | 8.0 | 0.00 | 0.00 | 0.00 | 77 | 1015.2 |
| 20260509124834 | 41 | 173 | 1.0 | 8.0 | 0.00 | 0.00 | 0.00 | 77 | 1015.2 |
| 20260509124732 | 41 | 173 | 1.0 | 8.0 | 0.00 | 0.00 | 0.00 | 77 | 1015.2 |
| 20260509124641 | 41 | 173 | 2.0 | 8.0 | 0.00 | 0.00 | 0.00 | 77 | 1015.1 |
| 20260509124536 | 41 | 173 | 3.0 | 8.0 | 0.00 | 0.00 | 0.00 | 77 | 1015.2 |
| 20260509124442 | 41 | 173 | 5.0 | 8.0 | 0.00 | 0.00 | 0.00 | 77 | 1015.2 |
| 20260509124338 | 42 | 173 | 5.0 | 9.0 | 0.00 | 0.00 | 0.00 | 78 | 1015.1 |
| 20260509124305 | 42 | 173 | 5.0 | 9.0 | 0.00 | 0.00 | 0.00 | 78 | 1015.2 |
| 20260509124119 | 42 | 172 | 5.0 | 9.0 | 0.00 | 0.00 | 0.00 | 78 | 1015.1 |
| 20260509124046 | 42 | 173 | 5.0 | 9.0 | 0.00 | 0.00 | 0.00 | 78 | 1015.1 |
| 20260509123926 | 42 | 173 | 5.0 | 9.0 | 0.00 | 0.00 | 0.00 | 78 | 1015.1 |
| 20260509123851 | 42 | 173 | 4.0 | 9.0 | 0.00 | 0.00 | 0.00 | 78 | 1015.1 |
| 20260509123728 | 42 | 173 | 5.0 | 11.0 | 0.00 | 0.00 | 0.00 | 78 | 1015.1 |
| 20260509123637 | 42 | 173 | 5.0 | 11.0 | 0.00 | 0.00 | 0.00 | 78 | 1015.1 |
| 20260509123531 | 42 | 173 | 5.0 | 11.0 | 0.00 | 0.00 | 0.00 | 78 | 1015.1 |
| 20260509123428 | 42 | 177 | 5.0 | 11.0 | 0.00 | 0.00 | 0.00 | 78 | 1015.1 |
| 20260509123333 | 42 | 171 | 5.0 | 11.0 | 0.00 | 0.00 | 0.00 | 78 | 1015.1 |
| 20260509123302 | 42 | 171 | 6.0 | 11.0 | 0.00 | 0.00 | 0.00 | 78 | 1015.0 |
| 20260509123210 | 42 | 171 | 7.0 | 11.0 | 0.00 | 0.00 | 0.00 | 78 | 1015.0 |
| 20260509123022 | 42 | 177 | 7.0 | 11.0 | 0.00 | 0.00 | 0.00 | 78 | 1015.0 |
| 20260509122918 | 42 | 170 | 7.0 | 11.0 | 0.00 | 0.00 | 0.00 | 78 | 1015.0 |
| 20260509122844 | 42 | 167 | 8.0 | 11.0 | 0.00 | 0.00 | 0.00 | 78 | 1015.0 |
| 20260509122719 | 42 | 166 | 7.0 | 11.0 | 0.00 | 0.00 | 0.00 | 78 | 1015.1 |
| 20260509122628 | 42 | 163 | 7.0 | 11.0 | 0.00 | 0.00 | 0.00 | 78 | 1015.1 |
| 20260509122521 | 42 | 163 | 7.0 | 11.0 | 0.00 | 0.00 | 0.00 | 78 | 1015.1 |
| 20260509122429 | 42 | 165 | 7.0 | 11.0 | 0.00 | 0.00 | 0.00 | 78 | 1015.1 |
| 20260509122335 | 42 | 165 | 7.0 | 11.0 | 0.00 | 0.00 | 0.00 | 78 | 1015.1 |
| 20260509122232 | 42 | 171 | 7.0 | 11.0 | 0.00 | 0.00 | 0.00 | 78 | 1015.1 |
| 20260509122130 | 42 | 150 | 6.0 | 10.0 | 0.00 | 0.00 | 0.00 | 78 | 1015.1 |
| 20260509122034 | 42 | 160 | 6.0 | 10.0 | 0.00 | 0.00 | 0.00 | 78 | 1015.2 |
| 20260509121958 | 42 | 152 | 5.0 | 9.0 | 0.00 | 0.00 | 0.00 | 78 | 1015.2 |
| 20260509121834 | 42 | 150 | 5.0 | 9.0 | 0.00 | 0.00 | 0.00 | 78 | 1015.2 |
| 20260509121746 | 42 | 149 | 5.0 | 9.0 | 0.00 | 0.00 | 0.00 | 78 | 1015.2 |
| 20260509121638 | 42 | 152 | 4.0 | 8.0 | 0.00 | 0.00 | 0.00 | 78 | 1015.3 |
| 20260509121523 | 42 | 152 | 4.0 | 8.0 | 0.00 | 0.00 | 0.00 | 78 | 1015.3 |
| 20260509121418 | 42 | 152 | 4.0 | 8.0 | 0.00 | 0.00 | 0.00 | 78 | 1015.3 |
| 20260509121324 | 42 | 152 | 4.0 | 7.0 | 0.00 | 0.00 | 0.00 | 78 | 1015.3 |
| 20260509121220 | 42 | 152 | 4.0 | 7.0 | 0.00 | 0.00 | 0.00 | 78 | 1015.3 |
| 20260509121128 | 42 | 152 | 4.0 | 7.0 | 0.00 | 0.00 | 0.00 | 78 | 1015.3 |
| 20260509121025 | 42 | 151 | 4.0 | 7.0 | 0.00 | 0.00 | 0.00 | 78 | 1015.4 |
| 20260509120934 | 42 | 151 | 4.0 | 7.0 | 0.00 | 0.00 | 0.00 | 77 | 1015.4 |
| 20260509120851 | 42 | 151 | 4.0 | 7.0 | 0.00 | 0.00 | 0.00 | 77 | 1015.4 |
| 20260509120758 | 42 | 151 | 4.0 | 7.0 | 0.00 | 0.00 | 0.00 | 77 | 1015.4 |
| 20260509120621 | 42 | 152 | 4.0 | 9.0 | 0.00 | 0.00 | 0.00 | 77 | 1015.4 |
| 20260509120517 | 42 | 152 | 4.0 | 9.0 | 0.00 | 0.00 | 0.00 | 77 | 1015.5 |
| 20260509120443 | 42 | 152 | 4.0 | 9.0 | 0.00 | 0.00 | 0.00 | 77 | 1015.5 |
| 20260509120340 | 42 | 152 | 4.0 | 9.0 | 0.00 | 0.00 | 0.00 | 76 | 1015.5 |
| 20260509120246 | 42 | 152 | 4.0 | 9.0 | 0.00 | 0.00 | 0.00 | 76 | 1015.5 |
| 20260509120122 | 42 | 152 | 5.0 | 9.0 | 0.00 | 0.00 | 0.00 | 76 | 1015.5 |
| 20260509120029 | 42 | 152 | 5.0 | 9.0 | 0.00 | 0.00 | 0.00 | 76 | 1015.5 |
| 20260509115927 | 42 | 152 | 5.0 | 9.0 | 0.00 | 0.00 | 0.00 | 75 | 1015.5 |
| 20260509115832 | 42 | 152 | 5.0 | 9.0 | 0.00 | 0.00 | 0.00 | 75 | 1015.5 |
| 20260509115730 | 42 | 154 | 4.0 | 8.0 | 0.00 | 0.00 | 0.00 | 75 | 1015.5 |
| 20260509115629 | 42 | 156 | 4.0 | 8.0 | 0.00 | 0.00 | 0.00 | 75 | 1015.5 |
| 20260509115532 | 42 | 159 | 4.0 | 8.0 | 0.00 | 0.00 | 0.00 | 75 | 1015.5 |
| 20260509115432 | 42 | 159 | 4.0 | 8.0 | 0.00 | 0.00 | 0.00 | 75 | 1015.6 |
| 20260509115337 | 42 | 162 | 4.0 | 9.0 | 0.00 | 0.00 | 0.00 | 75 | 1015.6 |
| 20260509115245 | 42 | 163 | 4.0 | 9.0 | 0.00 | 0.00 | 0.00 | 75 | 1015.6 |
| 20260509115120 | 42 | 163 | 5.0 | 9.0 | 0.00 | 0.00 | 0.00 | 75 | 1015.5 |
| 20260509115034 | 42 | 163 | 5.0 | 9.0 | 0.00 | 0.00 | 0.00 | 75 | 1015.5 |
| 20260509114959 | 42 | 162 | 5.0 | 9.0 | 0.00 | 0.00 | 0.00 | 75 | 1015.5 |
| 20260509114840 | 42 | 150 | 5.0 | 9.0 | 0.00 | 0.00 | 0.00 | 75 | 1015.5 |
| 20260509114723 | 42 | 144 | 5.0 | 9.0 | 0.00 | 0.00 | 0.00 | 75 | 1015.5 |
| 20260509114617 | 42 | 144 | 5.0 | 9.0 | 0.00 | 0.00 | 0.00 | 75 | 1015.5 |
| 20260509114543 | 42 | 144 | 4.0 | 9.0 | 0.00 | 0.00 | 0.00 | 75 | 1015.4 |
| 20260509114427 | 42 | 138 | 4.0 | 8.0 | 0.00 | 0.00 | 0.00 | 75 | 1015.4 |
| 20260509114321 | 42 | 138 | 5.0 | 8.0 | 0.00 | 0.00 | 0.00 | 75 | 1015.4 |
| 20260509114226 | 42 | 131 | 5.0 | 8.0 | 0.00 | 0.00 | 0.00 | 75 | 1015.4 |
| 20260509114152 | 42 | 129 | 5.0 | 8.0 | 0.00 | 0.00 | 0.00 | 75 | 1015.4 |
| 20260509114025 | 42 | 127 | 4.0 | 8.0 | 0.00 | 0.00 | 0.00 | 75 | 1015.4 |
| 20260509113951 | 42 | 125 | 4.0 | 8.0 | 0.00 | 0.00 | 0.00 | 75 | 1015.4 |
| 20260509113900 | 42 | 125 | 3.0 | 8.0 | 0.00 | 0.00 | 0.00 | 75 | 1015.4 |
| 20260509113717 | 42 | 125 | 4.0 | 8.0 | 0.00 | 0.00 | 0.00 | 75 | 1015.4 |
| 20260509113636 | 42 | 125 | 5.0 | 8.0 | 0.00 | 0.00 | 0.00 | 75 | 1015.4 |
| 20260509113600 | 42 | 125 | 5.0 | 8.0 | 0.00 | 0.00 | 0.00 | 75 | 1015.4 |
| 20260509113333 | 42 | 115 | 5.0 | 8.0 | 0.00 | 0.00 | 0.00 | 75 | 1015.4 |
| 20260509113241 | 42 | 115 | 5.0 | 8.0 | 0.00 | 0.00 | 0.00 | 75 | 1015.4 |
| 20260509113120 | 42 | 88 | 4.0 | 6.0 | 0.00 | 0.00 | 0.00 | 74 | 1015.4 |
| 20260509113044 | 42 | 88 | 4.0 | 7.0 | 0.00 | 0.00 | 0.00 | 74 | 1015.4 |
| 20260509112919 | 42 | 77 | 4.0 | 6.0 | 0.00 | 0.00 | 0.00 | 74 | 1015.4 |
| 20260509112824 | 42 | 77 | 4.0 | 6.0 | 0.00 | 0.00 | 0.00 | 74 | 1015.4 |
| 20260509112722 | 43 | 73 | 4.0 | 5.0 | 0.00 | 0.00 | 0.00 | 74 | 1015.4 |
| 20260509112645 | 43 | 70 | 4.0 | 5.0 | 0.00 | 0.00 | 0.00 | 74 | 1015.4 |
| 20260509112549 | 43 | 68 | 4.0 | 5.0 | 0.00 | 0.00 | 0.00 | 74 | 1015.4 |
| 20260509112445 | 43 | 66 | 4.0 | 5.0 | 0.00 | 0.00 | 0.00 | 74 | 1015.4 |
| 20260509112328 | 43 | 65 | 3.0 | 5.0 | 0.00 | 0.00 | 0.00 | 74 | 1015.4 |
| 20260509112234 | 43 | 60 | 2.0 | 4.0 | 0.00 | 0.00 | 0.00 | 74 | 1015.4 |
| 20260509112156 | 43 | 60 | 1.0 | 4.0 | 0.00 | 0.00 | 0.00 | 74 | 1015.4 |
| 20260509112039 | 43 | 60 | 1.0 | 4.0 | 0.00 | 0.00 | 0.00 | 74 | 1015.4 |
| 20260509111944 | 43 | 60 | 1.0 | 4.0 | 0.00 | 0.00 | 0.00 | 74 | 1015.4 |
| 20260509111821 | 43 | 60 | 1.0 | 4.0 | 0.00 | 0.00 | 0.00 | 74 | 1015.4 |
| 20260509111719 | 43 | 60 | 2.0 | 4.0 | 0.00 | 0.00 | 0.00 | 74 | 1015.4 |
| 20260509111643 | 43 | 60 | 2.0 | 4.0 | 0.00 | 0.00 | 0.00 | 74 | 1015.4 |
| 20260509111518 | 44 | 60 | 3.0 | 4.0 | 0.00 | 0.00 | 0.00 | 73 | 1015.4 |
| 20260509111427 | 44 | 60 | 2.0 | 3.0 | 0.00 | 0.00 | 0.00 | 73 | 1015.4 |
| 20260509111323 | 44 | 60 | 1.0 | 3.0 | 0.00 | 0.00 | 0.00 | 73 | 1015.4 |
| 20260509111229 | 44 | 60 | 0.0 | 1.0 | 0.00 | 0.00 | 0.00 | 73 | 1015.4 |
| 20260509111128 | 44 | 60 | 0.0 | 0.0 | 0.00 | 0.00 | 0.00 | 73 | 1015.5 |
| 20260509111052 | 44 | 60 | 0.0 | 0.0 | 0.00 | 0.00 | 0.00 | 73 | 1015.5 |
| 20260509110957 | 44 | 60 | 0.0 | 0.0 | 0.00 | 0.00 | 0.00 | 73 | 1015.5 |
| 20260509110833 | 44 | 60 | 0.0 | 0.0 | 0.00 | 0.00 | 0.00 | 73 | 1015.5 |
| 20260509110739 | 44 | 60 | 0.0 | 0.0 | 0.00 | 0.00 | 0.00 | 73 | 1015.4 |
| 20260509110618 | 44 | 60 | 0.0 | 0.0 | 0.00 | 0.00 | 0.00 | 73 | 1015.4 |
| 20260509110544 | 44 | 60 | 0.0 | 0.0 | 0.00 | 0.00 | 0.00 | 73 | 1015.4 |
| 20260509110421 | 44 | 60 | 0.0 | 0.0 | 0.00 | 0.00 | 0.00 | 73 | 1015.4 |
| 20260509110345 | 44 | 60 | 0.0 | 0.0 | 0.00 | 0.00 | 0.00 | 73 | 1015.4 |
| 20260509110222 | 45 | 60 | 0.0 | 0.0 | 0.00 | 0.00 | 0.00 | 73 | 1015.4 |
| 20260509110150 | 45 | 60 | 0.0 | 0.0 | 0.00 | 0.00 | 0.00 | 73 | 1015.4 |
| 20260509110032 | 45 | 60 | 0.0 | 0.0 | 0.00 | 0.00 | 0.00 | 73 | 1015.4 |
| 20260509105927 | 45 | 60 | 0.0 | 2.0 | 0.00 | 0.00 | 0.00 | 73 | 1015.4 |
| 20260509105852 | 45 | 60 | 0.0 | 3.0 | 0.00 | 0.00 | 0.00 | 73 | 1015.4 |
| 20260509105739 | 45 | 60 | 0.0 | 3.0 | 0.00 | 0.00 | 0.00 | 73 | 1015.4 |
| 20260509105708 | 45 | 60 | 0.0 | 3.0 | 0.00 | 0.00 | 0.00 | 72 | 1015.4 |
| 20260509105521 | 45 | 60 | 0.0 | 3.0 | 0.00 | 0.00 | 0.00 | 72 | 1015.4 |
| 20260509105418 | 45 | 60 | 0.0 | 3.0 | 0.00 | 0.00 | 0.00 | 72 | 1015.4 |
| 20260509105344 | 45 | 60 | 0.0 | 3.0 | 0.00 | 0.00 | 0.00 | 73 | 1015.4 |
| 20260509105218 | 45 | 60 | 1.0 | 3.0 | 0.00 | 0.00 | 0.00 | 73 | 1015.4 |
| 20260509105145 | 45 | 60 | 1.0 | 3.0 | 0.00 | 0.00 | 0.00 | 73 | 1015.4 |
| 20260509105025 | 45 | 60 | 2.0 | 3.0 | 0.00 | 0.00 | 0.00 | 73 | 1015.4 |
| 20260509104950 | 45 | 60 | 2.0 | 3.0 | 0.00 | 0.00 | 0.00 | 73 | 1015.4 |
| 20260509104846 | 45 | 60 | 0.0 | 3.0 | 0.00 | 0.00 | 0.00 | 73 | 1015.5 |
| 20260509104730 | 45 | 60 | 0.0 | 0.0 | 0.00 | 0.00 | 0.00 | 73 | 1015.5 |
| 20260509104623 | 45 | 60 | 0.0 | 2.0 | 0.00 | 0.00 | 0.00 | 73 | 1015.5 |
| 20260509104529 | 45 | 60 | 0.0 | 3.0 | 0.00 | 0.00 | 0.00 | 73 | 1015.5 |
| 20260509104423 | 46 | 60 | 0.0 | 3.0 | 0.00 | 0.00 | 0.00 | 74 | 1015.5 |
| 20260509104329 | 46 | 60 | 0.0 | 4.0 | 0.00 | 0.00 | 0.00 | 74 | 1015.5 |
| 20260509104230 | 46 | 60 | 0.0 | 4.0 | 0.00 | 0.00 | 0.00 | 74 | 1015.4 |
| 20260509104137 | 46 | 60 | 0.0 | 4.0 | 0.00 | 0.00 | 0.00 | 74 | 1015.5 |
| 20260509104059 | 46 | 60 | 0.0 | 4.0 | 0.00 | 0.00 | 0.00 | 74 | 1015.5 |
| 20260509103936 | 46 | 60 | 1.0 | 4.0 | 0.00 | 0.00 | 0.00 | 75 | 1015.5 |
| 20260509103843 | 46 | 60 | 1.0 | 4.0 | 0.00 | 0.00 | 0.00 | 75 | 1015.4 |
| 20260509103722 | 46 | 60 | 2.0 | 4.0 | 0.00 | 0.00 | 0.00 | 75 | 1015.4 |
| 20260509103618 | 46 | 60 | 3.0 | 4.0 | 0.00 | 0.00 | 0.00 | 75 | 1015.4 |
| 20260509103546 | 46 | 60 | 3.0 | 4.0 | 0.00 | 0.00 | 0.00 | 75 | 1015.4 |
| 20260509103423 | 46 | 60 | 3.0 | 4.0 | 0.00 | 0.00 | 0.00 | 75 | 1015.4 |
| 20260509103348 | 46 | 60 | 3.0 | 4.0 | 0.00 | 0.00 | 0.00 | 75 | 1015.4 |
| 20260509103222 | 46 | 60 | 3.0 | 4.0 | 0.00 | 0.00 | 0.00 | 75 | 1015.5 |
| 20260509103131 | 46 | 60 | 3.0 | 4.0 | 0.00 | 0.00 | 0.00 | 75 | 1015.5 |
| 20260509103025 | 46 | 60 | 3.0 | 4.0 | 0.00 | 0.00 | 0.00 | 75 | 1015.5 |
| 20260509102931 | 46 | 60 | 3.0 | 3.0 | 0.00 | 0.00 | 0.00 | 75 | 1015.5 |
| 20260509102833 | 46 | 60 | 2.0 | 3.0 | 0.00 | 0.00 | 0.00 | 75 | 1015.5 |
| 20260509102757 | 46 | 60 | 1.0 | 3.0 | 0.00 | 0.00 | 0.00 | 75 | 1015.5 |
| 20260509102634 | 46 | 60 | 0.0 | 2.0 | 0.00 | 0.00 | 0.00 | 75 | 1015.5 |
| 20260509102539 | 46 | 60 | 0.0 | 3.0 | 0.00 | 0.00 | 0.00 | 74 | 1015.6 |
| 20260509102436 | 46 | 60 | 0.0 | 4.0 | 0.00 | 0.00 | 0.00 | 74 | 1015.5 |
| 20260509102340 | 46 | 60 | 0.0 | 4.0 | 0.00 | 0.00 | 0.00 | 74 | 1015.5 |
| 20260509102238 | 46 | 60 | 0.0 | 4.0 | 0.00 | 0.00 | 0.00 | 74 | 1015.5 |
| 20260509102144 | 46 | 60 | 0.0 | 4.0 | 0.00 | 0.00 | 0.00 | 74 | 1015.5 |
| 20260509102020 | 46 | 60 | 1.0 | 5.0 | 0.00 | 0.00 | 0.00 | 73 | 1015.5 |
| 20260509101947 | 46 | 60 | 2.0 | 5.0 | 0.00 | 0.00 | 0.00 | 73 | 1015.5 |
| 20260509101820 | 46 | 60 | 2.0 | 5.0 | 0.00 | 0.00 | 0.00 | 73 | 1015.6 |
| 20260509101726 | 46 | 60 | 3.0 | 5.0 | 0.00 | 0.00 | 0.00 | 73 | 1015.6 |
| 20260509101622 | 46 | 60 | 3.0 | 5.0 | 0.00 | 0.00 | 0.00 | 72 | 1015.6 |
| 20260509101529 | 46 | 60 | 3.0 | 5.0 | 0.00 | 0.00 | 0.00 | 72 | 1015.6 |
| 20260509101426 | 46 | 60 | 4.0 | 5.0 | 0.00 | 0.00 | 0.00 | 72 | 1015.7 |
| 20260509101336 | 46 | 60 | 4.0 | 5.0 | 0.00 | 0.00 | 0.00 | 72 | 1015.7 |
| 20260509101232 | 46 | 60 | 4.0 | 5.0 | 0.00 | 0.00 | 0.00 | 72 | 1015.7 |
| 20260509101130 | 47 | 60 | 4.0 | 5.0 | 0.00 | 0.00 | 0.00 | 72 | 1015.7 |
| 20260509101034 | 47 | 60 | 3.0 | 5.0 | 0.00 | 0.00 | 0.00 | 72 | 1015.7 |
| 20260509100929 | 47 | 56 | 1.0 | 4.0 | 0.00 | 0.00 | 0.00 | 72 | 1015.6 |
| 20260509100833 | 47 | 54 | 0.0 | 0.0 | 0.00 | 0.00 | 0.00 | 72 | 1015.6 |
| 20260509100733 | 47 | 53 | 0.0 | 0.0 | 0.00 | 0.00 | 0.00 | 72 | 1015.7 |
| 20260509100643 | 47 | 53 | 0.0 | 0.0 | 0.00 | 0.00 | 0.00 | 72 | 1015.7 |
| 20260509100536 | 47 | 53 | 0.0 | 0.0 | 0.00 | 0.00 | 0.00 | 72 | 1015.7 |
| 20260509100434 | 47 | 53 | 0.0 | 0.0 | 0.00 | 0.00 | 0.00 | 72 | 1015.7 |
| 20260509100340 | 47 | 53 | 0.0 | 1.0 | 0.00 | 0.00 | 0.00 | 71 | 1015.7 |
| 20260509100239 | 47 | 53 | 0.0 | 1.0 | 0.00 | 0.00 | 0.00 | 71 | 1015.8 |
| 20260509100116 | 47 | 53 | 0.0 | 2.0 | 0.00 | 0.00 | 0.00 | 71 | 1015.8 |
| 20260509100022 | 47 | 53 | 0.0 | 3.0 | 0.00 | 0.00 | 0.00 | 71 | 1015.8 |
| 20260509095917 | 48 | 53 | 0.0 | 3.0 | 0.00 | 0.00 | 0.00 | 71 | 1015.9 |
| 20260509095842 | 48 | 53 | 0.0 | 3.0 | 0.00 | 0.00 | 0.00 | 71 | 1015.9 |
| 20260509095719 | 48 | 53 | 0.0 | 3.0 | 0.00 | 0.00 | 0.00 | 71 | 1015.9 |
| 20260509095646 | 48 | 53 | 0.0 | 3.0 | 0.00 | 0.00 | 0.00 | 71 | 1015.9 |
| 20260509095522 | 48 | 53 | 0.0 | 3.0 | 0.00 | 0.00 | 0.00 | 70 | 1015.9 |
| 20260509095449 | 48 | 53 | 1.0 | 3.0 | 0.00 | 0.00 | 0.00 | 70 | 1015.9 |
| 20260509095344 | 48 | 53 | 1.0 | 3.0 | 0.00 | 0.00 | 0.00 | 71 | 1015.9 |
| 20260509095249 | 48 | 53 | 1.0 | 3.0 | 0.00 | 0.00 | 0.00 | 70 | 1015.9 |
| 20260509095137 | 48 | 53 | 0.0 | 2.0 | 0.00 | 0.00 | 0.00 | 70 | 1015.8 |
| 20260509095050 | 48 | 53 | 0.0 | 1.0 | 0.00 | 0.00 | 0.00 | 70 | 1015.9 |
| 20260509094935 | 48 | 53 | 0.0 | 1.0 | 0.00 | 0.00 | 0.00 | 70 | 1015.9 |
| 20260509094852 | 48 | 53 | 0.0 | 1.0 | 0.00 | 0.00 | 0.00 | 70 | 1015.9 |
| 20260509094735 | 48 | 53 | 0.0 | 1.0 | 0.00 | 0.00 | 0.00 | 70 | 1015.8 |
| 20260509094643 | 48 | 53 | 0.0 | 1.0 | 0.00 | 0.00 | 0.00 | 70 | 1015.8 |
| 20260509094522 | 48 | 53 | 0.0 | 1.0 | 0.00 | 0.00 | 0.00 | 70 | 1015.8 |
| 20260509094419 | 48 | 53 | 0.0 | 1.0 | 0.00 | 0.00 | 0.00 | 70 | 1015.8 |
| 20260509094325 | 48 | 53 | 0.0 | 1.0 | 0.00 | 0.00 | 0.00 | 70 | 1015.8 |
| 20260509094223 | 48 | 53 | 0.0 | 1.0 | 0.00 | 0.00 | 0.00 | 70 | 1015.8 |
| 20260509094117 | 49 | 53 | 0.0 | 1.0 | 0.00 | 0.00 | 0.00 | 70 | 1015.8 |
| 20260509094023 | 49 | 53 | 0.0 | 1.0 | 0.00 | 0.00 | 0.00 | 70 | 1015.8 |
| 20260509093929 | 49 | 53 | 0.0 | 1.0 | 0.00 | 0.00 | 0.00 | 70 | 1015.8 |
| 20260509093830 | 49 | 53 | 0.0 | 1.0 | 0.00 | 0.00 | 0.00 | 70 | 1015.9 |
| 20260509093727 | 49 | 53 | 0.0 | 1.0 | 0.00 | 0.00 | 0.00 | 70 | 1015.8 |
| 20260509093635 | 49 | 53 | 0.0 | 1.0 | 0.00 | 0.00 | 0.00 | 70 | 1015.8 |
| 20260509093529 | 49 | 53 | 0.0 | 0.0 | 0.00 | 0.00 | 0.00 | 70 | 1015.9 |
| 20260509093435 | 49 | 53 | 0.0 | 0.0 | 0.00 | 0.00 | 0.00 | 70 | 1015.9 |
| 20260509093333 | 49 | 53 | 0.0 | 0.0 | 0.00 | 0.00 | 0.00 | 70 | 1015.8 |
| 20260509093245 | 49 | 53 | 0.0 | 0.0 | 0.00 | 0.00 | 0.00 | 70 | 1015.9 |
| 20260509093119 | 49 | 53 | 0.0 | 0.0 | 0.00 | 0.00 | 0.00 | 70 | 1015.8 |
| 20260509093036 | 49 | 53 | 0.0 | 0.0 | 0.00 | 0.00 | 0.00 | 70 | 1015.8 |
| 20260509092941 | 49 | 53 | 0.0 | 0.0 | 0.00 | 0.00 | 0.00 | 70 | 1015.8 |
| 20260509092816 | 49 | 53 | 0.0 | 0.0 | 0.00 | 0.00 | 0.00 | 70 | 1015.8 |
| 20260509092724 | 49 | 53 | 0.0 | 0.0 | 0.00 | 0.00 | 0.00 | 70 | 1015.8 |
| 20260509092618 | 49 | 53 | 0.0 | 0.0 | 0.00 | 0.00 | 0.00 | 70 | 1015.9 |
| 20260509092527 | 49 | 53 | 0.0 | 0.0 | 0.00 | 0.00 | 0.00 | 70 | 1015.9 |
| 20260509092425 | 49 | 53 | 0.0 | 0.0 | 0.00 | 0.00 | 0.00 | 70 | 1015.8 |
| 20260509092331 | 49 | 53 | 0.0 | 0.0 | 0.00 | 0.00 | 0.00 | 70 | 1015.8 |
| 20260509092249 | 49 | 53 | 0.0 | 0.0 | 0.00 | 0.00 | 0.00 | 70 | 1015.9 |
| 20260509092135 | 49 | 53 | 0.0 | 0.0 | 0.00 | 0.00 | 0.00 | 70 | 1015.8 |
| 20260509092030 | 49 | 53 | 0.0 | 0.0 | 0.00 | 0.00 | 0.00 | 70 | 1015.8 |
| 20260509091955 | 49 | 53 | 0.0 | 1.0 | 0.00 | 0.00 | 0.00 | 70 | 1015.8 |
| 20260509091830 | 49 | 53 | 0.0 | 1.0 | 0.00 | 0.00 | 0.00 | 69 | 1015.7 |
| 20260509091739 | 49 | 53 | 0.0 | 1.0 | 0.00 | 0.00 | 0.00 | 69 | 1015.8 |
| 20260509091708 | 49 | 53 | 0.0 | 1.0 | 0.00 | 0.00 | 0.00 | 69 | 1015.8 |
| 20260509091523 | 49 | 53 | 0.0 | 1.0 | 0.00 | 0.00 | 0.00 | 69 | 1015.8 |
| 20260509091421 | 49 | 53 | 0.0 | 1.0 | 0.00 | 0.00 | 0.00 | 69 | 1015.8 |
| 20260509091327 | 49 | 53 | 0.0 | 1.0 | 0.00 | 0.00 | 0.00 | 69 | 1015.8 |
| 20260509091244 | 49 | 53 | 0.0 | 1.0 | 0.00 | 0.00 | 0.00 | 69 | 1015.9 |
| 20260509091131 | 49 | 53 | 0.0 | 2.0 | 0.00 | 0.00 | 0.00 | 69 | 1015.9 |
| 20260509091030 | 49 | 53 | 0.0 | 2.0 | 0.00 | 0.00 | 0.00 | 69 | 1015.9 |
| 20260509090937 | 49 | 53 | 1.0 | 2.0 | 0.00 | 0.00 | 0.00 | 69 | 1015.9 |
| 20260509090834 | 49 | 53 | 1.0 | 2.0 | 0.00 | 0.00 | 0.00 | 69 | 1015.9 |
| 20260509090740 | 49 | 53 | 1.0 | 2.0 | 0.00 | 0.00 | 0.00 | 69 | 1015.9 |
| 20260509090658 | 50 | 53 | 0.0 | 2.0 | 0.00 | 0.00 | 0.00 | 69 | 1015.9 |
| 20260509090541 | 50 | 53 | 0.0 | 2.0 | 0.00 | 0.00 | 0.00 | 68 | 1016.0 |
| 20260509090421 | 50 | 53 | 1.0 | 2.0 | 0.00 | 0.00 | 0.00 | 68 | 1016.0 |
| 20260509090317 | 50 | 53 | 1.0 | 2.0 | 0.00 | 0.00 | 0.00 | 68 | 1016.0 |
| 20260509090226 | 50 | 53 | 1.0 | 2.0 | 0.00 | 0.00 | 0.00 | 68 | 1016.0 |
| 20260509090121 | 50 | 53 | 1.0 | 2.0 | 0.00 | 0.00 | 0.00 | 68 | 1016.0 |
| 20260509090028 | 50 | 53 | 1.0 | 2.0 | 0.00 | 0.00 | 0.00 | 68 | 1016.0 |
| 20260509085924 | 50 | 53 | 1.0 | 2.0 | 0.00 | 0.00 | 0.00 | 68 | 1016.0 |
| 20260509085821 | 50 | 53 | 0.0 | 2.0 | 0.00 | 0.00 | 0.00 | 68 | 1016.0 |
| 20260509085733 | 50 | 53 | 0.0 | 0.0 | 0.00 | 0.00 | 0.00 | 68 | 1016.0 |
| 20260509085631 | 50 | 53 | 0.0 | 0.0 | 0.00 | 0.00 | 0.00 | 68 | 1016.0 |
| 20260509085535 | 50 | 53 | 0.0 | 0.0 | 0.00 | 0.00 | 0.00 | 68 | 1016.1 |
| 20260509085431 | 50 | 53 | 0.0 | 0.0 | 0.00 | 0.00 | 0.00 | 68 | 1016.0 |
| 20260509085327 | 50 | 53 | 0.0 | 0.0 | 0.00 | 0.00 | 0.00 | 68 | 1016.0 |
| 20260509085232 | 50 | 53 | 0.0 | 0.0 | 0.00 | 0.00 | 0.00 | 68 | 1016.1 |
| 20260509085135 | 50 | 53 | 0.0 | 0.0 | 0.00 | 0.00 | 0.00 | 68 | 1016.0 |
| 20260509085041 | 50 | 53 | 0.0 | 0.0 | 0.00 | 0.00 | 0.00 | 68 | 1016.0 |
| 20260509085006 | 50 | 53 | 0.0 | 0.0 | 0.00 | 0.00 | 0.00 | 68 | 1016.0 |
| 20260509084821 | 50 | 53 | 0.0 | 0.0 | 0.00 | 0.00 | 0.00 | 68 | 1016.0 |
| 20260509084717 | 50 | 53 | 0.0 | 1.0 | 0.00 | 0.00 | 0.00 | 68 | 1016.1 |
| 20260509084646 | 50 | 53 | 0.0 | 1.0 | 0.00 | 0.00 | 0.00 | 68 | 1016.1 |
| 20260509084522 | 50 | 53 | 0.0 | 2.0 | 0.00 | 0.00 | 0.00 | 68 | 1016.0 |
| 20260509084425 | 50 | 53 | 0.0 | 2.0 | 0.00 | 0.00 | 0.00 | 68 | 1016.0 |
| 20260509084321 | 50 | 53 | 0.0 | 2.0 | 0.00 | 0.00 | 0.00 | 68 | 1016.1 |
| 20260509084225 | 50 | 53 | 0.0 | 2.0 | 0.00 | 0.00 | 0.00 | 67 | 1016.1 |
| 20260509084121 | 50 | 53 | 0.0 | 3.0 | 0.00 | 0.00 | 0.00 | 67 | 1016.1 |
| 20260509084018 | 50 | 53 | 0.0 | 3.0 | 0.00 | 0.00 | 0.00 | 67 | 1016.2 |
| 20260509083923 | 50 | 53 | 0.0 | 3.0 | 0.00 | 0.00 | 0.00 | 67 | 1016.1 |
| 20260509083820 | 50 | 53 | 1.0 | 3.0 | 0.00 | 0.00 | 0.00 | 67 | 1016.1 |
| 20260509083730 | 50 | 53 | 1.0 | 3.0 | 0.00 | 0.00 | 0.00 | 67 | 1016.1 |
| 20260509083649 | 50 | 53 | 2.0 | 3.0 | 0.00 | 0.00 | 0.00 | 67 | 1016.1 |
| 20260509083533 | 50 | 53 | 2.0 | 3.0 | 0.00 | 0.00 | 0.00 | 67 | 1016.1 |
| 20260509083428 | 50 | 53 | 2.0 | 3.0 | 0.00 | 0.00 | 0.00 | 67 | 1016.2 |
| 20260509083353 | 50 | 53 | 2.0 | 3.0 | 0.00 | 0.00 | 0.00 | 67 | 1016.2 |
| 20260509083228 | 50 | 53 | 2.0 | 3.0 | 0.00 | 0.00 | 0.00 | 67 | 1016.1 |
| 20260509083136 | 50 | 53 | 1.0 | 2.0 | 0.00 | 0.00 | 0.00 | 67 | 1016.2 |
| 20260509083040 | 50 | 53 | 1.0 | 2.0 | 0.00 | 0.00 | 0.00 | 66 | 1016.1 |
| 20260509082921 | 51 | 53 | 1.0 | 2.0 | 0.00 | 0.00 | 0.00 | 66 | 1016.1 |
| 20260509082817 | 51 | 53 | 1.0 | 2.0 | 0.00 | 0.00 | 0.00 | 66 | 1016.1 |
| 20260509082723 | 51 | 53 | 0.0 | 2.0 | 0.00 | 0.00 | 0.00 | 66 | 1016.1 |
| 20260509082650 | 51 | 53 | 0.0 | 4.0 | 0.00 | 0.00 | 0.00 | 66 | 1016.1 |
| 20260509082524 | 51 | 53 | 0.0 | 4.0 | 0.00 | 0.00 | 0.00 | 66 | 1016.1 |
| 20260509082419 | 51 | 53 | 0.0 | 4.0 | 0.00 | 0.00 | 0.00 | 66 | 1016.1 |
| 20260509082326 | 51 | 53 | 0.0 | 4.0 | 0.00 | 0.00 | 0.00 | 66 | 1016.1 |
| 20260509082255 | 51 | 53 | 1.0 | 4.0 | 0.00 | 0.00 | 0.00 | 66 | 1016.2 |
| 20260509082132 | 51 | 53 | 1.0 | 4.0 | 0.00 | 0.00 | 0.00 | 66 | 1016.1 |
| 20260509082027 | 51 | 53 | 2.0 | 4.0 | 0.00 | 0.00 | 0.00 | 66 | 1016.2 |
| 20260509081951 | 51 | 53 | 2.0 | 4.0 | 0.00 | 0.00 | 0.00 | 66 | 1016.2 |
| 20260509081835 | 51 | 53 | 2.0 | 4.0 | 0.00 | 0.00 | 0.00 | 66 | 1016.2 |
| 20260509081731 | 51 | 53 | 2.0 | 4.0 | 0.00 | 0.00 | 0.00 | 66 | 1016.2 |
| 20260509081639 | 51 | 53 | 1.0 | 2.0 | 0.00 | 0.00 | 0.00 | 66 | 1016.1 |
| 20260509081535 | 51 | 53 | 0.0 | 3.0 | 0.00 | 0.00 | 0.00 | 66 | 1016.2 |
| 20260509081432 | 51 | 53 | 0.0 | 3.0 | 0.00 | 0.00 | 0.00 | 66 | 1016.1 |
| 20260509081317 | 51 | 53 | 0.0 | 3.0 | 0.00 | 0.00 | 0.00 | 66 | 1016.1 |
| 20260509081244 | 51 | 53 | 1.0 | 3.0 | 0.00 | 0.00 | 0.00 | 66 | 1016.1 |
| 20260509081116 | 51 | 53 | 0.0 | 3.0 | 0.00 | 0.00 | 0.00 | 66 | 1016.1 |
| 20260509081043 | 51 | 53 | 0.0 | 3.0 | 0.00 | 0.00 | 0.00 | 66 | 1016.1 |
| 20260509080947 | 51 | 53 | 0.0 | 3.0 | 0.00 | 0.00 | 0.00 | 66 | 1016.1 |
| 20260509080842 | 51 | 53 | 1.0 | 5.0 | 0.00 | 0.00 | 0.00 | 66 | 1016.0 |
| 20260509080722 | 51 | 53 | 2.0 | 5.0 | 0.00 | 0.00 | 0.00 | 66 | 1016.1 |
| 20260509080630 | 51 | 53 | 1.0 | 5.0 | 0.00 | 0.00 | 0.00 | 66 | 1016.1 |
| 20260509080525 | 51 | 53 | 0.0 | 5.0 | 0.00 | 0.00 | 0.00 | 66 | 1016.0 |
| 20260509080431 | 51 | 53 | 0.0 | 5.0 | 0.00 | 0.00 | 0.00 | 66 | 1016.0 |
| 20260509080328 | 51 | 53 | 0.0 | 5.0 | 0.00 | 0.00 | 0.00 | 66 | 1016.0 |
| 20260509080221 | 51 | 53 | 1.0 | 5.0 | 0.00 | 0.00 | 0.00 | 66 | 1016.0 |
| 20260509080124 | 51 | 53 | 2.0 | 5.0 | 0.00 | 0.00 | 0.00 | 66 | 1016.0 |
| 20260509080054 | 51 | 53 | 3.0 | 5.0 | 0.00 | 0.00 | 0.00 | 66 | 1016.0 |
| 20260509075929 | 51 | 53 | 3.0 | 7.0 | 0.00 | 0.00 | 0.00 | 66 | 1016.0 |
| 20260509075827 | 51 | 53 | 2.0 | 7.0 | 0.00 | 0.00 | 0.00 | 66 | 1016.0 |
| 20260509075733 | 51 | 53 | 2.0 | 7.0 | 0.00 | 0.00 | 0.00 | 66 | 1016.0 |
| 20260509075633 | 51 | 53 | 3.0 | 7.0 | 0.00 | 0.00 | 0.00 | 66 | 1016.0 |
| 20260509075537 | 51 | 53 | 3.0 | 7.0 | 0.00 | 0.00 | 0.00 | 66 | 1015.9 |
| 20260509075417 | 51 | 53 | 2.0 | 7.0 | 0.00 | 0.00 | 0.00 | 66 | 1016.0 |
| 20260509075344 | 51 | 53 | 2.0 | 7.0 | 0.00 | 0.00 | 0.00 | 66 | 1016.0 |
| 20260509075222 | 51 | 53 | 4.0 | 7.0 | 0.00 | 0.00 | 0.00 | 66 | 1015.9 |
| 20260509075138 | 51 | 53 | 4.0 | 7.0 | 0.00 | 0.00 | 0.00 | 66 | 1015.9 |
| 20260509075040 | 51 | 52 | 3.0 | 7.0 | 0.00 | 0.00 | 0.00 | 66 | 1015.9 |
| 20260509074917 | 51 | 52 | 3.0 | 8.0 | 0.00 | 0.00 | 0.00 | 66 | 1015.9 |
| 20260509074842 | 51 | 52 | 3.0 | 8.0 | 0.00 | 0.00 | 0.00 | 66 | 1015.9 |
| 20260509074743 | 51 | 48 | 3.0 | 8.0 | 0.00 | 0.00 | 0.00 | 66 | 1015.9 |
| 20260509074631 | 51 | 48 | 4.0 | 8.0 | 0.00 | 0.00 | 0.00 | 66 | 1015.9 |
| 20260509074526 | 51 | 46 | 4.0 | 6.0 | 0.00 | 0.00 | 0.00 | 65 | 1015.9 |
| 20260509074423 | 51 | 48 | 4.0 | 6.0 | 0.00 | 0.00 | 0.00 | 65 | 1016.0 |
| 20260509074329 | 51 | 49 | 3.0 | 6.0 | 0.00 | 0.00 | 0.00 | 65 | 1016.0 |
| 20260509074253 | 51 | 49 | 3.0 | 6.0 | 0.00 | 0.00 | 0.00 | 65 | 1015.9 |
| 20260509074151 | 51 | 50 | 3.0 | 6.0 | 0.00 | 0.00 | 0.00 | 65 | 1015.9 |
| 20260509074034 | 51 | 50 | 3.0 | 7.0 | 0.00 | 0.00 | 0.00 | 65 | 1015.9 |
| 20260509074004 | 51 | 49 | 3.0 | 7.0 | 0.00 | 0.00 | 0.00 | 65 | 1015.9 |
| 20260509073820 | 51 | 49 | 3.0 | 7.0 | 0.00 | 0.00 | 0.00 | 65 | 1015.9 |
| 20260509073747 | 51 | 49 | 3.0 | 7.0 | 0.00 | 0.00 | 0.00 | 65 | 1015.9 |
| 20260509073620 | 51 | 63 | 3.0 | 7.0 | 0.00 | 0.00 | 0.00 | 64 | 1015.9 |
| 20260509073517 | 51 | 63 | 4.0 | 7.0 | 0.00 | 0.00 | 0.00 | 64 | 1015.9 |
| 20260509073442 | 52 | 65 | 4.0 | 7.0 | 0.00 | 0.00 | 0.00 | 64 | 1015.9 |
| 20260509073319 | 52 | 60 | 4.0 | 7.0 | 0.00 | 0.00 | 0.00 | 64 | 1015.9 |
| 20260509073229 | 52 | 57 | 4.0 | 7.0 | 0.00 | 0.00 | 0.00 | 64 | 1015.9 |
| 20260509073129 | 52 | 59 | 4.0 | 7.0 | 0.00 | 0.00 | 0.00 | 64 | 1015.9 |
| 20260509073031 | 52 | 60 | 4.0 | 7.0 | 0.00 | 0.00 | 0.00 | 64 | 1015.9 |
| 20260509072957 | 52 | 61 | 5.0 | 7.0 | 0.00 | 0.00 | 0.00 | 63 | 1016.0 |
| 20260509072839 | 52 | 62 | 4.0 | 7.0 | 0.00 | 0.00 | 0.00 | 63 | 1015.9 |
| 20260509072716 | 52 | 52 | 4.0 | 7.0 | 0.00 | 0.00 | 0.00 | 63 | 1015.9 |
| 20260509072643 | 52 | 52 | 5.0 | 8.0 | 0.00 | 0.00 | 0.00 | 63 | 1015.9 |
| 20260509072518 | 52 | 38 | 5.0 | 8.0 | 0.00 | 0.00 | 0.00 | 63 | 1015.9 |
| 20260509072419 | 52 | 127 | 4.0 | 8.0 | 0.00 | 0.00 | 0.00 | 62 | 1015.9 |
| 20260509072344 | 52 | 128 | 4.0 | 8.0 | 0.00 | 0.00 | 0.00 | 62 | 1015.9 |
| 20260509072223 | 52 | 140 | 4.0 | 7.0 | 0.00 | 0.00 | 0.00 | 62 | 1015.9 |
| 20260509072119 | 52 | 146 | 4.0 | 7.0 | 0.00 | 0.00 | 0.00 | 62 | 1015.8 |
| 20260509072025 | 52 | 146 | 4.0 | 7.0 | 0.00 | 0.00 | 0.00 | 62 | 1015.8 |
| 20260509071921 | 52 | 146 | 4.0 | 7.0 | 0.00 | 0.00 | 0.00 | 62 | 1015.9 |
| 20260509071845 | 52 | 147 | 4.0 | 7.0 | 0.00 | 0.00 | 0.00 | 61 | 1015.8 |
| 20260509071725 | 53 | 148 | 4.0 | 7.0 | 0.00 | 0.00 | 0.00 | 61 | 1015.8 |
| 20260509071632 | 53 | 159 | 3.0 | 6.0 | 0.00 | 0.00 | 0.00 | 61 | 1015.8 |
| 20260509071528 | 53 | 163 | 3.0 | 6.0 | 0.00 | 0.00 | 0.00 | 61 | 1015.8 |
| 20260509071433 | 53 | 163 | 3.0 | 6.0 | 0.00 | 0.00 | 0.00 | 61 | 1015.8 |
| 20260509071331 | 53 | 163 | 3.0 | 6.0 | 0.00 | 0.00 | 0.00 | 61 | 1015.8 |
| 20260509071228 | 53 | 163 | 3.0 | 6.0 | 0.00 | 0.00 | 0.00 | 61 | 1015.8 |
| 20260509071133 | 53 | 163 | 3.0 | 6.0 | 0.00 | 0.00 | 0.00 | 61 | 1015.8 |
| 20260509071041 | 53 | 163 | 3.0 | 6.0 | 0.00 | 0.00 | 0.00 | 61 | 1015.8 |
| 20260509070917 | 53 | 163 | 4.0 | 6.0 | 0.00 | 0.00 | 0.00 | 61 | 1015.8 |
| 20260509070834 | 53 | 178 | 3.0 | 5.0 | 0.00 | 0.00 | 0.00 | 61 | 1015.8 |
| 20260509070720 | 53 | 179 | 2.0 | 4.0 | 0.00 | 0.00 | 0.00 | 60 | 1015.8 |
| 20260509070638 | 53 | 179 | 2.0 | 4.0 | 0.00 | 0.00 | 0.00 | 60 | 1015.8 |
| 20260509070541 | 53 | 179 | 2.0 | 4.0 | 0.00 | 0.00 | 0.00 | 60 | 1015.7 |
| 20260509070446 | 53 | 179 | 2.0 | 3.0 | 0.00 | 0.00 | 0.00 | 60 | 1015.7 |
| 20260509070325 | 53 | 179 | 2.0 | 3.0 | 0.00 | 0.00 | 0.00 | 60 | 1015.7 |
| 20260509070231 | 54 | 179 | 2.0 | 4.0 | 0.00 | 0.00 | 0.00 | 60 | 1015.7 |
| 20260509070129 | 54 | 179 | 2.0 | 4.0 | 0.00 | 0.00 | 0.00 | 60 | 1015.7 |
| 20260509070023 | 54 | 179 | 2.0 | 4.0 | 0.00 | 0.00 | 0.00 | 60 | 1015.7 |
| 20260509065928 | 54 | 179 | 2.0 | 4.0 | 0.00 | 0.00 | 0.00 | 60 | 1015.7 |
| 20260509065824 | 54 | 179 | 3.0 | 4.0 | 0.00 | 0.00 | 0.00 | 60 | 1015.6 |
| 20260509065733 | 54 | 179 | 3.0 | 4.0 | 0.00 | 0.00 | 0.00 | 59 | 1015.6 |
| 20260509065632 | 54 | 179 | 3.0 | 4.0 | 0.00 | 0.00 | 0.00 | 59 | 1015.6 |
| 20260509065535 | 54 | 179 | 3.0 | 4.0 | 0.00 | 0.00 | 0.00 | 59 | 1015.6 |
| 20260509065452 | 54 | 179 | 3.0 | 5.0 | 0.00 | 0.00 | 0.00 | 59 | 1015.6 |
| 20260509065356 | 54 | 179 | 2.0 | 4.0 | 0.00 | 0.00 | 0.00 | 59 | 1015.6 |
| 20260509065243 | 54 | 179 | 2.0 | 4.0 | 0.00 | 0.00 | 0.00 | 59 | 1015.6 |
| 20260509065138 | 54 | 179 | 2.0 | 3.0 | 0.00 | 0.00 | 0.00 | 59 | 1015.6 |
| 20260509065042 | 54 | 179 | 2.0 | 3.0 | 0.00 | 0.00 | 0.00 | 59 | 1015.6 |
| 20260509064943 | 54 | 179 | 2.0 | 4.0 | 0.00 | 0.00 | 0.00 | 59 | 1015.6 |
| 20260509064747 | 54 | 179 | 2.0 | 4.0 | 0.00 | 0.00 | 0.00 | 59 | 1015.5 |
| 20260509064622 | 54 | 179 | 2.0 | 4.0 | 0.00 | 0.00 | 0.00 | 59 | 1015.5 |
| 20260509064528 | 54 | 179 | 2.0 | 4.0 | 0.00 | 0.00 | 0.00 | 59 | 1015.5 |
| 20260509064445 | 55 | 179 | 2.0 | 4.0 | 0.00 | 0.00 | 0.00 | 58 | 1015.6 |
| 20260509064328 | 55 | 179 | 2.0 | 4.0 | 0.00 | 0.00 | 0.00 | 58 | 1015.6 |
| 20260509064253 | 55 | 179 | 3.0 | 4.0 | 0.00 | 0.00 | 0.00 | 58 | 1015.5 |
| 20260509064131 | 55 | 179 | 3.0 | 4.0 | 0.00 | 0.00 | 0.00 | 58 | 1015.6 |
| 20260509064039 | 55 | 179 | 2.0 | 4.0 | 0.00 | 0.00 | 0.00 | 59 | 1015.5 |
| 20260509063917 | 55 | 180 | 0.0 | 1.0 | 0.00 | 0.00 | 0.00 | 59 | 1015.5 |
| 20260509063842 | 55 | 180 | 0.0 | 0.0 | 0.00 | 0.00 | 0.00 | 59 | 1015.5 |
| 20260509063737 | 55 | 180 | 0.0 | 1.0 | 0.00 | 0.00 | 0.00 | 59 | 1015.5 |
| 20260509063706 | 55 | 180 | 0.0 | 1.0 | 0.00 | 0.00 | 0.00 | 59 | 1015.5 |
| 20260509063519 | 55 | 180 | 0.0 | 1.0 | 0.00 | 0.00 | 0.00 | 59 | 1015.5 |
| 20260509063425 | 55 | 180 | 0.0 | 1.0 | 0.00 | 0.00 | 0.00 | 59 | 1015.5 |
| 20260509063341 | 55 | 180 | 0.0 | 1.0 | 0.00 | 0.00 | 0.00 | 59 | 1015.5 |
| 20260509063229 | 55 | 180 | 0.0 | 1.0 | 0.00 | 0.00 | 0.00 | 59 | 1015.5 |
| 20260509063128 | 55 | 180 | 0.0 | 1.0 | 0.00 | 0.00 | 0.00 | 59 | 1015.5 |
| 20260509063031 | 55 | 180 | 0.0 | 1.0 | 0.00 | 0.00 | 0.00 | 59 | 1015.5 |
| 20260509062928 | 55 | 180 | 0.0 | 1.0 | 0.00 | 0.00 | 0.00 | 59 | 1015.5 |
| 20260509062834 | 55 | 180 | 0.0 | 1.0 | 0.00 | 0.00 | 0.00 | 59 | 1015.5 |
| 20260509062729 | 55 | 180 | 0.0 | 1.0 | 0.00 | 0.00 | 0.00 | 58 | 1015.5 |
| 20260509062630 | 55 | 180 | 0.0 | 1.0 | 0.00 | 0.00 | 0.00 | 58 | 1015.5 |
| 20260509062535 | 55 | 180 | 0.0 | 1.0 | 0.00 | 0.00 | 0.00 | 58 | 1015.5 |
| 20260509062439 | 55 | 180 | 0.0 | 1.0 | 0.00 | 0.00 | 0.00 | 58 | 1015.5 |
| 20260509062335 | 55 | 180 | 0.0 | 3.0 | 0.00 | 0.00 | 0.00 | 58 | 1015.5 |
| 20260509062233 | 55 | 180 | 0.0 | 3.0 | 0.00 | 0.00 | 0.00 | 58 | 1015.5 |
| 20260509062117 | 55 | 180 | 1.0 | 3.0 | 0.00 | 0.00 | 0.00 | 58 | 1015.5 |
| 20260509062032 | 55 | 180 | 0.0 | 3.0 | 0.00 | 0.00 | 0.00 | 58 | 1015.5 |
| 20260509061943 | 55 | 180 | 0.0 | 3.0 | 0.00 | 0.00 | 0.00 | 58 | 1015.5 |
| 20260509061819 | 55 | 180 | 0.0 | 3.0 | 0.00 | 0.00 | 0.00 | 57 | 1015.5 |
| 20260509061746 | 55 | 180 | 0.0 | 3.0 | 0.00 | 0.00 | 0.00 | 57 | 1015.5 |
| 20260509061622 | 55 | 180 | 1.0 | 3.0 | 0.00 | 0.00 | 0.00 | 57 | 1015.5 |
| 20260509061528 | 55 | 180 | 1.0 | 3.0 | 0.00 | 0.00 | 0.00 | 57 | 1015.5 |
| 20260509061423 | 55 | 180 | 2.0 | 3.0 | 0.00 | 0.00 | 0.00 | 57 | 1015.5 |
| 20260509061319 | 55 | 180 | 2.0 | 4.0 | 0.00 | 0.00 | 0.00 | 57 | 1015.4 |
| 20260509061248 | 55 | 180 | 1.0 | 3.0 | 0.00 | 0.00 | 0.00 | 57 | 1015.4 |
| 20260509061135 | 55 | 180 | 1.0 | 3.0 | 0.00 | 0.00 | 0.00 | 56 | 1015.4 |
| 20260509061030 | 55 | 180 | 2.0 | 3.0 | 0.00 | 0.00 | 0.00 | 57 | 1015.4 |
| 20260509060957 | 55 | 180 | 2.0 | 3.0 | 0.00 | 0.00 | 0.00 | 57 | 1015.4 |
| 20260509060901 | 55 | 180 | 2.0 | 3.0 | 0.00 | 0.00 | 0.00 | 56 | 1015.4 |
| 20260509060736 | 55 | 180 | 1.0 | 4.0 | 0.00 | 0.00 | 0.00 | 57 | 1015.4 |
| 20260509060634 | 55 | 180 | 0.0 | 3.0 | 0.00 | 0.00 | 0.00 | 57 | 1015.4 |
| 20260509060522 | 55 | 180 | 0.0 | 5.0 | 0.00 | 0.00 | 0.00 | 57 | 1015.4 |
| 20260509060418 | 55 | 180 | 1.0 | 6.0 | 0.00 | 0.00 | 0.00 | 57 | 1015.4 |
| 20260509060324 | 55 | 180 | 2.0 | 6.0 | 0.00 | 0.00 | 0.00 | 58 | 1015.4 |
| 20260509060223 | 55 | 180 | 2.0 | 6.0 | 0.00 | 0.00 | 0.00 | 58 | 1015.4 |
| 20260509060124 | 55 | 180 | 2.0 | 6.0 | 0.00 | 0.00 | 0.00 | 58 | 1015.5 |
| 20260509060022 | 55 | 180 | 1.0 | 6.0 | 0.00 | 0.00 | 0.00 | 58 | 1015.4 |
| 20260509055947 | 55 | 180 | 1.0 | 6.0 | 0.00 | 0.00 | 0.00 | 58 | 1015.4 |
| 20260509055823 | 55 | 180 | 3.0 | 6.0 | 0.00 | 0.00 | 0.00 | 58 | 1015.3 |
| 20260509055733 | 55 | 180 | 4.0 | 6.0 | 0.00 | 0.00 | 0.00 | 57 | 1015.3 |
| 20260509055631 | 55 | 180 | 4.0 | 6.0 | 0.00 | 0.00 | 0.00 | 56 | 1015.3 |
| 20260509055554 | 55 | 180 | 4.0 | 7.0 | 0.00 | 0.00 | 0.00 | 56 | 1015.4 |
| 20260509055439 | 55 | 202 | 4.0 | 5.0 | 0.00 | 0.00 | 0.00 | 56 | 1015.4 |
| 20260509055355 | 55 | 206 | 3.0 | 5.0 | 0.00 | 0.00 | 0.00 | 56 | 1015.4 |
| 20260509055239 | 55 | 210 | 2.0 | 5.0 | 0.00 | 0.00 | 0.00 | 56 | 1015.4 |
| 20260509055137 | 55 | 210 | 2.0 | 5.0 | 0.00 | 0.00 | 0.00 | 56 | 1015.4 |
| 20260509055041 | 55 | 210 | 2.0 | 5.0 | 0.00 | 0.00 | 0.00 | 56 | 1015.4 |
| 20260509054919 | 55 | 210 | 2.0 | 5.0 | 0.00 | 0.00 | 0.00 | 56 | 1015.4 |
| 20260509054825 | 55 | 210 | 2.0 | 5.0 | 0.00 | 0.00 | 0.00 | 56 | 1015.2 |
| 20260509054742 | 55 | 210 | 2.0 | 5.0 | 0.00 | 0.00 | 0.00 | 56 | 1015.2 |
| 20260509054645 | 55 | 210 | 3.0 | 5.0 | 0.00 | 0.00 | 0.00 | 56 | 1015.2 |
| 20260509054549 | 55 | 210 | 3.0 | 5.0 | 0.00 | 0.00 | 0.00 | 56 | 1015.2 |
| 20260509054425 | 55 | 210 | 3.0 | 5.0 | 0.00 | 0.00 | 0.00 | 56 | 1015.2 |
| 20260509054329 | 56 | 215 | 3.0 | 4.0 | 0.00 | 0.00 | 0.00 | 56 | 1015.2 |
| 20260509054255 | 56 | 271 | 3.0 | 4.0 | 0.00 | 0.00 | 0.00 | 55 | 1015.2 |
| 20260509054133 | 56 | 276 | 3.0 | 4.0 | 0.00 | 0.00 | 0.00 | 55 | 1015.2 |
| 20260509054040 | 56 | 277 | 2.0 | 4.0 | 0.00 | 0.00 | 0.00 | 55 | 1015.3 |
| 20260509053918 | 56 | 277 | 2.0 | 3.0 | 0.00 | 0.00 | 0.00 | 55 | 1015.2 |
| 20260509053844 | 56 | 278 | 2.0 | 3.0 | 0.00 | 0.00 | 0.00 | 55 | 1015.2 |
| 20260509053742 | 56 | 278 | 2.0 | 3.0 | 0.00 | 0.00 | 0.00 | 55 | 1015.2 |
| 20260509053628 | 56 | 279 | 2.0 | 3.0 | 0.00 | 0.00 | 0.00 | 55 | 1015.2 |
| 20260509053519 | 56 | 280 | 1.0 | 3.0 | 0.00 | 0.00 | 0.00 | 54 | 1015.2 |
| 20260509053419 | 56 | 280 | 1.0 | 3.0 | 0.00 | 0.00 | 0.00 | 54 | 1015.2 |
| 20260509053325 | 56 | 280 | 1.0 | 3.0 | 0.00 | 0.00 | 0.00 | 54 | 1015.2 |
| 20260509053222 | 56 | 280 | 1.0 | 4.0 | 0.00 | 0.00 | 0.00 | 54 | 1015.2 |
| 20260509053125 | 56 | 280 | 0.0 | 4.0 | 0.00 | 0.00 | 0.00 | 54 | 1015.2 |
| 20260509053022 | 56 | 280 | 0.0 | 4.0 | 0.00 | 0.00 | 0.00 | 54 | 1015.2 |
| 20260509052928 | 56 | 280 | 1.0 | 4.0 | 0.00 | 0.00 | 0.00 | 54 | 1015.2 |
| 20260509052853 | 56 | 280 | 1.0 | 4.0 | 0.00 | 0.00 | 0.00 | 54 | 1015.2 |
| 20260509052729 | 57 | 280 | 2.0 | 4.0 | 0.00 | 0.00 | 0.00 | 54 | 1015.1 |
| 20260509052639 | 57 | 280 | 2.0 | 4.0 | 0.00 | 0.00 | 0.00 | 54 | 1015.1 |
| 20260509052554 | 57 | 280 | 3.0 | 4.0 | 0.00 | 0.00 | 0.00 | 54 | 1015.1 |
| 20260509052440 | 57 | 280 | 3.0 | 4.0 | 0.00 | 0.00 | 0.00 | 55 | 1015.1 |
| 20260509052336 | 57 | 280 | 2.0 | 4.0 | 0.00 | 0.00 | 0.00 | 54 | 1015.1 |
| 20260509052244 | 57 | 279 | 2.0 | 4.0 | 0.00 | 0.00 | 0.00 | 54 | 1015.2 |
| 20260509052120 | 57 | 279 | 2.0 | 4.0 | 0.00 | 0.00 | 0.00 | 54 | 1015.2 |
| 20260509052021 | 57 | 279 | 1.0 | 2.0 | 0.00 | 0.00 | 0.00 | 54 | 1015.2 |
| 20260509051946 | 57 | 279 | 1.0 | 2.0 | 0.00 | 0.00 | 0.00 | 54 | 1015.2 |
| 20260509051823 | 57 | 279 | 1.0 | 2.0 | 0.00 | 0.00 | 0.00 | 54 | 1015.2 |
| 20260509051729 | 57 | 279 | 1.0 | 2.0 | 0.00 | 0.00 | 0.00 | 54 | 1015.2 |
| 20260509051624 | 57 | 279 | 0.0 | 2.0 | 0.00 | 0.00 | 0.00 | 54 | 1015.1 |
| 20260509051530 | 57 | 279 | 0.0 | 2.0 | 0.00 | 0.00 | 0.00 | 54 | 1015.1 |
| 20260509051427 | 57 | 279 | 1.0 | 2.0 | 0.00 | 0.00 | 0.00 | 54 | 1015.2 |
| 20260509051328 | 57 | 279 | 1.0 | 2.0 | 0.00 | 0.00 | 0.00 | 54 | 1015.1 |
| 20260509051233 | 57 | 279 | 1.0 | 2.0 | 0.00 | 0.00 | 0.00 | 54 | 1015.1 |
| 20260509051131 | 57 | 279 | 1.0 | 2.0 | 0.00 | 0.00 | 0.00 | 54 | 1015.1 |
| 20260509051055 | 57 | 279 | 0.0 | 2.0 | 0.00 | 0.00 | 0.00 | 54 | 1015.1 |
| 20260509050937 | 57 | 279 | 0.0 | 2.0 | 0.00 | 0.00 | 0.00 | 54 | 1015.0 |
| 20260509050833 | 57 | 279 | 0.0 | 2.0 | 0.00 | 0.00 | 0.00 | 54 | 1015.1 |
| 20260509050740 | 57 | 279 | 0.0 | 2.0 | 0.00 | 0.00 | 0.00 | 53 | 1015.0 |
| 20260509050619 | 57 | 279 | 0.0 | 2.0 | 0.00 | 0.00 | 0.00 | 53 | 1015.1 |
| 20260509050544 | 57 | 279 | 0.0 | 2.0 | 0.00 | 0.00 | 0.00 | 53 | 1015.1 |
| 20260509050421 | 57 | 279 | 1.0 | 2.0 | 0.00 | 0.00 | 0.00 | 53 | 1015.1 |
| 20260509050336 | 58 | 279 | 1.0 | 2.0 | 0.00 | 0.00 | 0.00 | 53 | 1015.1 |
| 20260509050239 | 58 | 279 | 0.0 | 2.0 | 0.00 | 0.00 | 0.00 | 53 | 1015.0 |
| 20260509050145 | 58 | 279 | 0.0 | 2.0 | 0.00 | 0.00 | 0.00 | 53 | 1015.0 |
| 20260509050020 | 58 | 279 | 1.0 | 3.0 | 0.00 | 0.00 | 0.00 | 53 | 1015.1 |
| 20260509045921 | 58 | 279 | 0.0 | 3.0 | 0.00 | 0.00 | 0.00 | 53 | 1015.1 |
| 20260509045827 | 58 | 279 | 0.0 | 3.0 | 0.00 | 0.00 | 0.00 | 53 | 1015.1 |
| 20260509045725 | 58 | 279 | 0.0 | 3.0 | 0.00 | 0.00 | 0.00 | 52 | 1015.1 |
| 20260509045620 | 58 | 279 | 0.0 | 3.0 | 0.00 | 0.00 | 0.00 | 52 | 1015.1 |
| 20260509045525 | 58 | 279 | 0.0 | 3.0 | 0.00 | 0.00 | 0.00 | 52 | 1015.1 |
| 20260509045451 | 58 | 279 | 0.0 | 3.0 | 0.00 | 0.00 | 0.00 | 52 | 1015.1 |
| 20260509045326 | 58 | 279 | 1.0 | 3.0 | 0.00 | 0.00 | 0.00 | 52 | 1015.1 |
| 20260509045227 | 58 | 279 | 1.0 | 3.0 | 0.00 | 0.00 | 0.00 | 52 | 1015.0 |
| 20260509045133 | 58 | 279 | 1.0 | 3.0 | 0.00 | 0.00 | 0.00 | 52 | 1015.0 |
| 20260509045026 | 58 | 280 | 1.0 | 6.0 | 0.00 | 0.00 | 0.00 | 51 | 1015.0 |
| 20260509044931 | 58 | 280 | 1.0 | 6.0 | 0.00 | 0.00 | 0.00 | 51 | 1015.0 |
| 20260509044827 | 58 | 280 | 1.0 | 6.0 | 0.00 | 0.00 | 0.00 | 51 | 1015.0 |
| 20260509044733 | 58 | 280 | 1.0 | 7.0 | 0.00 | 0.00 | 0.00 | 51 | 1015.0 |
| 20260509044631 | 58 | 280 | 1.0 | 7.0 | 0.00 | 0.00 | 0.00 | 51 | 1015.0 |
| 20260509044540 | 58 | 280 | 1.0 | 7.0 | 0.00 | 0.00 | 0.00 | 51 | 1015.0 |
| 20260509044434 | 59 | 280 | 2.0 | 7.0 | 0.00 | 0.00 | 0.00 | 51 | 1015.0 |
| 20260509044359 | 59 | 280 | 3.0 | 7.0 | 0.00 | 0.00 | 0.00 | 51 | 1015.0 |
| 20260509044233 | 59 | 280 | 3.0 | 7.0 | 0.00 | 0.00 | 0.00 | 51 | 1015.0 |
| 20260509044141 | 59 | 280 | 3.0 | 7.0 | 0.00 | 0.00 | 0.00 | 50 | 1015.0 |
| 20260509044035 | 59 | 280 | 4.0 | 7.0 | 0.00 | 0.00 | 0.00 | 50 | 1015.0 |
| 20260509043929 | 59 | 280 | 4.0 | 7.0 | 0.00 | 0.00 | 0.00 | 50 | 1015.0 |
| 20260509043836 | 59 | 280 | 3.0 | 7.0 | 0.00 | 0.00 | 0.00 | 49 | 1015.0 |
| 20260509043731 | 59 | 281 | 3.0 | 6.0 | 0.00 | 0.00 | 0.00 | 50 | 1015.0 |
| 20260509043637 | 59 | 281 | 3.0 | 6.0 | 0.00 | 0.00 | 0.00 | 50 | 1015.0 |
| 20260509043531 | 59 | 281 | 3.0 | 6.0 | 0.00 | 0.00 | 0.00 | 50 | 1015.0 |
| 20260509043437 | 59 | 281 | 4.0 | 6.0 | 0.00 | 0.00 | 0.00 | 50 | 1014.9 |
| 20260509043329 | 59 | 282 | 3.0 | 6.0 | 0.00 | 0.00 | 0.00 | 49 | 1014.9 |
| 20260509043233 | 59 | 282 | 3.0 | 6.0 | 0.00 | 0.00 | 0.00 | 49 | 1014.9 |
| 20260509043131 | 59 | 283 | 3.0 | 6.0 | 0.00 | 0.00 | 0.00 | 50 | 1014.9 |
| 20260509043033 | 59 | 283 | 3.0 | 8.0 | 0.00 | 0.00 | 0.00 | 50 | 1014.9 |
| 20260509042955 | 59 | 283 | 3.0 | 8.0 | 0.00 | 0.00 | 0.00 | 49 | 1014.8 |
| 20260509042830 | 59 | 283 | 3.0 | 8.0 | 0.00 | 0.00 | 0.00 | 49 | 1014.8 |
| 20260509042756 | 59 | 283 | 3.0 | 8.0 | 0.00 | 0.00 | 0.00 | 50 | 1014.9 |
| 20260509042634 | 59 | 283 | 3.0 | 8.0 | 0.00 | 0.00 | 0.00 | 49 | 1014.8 |
| 20260509042538 | 59 | 283 | 3.0 | 8.0 | 0.00 | 0.00 | 0.00 | 49 | 1014.9 |
| 20260509042416 | 60 | 283 | 4.0 | 8.0 | 0.00 | 0.00 | 0.00 | 49 | 1014.8 |
| 20260509042339 | 60 | 283 | 5.0 | 8.0 | 0.00 | 0.00 | 0.00 | 49 | 1014.8 |
| 20260509042251 | 60 | 283 | 5.0 | 8.0 | 0.00 | 0.00 | 0.00 | 49 | 1014.9 |
| 20260509042136 | 60 | 285 | 4.0 | 8.0 | 0.00 | 0.00 | 0.00 | 49 | 1014.8 |
| 20260509042029 | 60 | 284 | 3.0 | 11.0 | 0.00 | 0.00 | 0.00 | 49 | 1014.8 |
| 20260509041933 | 60 | 285 | 2.0 | 11.0 | 0.00 | 0.00 | 0.00 | 49 | 1014.8 |
| 20260509041828 | 60 | 285 | 3.0 | 11.0 | 0.00 | 0.00 | 0.00 | 49 | 1014.8 |
| 20260509041749 | 60 | 286 | 3.0 | 11.0 | 0.00 | 0.00 | 0.00 | 49 | 1014.8 |
| 20260509041628 | 60 | 285 | 3.0 | 11.0 | 0.00 | 0.00 | 0.00 | 49 | 1014.8 |
| 20260509041551 | 60 | 284 | 3.0 | 11.0 | 0.00 | 0.00 | 0.00 | 49 | 1014.8 |
| 20260509041426 | 60 | 284 | 5.0 | 13.0 | 0.00 | 0.00 | 0.00 | 49 | 1014.8 |
| 20260509041330 | 60 | 283 | 6.0 | 13.0 | 0.00 | 0.00 | 0.00 | 49 | 1014.8 |
| 20260509041226 | 60 | 285 | 5.0 | 13.0 | 0.00 | 0.00 | 0.00 | 49 | 1014.8 |
| 20260509041130 | 60 | 285 | 4.0 | 13.0 | 0.00 | 0.00 | 0.00 | 49 | 1014.8 |
| 20260509041023 | 60 | 286 | 5.0 | 13.0 | 0.00 | 0.00 | 0.00 | 49 | 1014.8 |
| 20260509040932 | 60 | 285 | 6.0 | 13.0 | 0.00 | 0.00 | 0.00 | 49 | 1014.8 |
| 20260509040827 | 60 | 301 | 6.0 | 13.0 | 0.00 | 0.00 | 0.00 | 49 | 1014.8 |
| 20260509040731 | 60 | 295 | 7.0 | 13.0 | 0.00 | 0.00 | 0.00 | 49 | 1014.8 |
| 20260509040628 | 60 | 285 | 7.0 | 13.0 | 0.00 | 0.00 | 0.00 | 48 | 1014.8 |
| 20260509040528 | 60 | 275 | 5.0 | 13.0 | 0.00 | 0.00 | 0.00 | 49 | 1014.8 |
| 20260509040423 | 60 | 271 | 4.0 | 13.0 | 0.00 | 0.00 | 0.00 | 48 | 1014.8 |
| 20260509040322 | 60 | 264 | 5.0 | 13.0 | 0.00 | 0.00 | 0.00 | 48 | 1014.7 |
| 20260509040229 | 60 | 268 | 7.0 | 13.0 | 0.00 | 0.00 | 0.00 | 48 | 1014.7 |
| 20260509040124 | 61 | 262 | 7.0 | 13.0 | 0.00 | 0.00 | 0.00 | 48 | 1014.7 |
| 20260509040026 | 61 | 273 | 7.0 | 13.0 | 0.00 | 0.00 | 0.00 | 48 | 1014.7 |
| 20260509035921 | 61 | 273 | 9.0 | 13.0 | 0.00 | 0.00 | 0.00 | 48 | 1014.7 |
| 20260509035828 | 61 | 277 | 8.0 | 13.0 | 0.00 | 0.00 | 0.00 | 48 | 1014.7 |
| 20260509035724 | 61 | 277 | 6.0 | 13.0 | 0.00 | 0.00 | 0.00 | 47 | 1014.7 |
| 20260509035617 | 61 | 283 | 6.0 | 10.0 | 0.00 | 0.00 | 0.00 | 47 | 1014.6 |
| 20260509035524 | 61 | 290 | 7.0 | 10.0 | 0.00 | 0.00 | 0.00 | 47 | 1014.7 |
| 20260509035419 | 61 | 310 | 7.0 | 10.0 | 0.00 | 0.00 | 0.00 | 47 | 1014.6 |
| 20260509035322 | 61 | 288 | 6.0 | 10.0 | 0.00 | 0.00 | 0.00 | 47 | 1014.6 |
| 20260509035221 | 61 | 310 | 6.0 | 10.0 | 0.00 | 0.00 | 0.00 | 47 | 1014.6 |
| 20260509035124 | 61 | 285 | 6.0 | 10.0 | 0.00 | 0.00 | 0.00 | 47 | 1014.6 |
| 20260509035020 | 61 | 287 | 5.0 | 10.0 | 0.00 | 0.00 | 0.00 | 47 | 1014.5 |
| 20260509034920 | 61 | 289 | 5.0 | 10.0 | 0.00 | 0.00 | 0.00 | 47 | 1014.5 |
| 20260509034825 | 61 | 288 | 6.0 | 10.0 | 0.00 | 0.00 | 0.00 | 47 | 1014.5 |
| 20260509034722 | 61 | 281 | 7.0 | 11.0 | 0.00 | 0.00 | 0.00 | 47 | 1014.5 |
| 20260509034643 | 61 | 273 | 6.0 | 11.0 | 0.00 | 0.00 | 0.00 | 47 | 1014.5 |
| 20260509034517 | 61 | 264 | 7.0 | 11.0 | 0.00 | 0.00 | 0.00 | 47 | 1014.4 |
| 20260509034420 | 61 | 279 | 7.0 | 11.0 | 0.00 | 0.00 | 0.00 | 46 | 1014.5 |
| 20260509034347 | 61 | 280 | 7.0 | 11.0 | 0.00 | 0.00 | 0.00 | 47 | 1014.5 |
| 20260509034221 | 61 | 298 | 8.0 | 11.0 | 0.00 | 0.00 | 0.00 | 46 | 1014.3 |
| 20260509034131 | 62 | 286 | 7.0 | 11.0 | 0.00 | 0.00 | 0.00 | 46 | 1014.3 |
| 20260509034027 | 62 | 294 | 7.0 | 11.0 | 0.00 | 0.00 | 0.00 | 46 | 1014.4 |
| 20260509033924 | 62 | 296 | 8.0 | 11.0 | 0.00 | 0.00 | 0.00 | 46 | 1014.4 |
| 20260509033830 | 62 | 295 | 7.0 | 11.0 | 0.00 | 0.00 | 0.00 | 46 | 1014.4 |
| 20260509033727 | 62 | 290 | 6.0 | 9.0 | 0.00 | 0.00 | 0.00 | 46 | 1014.3 |
| 20260509033633 | 62 | 283 | 7.0 | 9.0 | 0.00 | 0.00 | 0.00 | 46 | 1014.3 |
| 20260509033532 | 62 | 303 | 5.0 | 10.0 | 0.00 | 0.00 | 0.00 | 46 | 1014.3 |
| 20260509033436 | 62 | 294 | 4.0 | 12.0 | 0.00 | 0.00 | 0.00 | 46 | 1014.3 |
| 20260509033338 | 62 | 293 | 4.0 | 14.0 | 0.00 | 0.00 | 0.00 | 45 | 1014.3 |
| 20260509033254 | 62 | 293 | 4.0 | 14.0 | 0.00 | 0.00 | 0.00 | 46 | 1014.4 |
| 20260509033140 | 62 | 293 | 5.0 | 14.0 | 0.00 | 0.00 | 0.00 | 46 | 1014.3 |
| 20260509033103 | 62 | 296 | 5.0 | 14.0 | 0.00 | 0.00 | 0.00 | 46 | 1014.3 |
| 20260509032934 | 62 | 296 | 6.0 | 14.0 | 0.00 | 0.00 | 0.00 | 45 | 1014.3 |
| 20260509032831 | 62 | 288 | 7.0 | 14.0 | 0.00 | 0.00 | 0.00 | 45 | 1014.3 |
| 20260509032724 | 62 | 290 | 8.0 | 14.0 | 0.00 | 0.00 | 0.00 | 45 | 1014.3 |
| 20260509032619 | 62 | 289 | 9.0 | 14.0 | 0.00 | 0.00 | 0.00 | 45 | 1014.3 |
| 20260509032545 | 62 | 294 | 9.0 | 14.0 | 0.00 | 0.00 | 0.00 | 45 | 1014.3 |
| 20260509032420 | 62 | 284 | 8.0 | 13.0 | 0.00 | 0.00 | 0.00 | 45 | 1014.2 |
| 20260509032344 | 62 | 292 | 8.0 | 13.0 | 0.00 | 0.00 | 0.00 | 45 | 1014.2 |
| 20260509032239 | 63 | 273 | 8.0 | 20.0 | 0.00 | 0.00 | 0.00 | 45 | 1014.3 |
| 20260509032141 | 63 | 296 | 9.0 | 20.0 | 0.00 | 0.00 | 0.00 | 45 | 1014.2 |
| 20260509032042 | 63 | 283 | 10.0 | 20.0 | 0.00 | 0.00 | 0.00 | 45 | 1014.2 |
| 20260509031919 | 63 | 279 | 9.0 | 20.0 | 0.00 | 0.00 | 0.00 | 44 | 1014.3 |
| 20260509031833 | 63 | 286 | 7.0 | 20.0 | 0.00 | 0.00 | 0.00 | 44 | 1014.3 |
| 20260509031719 | 63 | 269 | 8.0 | 20.0 | 0.00 | 0.00 | 0.00 | 44 | 1014.2 |
| 20260509031636 | 63 | 273 | 9.0 | 20.0 | 0.00 | 0.00 | 0.00 | 44 | 1014.2 |
| 20260509031538 | 63 | 285 | 10.0 | 20.0 | 0.00 | 0.00 | 0.00 | 44 | 1014.2 |
| 20260509031433 | 63 | 296 | 12.0 | 20.0 | 0.00 | 0.00 | 0.00 | 44 | 1014.2 |
| 20260509031338 | 63 | 311 | 11.0 | 20.0 | 0.00 | 0.00 | 0.00 | 44 | 1014.3 |
| 20260509031218 | 63 | 318 | 10.0 | 17.0 | 0.00 | 0.00 | 0.00 | 44 | 1014.2 |
| 20260509031137 | 63 | 294 | 10.0 | 17.0 | 0.00 | 0.00 | 0.00 | 44 | 1014.2 |
| 20260509031023 | 63 | 308 | 10.0 | 17.0 | 0.00 | 0.00 | 0.00 | 44 | 1014.2 |
| 20260509030917 | 63 | 306 | 11.0 | 17.0 | 0.00 | 0.00 | 0.00 | 44 | 1014.1 |
| 20260509030840 | 63 | 296 | 11.0 | 17.0 | 0.00 | 0.00 | 0.00 | 43 | 1014.1 |
| 20260509030719 | 63 | 291 | 11.0 | 17.0 | 0.00 | 0.00 | 0.00 | 43 | 1014.1 |
| 20260509030626 | 63 | 286 | 12.0 | 17.0 | 0.00 | 0.00 | 0.00 | 43 | 1014.1 |
| 20260509030521 | 64 | 289 | 12.0 | 17.0 | 0.00 | 0.00 | 0.00 | 43 | 1014.0 |
| 20260509030446 | 64 | 271 | 11.0 | 17.0 | 0.00 | 0.00 | 0.00 | 43 | 1014.0 |
| 20260509030341 | 64 | 309 | 10.0 | 17.0 | 0.00 | 0.00 | 0.00 | 43 | 1014.0 |
| 20260509030248 | 64 | 275 | 9.0 | 17.0 | 0.00 | 0.00 | 0.00 | 42 | 1014.0 |
| 20260509030122 | 64 | 300 | 8.0 | 17.0 | 0.00 | 0.00 | 0.00 | 42 | 1014.1 |
| 20260509030028 | 64 | 291 | 9.0 | 17.0 | 0.00 | 0.00 | 0.00 | 42 | 1014.1 |
| 20260509025954 | 64 | 271 | 10.0 | 17.0 | 0.00 | 0.00 | 0.00 | 42 | 1014.0 |
| 20260509025833 | 64 | 286 | 11.0 | 17.0 | 0.00 | 0.00 | 0.00 | 42 | 1014.0 |
| 20260509025738 | 64 | 284 | 11.0 | 17.0 | 0.00 | 0.00 | 0.00 | 42 | 1014.0 |
| 20260509025634 | 64 | 292 | 11.0 | 18.0 | 0.00 | 0.00 | 0.00 | 42 | 1014.0 |
| 20260509025539 | 64 | 273 | 11.0 | 18.0 | 0.00 | 0.00 | 0.00 | 42 | 1014.0 |
| 20260509025443 | 64 | 270 | 11.0 | 20.0 | 0.00 | 0.00 | 0.00 | 41 | 1014.0 |
| 20260509025338 | 64 | 270 | 12.0 | 20.0 | 0.00 | 0.00 | 0.00 | 41 | 1013.9 |
| 20260509025243 | 64 | 271 | 11.0 | 20.0 | 0.00 | 0.00 | 0.00 | 41 | 1013.9 |
| 20260509025119 | 65 | 265 | 11.0 | 20.0 | 0.00 | 0.00 | 0.00 | 41 | 1013.9 |
| 20260509025019 | 65 | 280 | 11.0 | 20.0 | 0.00 | 0.00 | 0.00 | 41 | 1013.9 |
| 20260509024925 | 65 | 296 | 11.0 | 20.0 | 0.00 | 0.00 | 0.00 | 41 | 1013.9 |
| 20260509024842 | 65 | 250 | 13.0 | 20.0 | 0.00 | 0.00 | 0.00 | 40 | 1013.9 |
| 20260509024746 | 65 | 281 | 13.0 | 20.0 | 0.00 | 0.00 | 0.00 | 40 | 1013.9 |
| 20260509024634 | 65 | 285 | 11.0 | 20.0 | 0.00 | 0.00 | 0.00 | 40 | 1013.9 |
| 20260509024529 | 65 | 250 | 9.0 | 20.0 | 0.00 | 0.00 | 0.00 | 40 | 1013.8 |
| 20260509024424 | 65 | 275 | 8.0 | 19.0 | 0.00 | 0.00 | 0.00 | 40 | 1013.9 |
| 20260509024345 | 65 | 268 | 9.0 | 19.0 | 0.00 | 0.00 | 0.00 | 40 | 1013.8 |
| 20260509024233 | 65 | 267 | 9.0 | 19.0 | 0.00 | 0.00 | 0.00 | 40 | 1013.8 |
| 20260509024132 | 65 | 264 | 9.0 | 19.0 | 0.00 | 0.00 | 0.00 | 40 | 1013.8 |
| 20260509024036 | 66 | 271 | 9.0 | 19.0 | 0.00 | 0.00 | 0.00 | 39 | 1013.8 |
| 20260509023932 | 66 | 280 | 11.0 | 19.0 | 0.00 | 0.00 | 0.00 | 39 | 1013.8 |
| 20260509023836 | 66 | 285 | 11.0 | 19.0 | 0.00 | 0.00 | 0.00 | 39 | 1013.8 |
| 20260509023730 | 66 | 268 | 13.0 | 19.0 | 0.00 | 0.00 | 0.00 | 39 | 1013.8 |
| 20260509023657 | 66 | 285 | 13.0 | 19.0 | 0.00 | 0.00 | 0.00 | 39 | 1013.8 |
| 20260509023535 | 66 | 280 | 12.0 | 21.0 | 0.00 | 0.00 | 0.00 | 39 | 1013.8 |
| 20260509023441 | 66 | 277 | 10.0 | 21.0 | 0.00 | 0.00 | 0.00 | 39 | 1013.7 |
| 20260509023406 | 66 | 303 | 11.0 | 21.0 | 0.00 | 0.00 | 0.00 | 38 | 1013.7 |
| 20260509023222 | 66 | 267 | 12.0 | 21.0 | 0.00 | 0.00 | 0.00 | 38 | 1013.7 |
| 20260509023138 | 67 | 289 | 12.0 | 21.0 | 0.00 | 0.00 | 0.00 | 38 | 1013.7 |
| 20260509023023 | 67 | 289 | 12.0 | 21.0 | 0.00 | 0.00 | 0.00 | 38 | 1013.7 |
| 20260509022918 | 67 | 287 | 12.0 | 21.0 | 0.00 | 0.00 | 0.00 | 38 | 1013.7 |
| 20260509022843 | 67 | 290 | 12.0 | 21.0 | 0.00 | 0.00 | 0.00 | 37 | 1013.7 |
| 20260509022751 | 67 | 284 | 11.0 | 18.0 | 0.00 | 0.00 | 0.00 | 37 | 1013.7 |
| 20260509022629 | 67 | 299 | 12.0 | 18.0 | 0.00 | 0.00 | 0.00 | 37 | 1013.7 |
| 20260509022527 | 67 | 272 | 12.0 | 18.0 | 0.00 | 0.00 | 0.00 | 36 | 1013.7 |
| 20260509022424 | 67 | 314 | 12.0 | 18.0 | 0.00 | 0.00 | 0.00 | 36 | 1013.7 |
| 20260509022350 | 67 | 313 | 13.0 | 18.0 | 0.00 | 0.00 | 0.00 | 36 | 1013.7 |
| 20260509022225 | 68 | 324 | 13.0 | 18.0 | 0.00 | 0.00 | 0.00 | 36 | 1013.6 |
| 20260509022153 | 68 | 319 | 10.0 | 18.0 | 0.00 | 0.00 | 0.00 | 36 | 1013.6 |
| 20260509022056 | 68 | 313 | 8.0 | 18.0 | 0.00 | 0.00 | 0.00 | 36 | 1013.6 |
| 20260509021935 | 68 | 286 | 7.0 | 18.0 | 0.00 | 0.00 | 0.00 | 36 | 1013.6 |
| 20260509021841 | 68 | 293 | 9.0 | 18.0 | 0.00 | 0.00 | 0.00 | 36 | 1013.6 |
| 20260509021717 | 68 | 307 | 9.0 | 18.0 | 0.00 | 0.00 | 0.00 | 36 | 1013.5 |
| 20260509021644 | 68 | 304 | 9.0 | 18.0 | 0.00 | 0.00 | 0.00 | 36 | 1013.5 |
| 20260509021539 | 68 | 315 | 10.0 | 18.0 | 0.00 | 0.00 | 0.00 | 36 | 1013.5 |
| 20260509021505 | 68 | 274 | 11.0 | 18.0 | 0.00 | 0.00 | 0.00 | 36 | 1013.5 |
| 20260509021321 | 68 | 308 | 12.0 | 18.0 | 0.00 | 0.00 | 0.00 | 36 | 1013.5 |
| 20260509021252 | 68 | 293 | 12.0 | 18.0 | 0.00 | 0.00 | 0.00 | 35 | 1013.5 |
| 20260509021125 | 68 | 287 | 11.0 | 18.0 | 0.00 | 0.00 | 0.00 | 35 | 1013.4 |
| 20260509021031 | 68 | 287 | 10.0 | 18.0 | 0.00 | 0.00 | 0.00 | 35 | 1013.4 |
| 20260509020928 | 69 | 298 | 10.0 | 18.0 | 0.00 | 0.00 | 0.00 | 35 | 1013.4 |
| 20260509020825 | 69 | 268 | 9.0 | 18.0 | 0.00 | 0.00 | 0.00 | 35 | 1013.5 |
| 20260509020731 | 69 | 298 | 11.0 | 18.0 | 0.00 | 0.00 | 0.00 | 35 | 1013.5 |
| 20260509020630 | 69 | 291 | 12.0 | 18.0 | 0.00 | 0.00 | 0.00 | 35 | 1013.4 |
| 20260509020538 | 69 | 282 | 12.0 | 18.0 | 0.00 | 0.00 | 0.00 | 34 | 1013.4 |
| 20260509020434 | 69 | 299 | 12.0 | 18.0 | 0.00 | 0.00 | 0.00 | 34 | 1013.4 |
| 20260509020319 | 69 | 301 | 10.0 | 17.0 | 0.00 | 0.00 | 0.00 | 35 | 1013.4 |
| 20260509020236 | 69 | 301 | 9.0 | 16.0 | 0.00 | 0.00 | 0.00 | 35 | 1013.4 |
| 20260509020144 | 69 | 311 | 8.0 | 16.0 | 0.00 | 0.00 | 0.00 | 35 | 1013.4 |
| 20260509020018 | 69 | 279 | 8.0 | 16.0 | 0.00 | 0.00 | 0.00 | 34 | 1013.4 |
| 20260509015944 | 69 | 283 | 9.0 | 16.0 | 0.00 | 0.00 | 0.00 | 34 | 1013.4 |
| 20260509015823 | 69 | 281 | 10.0 | 16.0 | 0.00 | 0.00 | 0.00 | 34 | 1013.5 |
| 20260509015731 | 69 | 294 | 11.0 | 16.0 | 0.00 | 0.00 | 0.00 | 34 | 1013.5 |
| 20260509015625 | 69 | 304 | 10.0 | 15.0 | 0.00 | 0.00 | 0.00 | 34 | 1013.5 |
| 20260509015529 | 69 | 291 | 10.0 | 15.0 | 0.00 | 0.00 | 0.00 | 34 | 1013.5 |
| 20260509015427 | 69 | 296 | 10.0 | 15.0 | 0.00 | 0.00 | 0.00 | 34 | 1013.4 |
| 20260509015323 | 70 | 278 | 11.0 | 15.0 | 0.00 | 0.00 | 0.00 | 34 | 1013.3 |
| 20260509015228 | 70 | 275 | 10.0 | 15.0 | 0.00 | 0.00 | 0.00 | 34 | 1013.3 |
| 20260509015159 | 70 | 269 | 10.0 | 17.0 | 0.00 | 0.00 | 0.00 | 34 | 1013.3 |
| 20260509015033 | 70 | 261 | 10.0 | 18.0 | 0.00 | 0.00 | 0.00 | 34 | 1013.3 |
| 20260509014940 | 70 | 253 | 9.0 | 18.0 | 0.00 | 0.00 | 0.00 | 34 | 1013.3 |
| 20260509014837 | 70 | 269 | 9.0 | 18.0 | 0.00 | 0.00 | 0.00 | 34 | 1013.3 |
| 20260509014806 | 70 | 281 | 10.0 | 18.0 | 0.00 | 0.00 | 0.00 | 34 | 1013.2 |
| 20260509014640 | 70 | 300 | 11.0 | 18.0 | 0.00 | 0.00 | 0.00 | 34 | 1013.2 |
| 20260509014524 | 70 | 281 | 11.0 | 18.0 | 0.00 | 0.00 | 0.00 | 34 | 1013.2 |
| 20260509014420 | 70 | 271 | 12.0 | 18.0 | 0.00 | 0.00 | 0.00 | 34 | 1013.2 |
| 20260509014330 | 70 | 301 | 12.0 | 18.0 | 0.00 | 0.00 | 0.00 | 34 | 1013.2 |
| 20260509014227 | 70 | 286 | 11.0 | 18.0 | 0.00 | 0.00 | 0.00 | 34 | 1013.2 |
| 20260509014134 | 70 | 272 | 10.0 | 18.0 | 0.00 | 0.00 | 0.00 | 34 | 1013.2 |
| 20260509014030 | 70 | 262 | 11.0 | 18.0 | 0.00 | 0.00 | 0.00 | 33 | 1013.2 |
| 20260509013936 | 70 | 261 | 11.0 | 19.0 | 0.00 | 0.00 | 0.00 | 33 | 1013.2 |
| 20260509013832 | 70 | 294 | 11.0 | 19.0 | 0.00 | 0.00 | 0.00 | 33 | 1013.2 |
| 20260509013733 | 70 | 275 | 11.0 | 19.0 | 0.00 | 0.00 | 0.00 | 33 | 1013.2 |
| 20260509013637 | 70 | 296 | 11.0 | 19.0 | 0.00 | 0.00 | 0.00 | 33 | 1013.2 |
| 20260509013542 | 70 | 256 | 12.0 | 19.0 | 0.00 | 0.00 | 0.00 | 33 | 1013.2 |
| 20260509013439 | 71 | 255 | 12.0 | 19.0 | 0.00 | 0.00 | 0.00 | 33 | 1013.2 |
| 20260509013316 | 71 | 283 | 12.0 | 19.0 | 0.00 | 0.00 | 0.00 | 33 | 1013.2 |
| 20260509013223 | 71 | 251 | 13.0 | 19.0 | 0.00 | 0.00 | 0.00 | 33 | 1013.2 |
| 20260509013119 | 71 | 249 | 12.0 | 19.0 | 0.00 | 0.00 | 0.00 | 33 | 1013.1 |
| 20260509013028 | 71 | 257 | 12.0 | 19.0 | 0.00 | 0.00 | 0.00 | 33 | 1013.1 |
| 20260509012925 | 71 | 268 | 11.0 | 17.0 | 0.00 | 0.00 | 0.00 | 33 | 1013.1 |
| 20260509012831 | 71 | 242 | 11.0 | 17.0 | 0.00 | 0.00 | 0.00 | 33 | 1013.1 |
| 20260509012729 | 71 | 250 | 11.0 | 19.0 | 0.00 | 0.00 | 0.00 | 33 | 1013.0 |
| 20260509012624 | 71 | 223 | 10.0 | 19.0 | 0.00 | 0.00 | 0.00 | 33 | 1013.1 |
| 20260509012529 | 71 | 271 | 11.0 | 19.0 | 0.00 | 0.00 | 0.00 | 32 | 1013.1 |
| 20260509012426 | 71 | 306 | 10.0 | 19.0 | 0.00 | 0.00 | 0.00 | 32 | 1013.1 |
| 20260509012336 | 71 | 286 | 10.0 | 19.0 | 0.00 | 0.00 | 0.00 | 32 | 1013.0 |
| 20260509012234 | 71 | 273 | 8.0 | 19.0 | 0.00 | 0.00 | 0.00 | 32 | 1013.1 |
| 20260509012141 | 71 | 256 | 10.0 | 19.0 | 0.00 | 0.00 | 0.00 | 32 | 1013.1 |
| 20260509012016 | 71 | 287 | 11.0 | 19.0 | 0.00 | 0.00 | 0.00 | 32 | 1013.1 |
| 20260509011933 | 71 | 287 | 13.0 | 19.0 | 0.00 | 0.00 | 0.00 | 32 | 1013.1 |
| 20260509011840 | 71 | 282 | 11.0 | 19.0 | 0.00 | 0.00 | 0.00 | 32 | 1013.1 |
| 20260509011720 | 71 | 316 | 8.0 | 18.0 | 0.00 | 0.00 | 0.00 | 32 | 1013.1 |
| 20260509011617 | 71 | 287 | 9.0 | 20.0 | 0.00 | 0.00 | 0.00 | 32 | 1013.1 |
| 20260509011523 | 71 | 258 | 9.0 | 20.0 | 0.00 | 0.00 | 0.00 | 32 | 1013.1 |
| 20260509011449 | 71 | 275 | 10.0 | 20.0 | 0.00 | 0.00 | 0.00 | 32 | 1013.1 |
| 20260509011343 | 71 | 255 | 13.0 | 20.0 | 0.00 | 0.00 | 0.00 | 32 | 1013.1 |
| 20260509011230 | 72 | 278 | 13.0 | 20.0 | 0.00 | 0.00 | 0.00 | 32 | 1013.1 |
| 20260509011126 | 72 | 289 | 11.0 | 20.0 | 0.00 | 0.00 | 0.00 | 32 | 1013.1 |
| 20260509011035 | 72 | 281 | 12.0 | 20.0 | 0.00 | 0.00 | 0.00 | 32 | 1013.1 |
| 20260509010933 | 72 | 260 | 13.0 | 20.0 | 0.00 | 0.00 | 0.00 | 32 | 1013.0 |
| 20260509010828 | 72 | 264 | 14.0 | 20.0 | 0.00 | 0.00 | 0.00 | 32 | 1013.0 |
| 20260509010725 | 72 | 254 | 11.0 | 20.0 | 0.00 | 0.00 | 0.00 | 31 | 1013.0 |
| 20260509010632 | 72 | 281 | 10.0 | 20.0 | 0.00 | 0.00 | 0.00 | 31 | 1013.0 |
| 20260509010525 | 72 | 254 | 11.0 | 20.0 | 0.00 | 0.00 | 0.00 | 31 | 1013.0 |
| 20260509010431 | 72 | 260 | 11.0 | 20.0 | 0.00 | 0.00 | 0.00 | 31 | 1013.0 |
| 20260509010347 | 72 | 283 | 12.0 | 20.0 | 0.00 | 0.00 | 0.00 | 31 | 1013.0 |
| 20260509010254 | 72 | 268 | 12.0 | 20.0 | 0.00 | 0.00 | 0.00 | 31 | 1012.9 |
| 20260509010139 | 72 | 285 | 13.0 | 20.0 | 0.00 | 0.00 | 0.00 | 31 | 1012.9 |
| 20260509010034 | 72 | 269 | 13.0 | 20.0 | 0.00 | 0.00 | 0.00 | 31 | 1012.9 |
| 20260509005930 | 72 | 279 | 12.0 | 19.0 | 0.00 | 0.00 | 0.00 | 31 | 1012.9 |
| 20260509005855 | 72 | 304 | 12.0 | 23.0 | 0.00 | 0.00 | 0.00 | 31 | 1012.9 |
| 20260509005739 | 72 | 246 | 13.0 | 23.0 | 0.00 | 0.00 | 0.00 | 31 | 1012.9 |
| 20260509005656 | 72 | 253 | 14.0 | 23.0 | 0.00 | 0.00 | 0.00 | 31 | 1012.8 |
| 20260509005556 | 72 | 257 | 13.0 | 23.0 | 0.00 | 0.00 | 0.00 | 31 | 1012.9 |
| 20260509005444 | 72 | 254 | 12.0 | 23.0 | 0.00 | 0.00 | 0.00 | 31 | 1012.9 |
| 20260509005319 | 72 | 290 | 13.0 | 23.0 | 0.00 | 0.00 | 0.00 | 31 | 1012.9 |
| 20260509005246 | 72 | 267 | 13.0 | 23.0 | 0.00 | 0.00 | 0.00 | 31 | 1012.9 |
| 20260509005121 | 73 | 285 | 14.0 | 23.0 | 0.00 | 0.00 | 0.00 | 30 | 1013.0 |
| 20260509005017 | 73 | 287 | 13.0 | 23.0 | 0.00 | 0.00 | 0.00 | 30 | 1012.9 |
| 20260509004943 | 73 | 302 | 12.0 | 21.0 | 0.00 | 0.00 | 0.00 | 30 | 1012.9 |
| 20260509004848 | 73 | 283 | 13.0 | 21.0 | 0.00 | 0.00 | 0.00 | 30 | 1012.9 |
| 20260509004732 | 73 | 297 | 12.0 | 21.0 | 0.00 | 0.00 | 0.00 | 30 | 1012.9 |
| 20260509004634 | 73 | 282 | 10.0 | 20.0 | 0.00 | 0.00 | 0.00 | 30 | 1012.9 |
| 20260509004529 | 73 | 262 | 11.0 | 20.0 | 0.00 | 0.00 | 0.00 | 30 | 1012.8 |
| 20260509004434 | 73 | 283 | 14.0 | 20.0 | 0.00 | 0.00 | 0.00 | 29 | 1012.9 |
| 20260509004332 | 73 | 243 | 15.0 | 20.0 | 0.00 | 0.00 | 0.00 | 30 | 1013.0 |
| 20260509004238 | 73 | 262 | 14.0 | 20.0 | 0.00 | 0.00 | 0.00 | 29 | 1013.0 |
| 20260509004137 | 73 | 281 | 14.0 | 20.0 | 0.00 | 0.00 | 0.00 | 29 | 1012.9 |
| 20260509004017 | 73 | 270 | 13.0 | 20.0 | 0.00 | 0.00 | 0.00 | 28 | 1012.9 |
| 20260509003923 | 73 | 247 | 12.0 | 18.0 | 0.00 | 0.00 | 0.00 | 29 | 1012.8 |
| 20260509003820 | 73 | 261 | 13.0 | 18.0 | 0.00 | 0.00 | 0.00 | 29 | 1012.9 |
| 20260509003745 | 73 | 262 | 13.0 | 18.0 | 0.00 | 0.00 | 0.00 | 28 | 1012.9 |
| 20260509003650 | 73 | 261 | 12.0 | 18.0 | 0.00 | 0.00 | 0.00 | 29 | 1012.9 |
| 20260509003524 | 73 | 269 | 11.0 | 18.0 | 0.00 | 0.00 | 0.00 | 29 | 1012.9 |
| 20260509003420 | 73 | 281 | 12.0 | 18.0 | 0.00 | 0.00 | 0.00 | 28 | 1012.9 |
| 20260509003325 | 74 | 284 | 12.0 | 18.0 | 0.00 | 0.00 | 0.00 | 28 | 1012.9 |
| 20260509003225 | 74 | 269 | 12.0 | 18.0 | 0.00 | 0.00 | 0.00 | 28 | 1012.9 |
| 20260509003134 | 74 | 273 | 11.0 | 18.0 | 0.00 | 0.00 | 0.00 | 28 | 1013.0 |
| 20260509003030 | 74 | 254 | 11.0 | 16.0 | 0.00 | 0.00 | 0.00 | 28 | 1012.9 |
| 20260509002936 | 74 | 285 | 11.0 | 18.0 | 0.00 | 0.00 | 0.00 | 29 | 1012.9 |
| 20260509002834 | 74 | 243 | 11.0 | 18.0 | 0.00 | 0.00 | 0.00 | 29 | 1012.9 |
| 20260509002733 | 74 | 272 | 10.0 | 18.0 | 0.00 | 0.00 | 0.00 | 28 | 1012.9 |
| 20260509002620 | 73 | 294 | 10.0 | 18.0 | 0.00 | 0.00 | 0.00 | 28 | 1012.9 |
| 20260509002517 | 73 | 281 | 10.0 | 18.0 | 0.00 | 0.00 | 0.00 | 28 | 1012.9 |
| 20260509002442 | 73 | 259 | 10.0 | 18.0 | 0.00 | 0.00 | 0.00 | 28 | 1012.9 |
| 20260509002320 | 74 | 282 | 10.0 | 18.0 | 0.00 | 0.00 | 0.00 | 29 | 1012.9 |
| 20260509002218 | 74 | 252 | 10.0 | 18.0 | 0.00 | 0.00 | 0.00 | 29 | 1012.9 |
| 20260509002123 | 74 | 297 | 11.0 | 19.0 | 0.00 | 0.00 | 0.00 | 29 | 1012.9 |
| 20260509002024 | 74 | 290 | 11.0 | 19.0 | 0.00 | 0.00 | 0.00 | 28 | 1012.9 |
| 20260509001932 | 74 | 295 | 11.0 | 20.0 | 0.00 | 0.00 | 0.00 | 28 | 1012.9 |
| 20260509001828 | 73 | 293 | 10.0 | 20.0 | 0.00 | 0.00 | 0.00 | 28 | 1012.9 |
| 20260509001724 | 73 | 272 | 10.0 | 20.0 | 0.00 | 0.00 | 0.00 | 28 | 1012.9 |
| 20260509001653 | 73 | 260 | 12.0 | 20.0 | 0.00 | 0.00 | 0.00 | 27 | 1012.9 |
| 20260509001537 | 73 | 252 | 12.0 | 23.0 | 0.00 | 0.00 | 0.00 | 27 | 1012.9 |
| 20260509001433 | 73 | 264 | 12.0 | 23.0 | 0.00 | 0.00 | 0.00 | 26 | 1012.9 |
| 20260509001337 | 73 | 273 | 14.0 | 23.0 | 0.00 | 0.00 | 0.00 | 26 | 1012.9 |
| 20260509001218 | 73 | 260 | 14.0 | 23.0 | 0.00 | 0.00 | 0.00 | 26 | 1012.9 |
| 20260509001146 | 73 | 271 | 13.0 | 23.0 | 0.00 | 0.00 | 0.00 | 26 | 1012.9 |
| 20260509001022 | 73 | 259 | 13.0 | 23.0 | 0.00 | 0.00 | 0.00 | 26 | 1012.8 |
| 20260509000939 | 73 | 274 | 15.0 | 23.0 | 0.00 | 0.00 | 0.00 | 26 | 1012.8 |
| 20260509000822 | 73 | 271 | 15.0 | 23.0 | 0.00 | 0.00 | 0.00 | 26 | 1012.8 |
| 20260509000750 | 73 | 286 | 14.0 | 22.0 | 0.00 | 0.00 | 0.00 | 26 | 1012.8 |
| 20260509000624 | 74 | 271 | 12.0 | 22.0 | 0.00 | 0.00 | 0.00 | 26 | 1012.8 |
| 20260509000532 | 74 | 265 | 12.0 | 22.0 | 0.00 | 0.00 | 0.00 | 26 | 1012.8 |
| 20260509000427 | 74 | 273 | 15.0 | 22.0 | 0.00 | 0.00 | 0.00 | 26 | 1012.7 |
| 20260509000325 | 74 | 231 | 16.0 | 22.0 | 0.00 | 0.00 | 0.00 | 26 | 1012.8 |
| 20260509000230 | 74 | 257 | 15.0 | 22.0 | 0.00 | 0.00 | 0.00 | 27 | 1012.8 |
| 20260509000128 | 74 | 271 | 14.0 | 22.0 | 0.00 | 0.00 | 0.00 | 27 | 1012.8 |
| 20260509000031 | 74 | 262 | 12.0 | 22.0 | 0.00 | 0.00 | 0.00 | 27 | 1012.8 |
| 20260508235932 | 74 | 238 | 12.0 | 20.0 | 0.00 | 0.00 | 0.00 | 26 | 1012.7 |
| 20260508235828 | 74 | 305 | 12.0 | 20.0 | 0.00 | 0.00 | 0.00 | 26 | 1012.7 |
| 20260508235752 | 74 | 286 | 11.0 | 19.0 | 0.00 | 0.00 | 0.00 | 26 | 1012.7 |
| 20260508235638 | 74 | 262 | 12.0 | 19.0 | 0.00 | 0.00 | 0.00 | 26 | 1012.8 |
| 20260508235534 | 74 | 273 | 12.0 | 19.0 | 0.00 | 0.00 | 0.00 | 26 | 1012.9 |
| 20260508235431 | 74 | 285 | 12.0 | 19.0 | 0.00 | 0.00 | 0.00 | 26 | 1012.8 |
| 20260508235335 | 74 | 267 | 12.0 | 19.0 | 0.00 | 0.00 | 0.00 | 26 | 1012.8 |
| 20260508235236 | 74 | 267 | 13.0 | 20.0 | 0.00 | 0.00 | 0.00 | 26 | 1012.8 |
| 20260508235143 | 74 | 290 | 13.0 | 20.0 | 0.00 | 0.00 | 0.00 | 26 | 1012.8 |
| 20260508235018 | 74 | 287 | 12.0 | 20.0 | 0.00 | 0.00 | 0.00 | 27 | 1012.7 |
| 20260508234945 | 74 | 280 | 13.0 | 20.0 | 0.00 | 0.00 | 0.00 | 27 | 1012.8 |
| 20260508234821 | 74 | 260 | 13.0 | 20.0 | 0.00 | 0.00 | 0.00 | 27 | 1012.8 |
| 20260508234719 | 74 | 261 | 13.0 | 20.0 | 0.00 | 0.00 | 0.00 | 27 | 1012.7 |
| 20260508234623 | 74 | 288 | 14.0 | 20.0 | 0.00 | 0.00 | 0.00 | 26 | 1012.8 |
| 20260508234531 | 74 | 304 | 14.0 | 20.0 | 0.00 | 0.00 | 0.00 | 26 | 1012.8 |
| 20260508234428 | 75 | 283 | 12.0 | 21.0 | 0.00 | 0.00 | 0.00 | 26 | 1012.9 |
| 20260508234354 | 75 | 287 | 12.0 | 21.0 | 0.00 | 0.00 | 0.00 | 26 | 1012.7 |
| 20260508234229 | 75 | 294 | 14.0 | 21.0 | 0.00 | 0.00 | 0.00 | 26 | 1012.7 |
| 20260508234137 | 75 | 286 | 13.0 | 21.0 | 0.00 | 0.00 | 0.00 | 26 | 1012.8 |
| 20260508234032 | 75 | 300 | 12.0 | 21.0 | 0.00 | 0.00 | 0.00 | 26 | 1012.7 |
| 20260508233917 | 75 | 280 | 12.0 | 21.0 | 0.00 | 0.00 | 0.00 | 26 | 1012.8 |
| 20260508233816 | 75 | 314 | 11.0 | 21.0 | 0.00 | 0.00 | 0.00 | 26 | 1012.7 |
| 20260508233744 | 75 | 310 | 12.0 | 21.0 | 0.00 | 0.00 | 0.00 | 26 | 1012.7 |
| 20260508233619 | 75 | 286 | 15.0 | 21.0 | 0.00 | 0.00 | 0.00 | 26 | 1012.9 |
| 20260508233544 | 75 | 298 | 15.0 | 21.0 | 0.00 | 0.00 | 0.00 | 26 | 1012.9 |
| 20260508233420 | 75 | 255 | 9.0 | 18.0 | 0.00 | 0.00 | 0.00 | 26 | 1012.8 |
| 20260508233345 | 75 | 231 | 8.0 | 18.0 | 0.00 | 0.00 | 0.00 | 26 | 1012.8 |
| 20260508233224 | 75 | 272 | 9.0 | 17.0 | 0.00 | 0.00 | 0.00 | 26 | 1012.8 |
| 20260508233121 | 75 | 266 | 11.0 | 18.0 | 0.00 | 0.00 | 0.00 | 26 | 1012.8 |
| 20260508233027 | 75 | 241 | 11.0 | 18.0 | 0.00 | 0.00 | 0.00 | 26 | 1012.8 |
| 20260508232924 | 75 | 270 | 11.0 | 18.0 | 0.00 | 0.00 | 0.00 | 26 | 1012.8 |
| 20260508232829 | 75 | 285 | 11.0 | 18.0 | 0.00 | 0.00 | 0.00 | 26 | 1012.8 |
| 20260508232726 | 75 | 256 | 10.0 | 18.0 | 0.00 | 0.00 | 0.00 | 26 | 1012.7 |
| 20260508232654 | 75 | 242 | 10.0 | 18.0 | 0.00 | 0.00 | 0.00 | 26 | 1012.7 |
| 20260508232529 | 75 | 259 | 12.0 | 20.0 | 0.00 | 0.00 | 0.00 | 25 | 1012.8 |
| 20260508232438 | 75 | 253 | 13.0 | 20.0 | 0.00 | 0.00 | 0.00 | 25 | 1012.8 |
| 20260508232333 | 75 | 238 | 12.0 | 20.0 | 0.00 | 0.00 | 0.00 | 26 | 1012.8 |
| 20260508232217 | 75 | 258 | 11.0 | 20.0 | 0.00 | 0.00 | 0.00 | 25 | 1012.7 |
| 20260508232144 | 75 | 252 | 10.0 | 20.0 | 0.00 | 0.00 | 0.00 | 26 | 1012.7 |
| 20260508232040 | 75 | 287 | 10.0 | 20.0 | 0.00 | 0.00 | 0.00 | 26 | 1012.8 |
| 20260508232006 | 75 | 284 | 11.0 | 20.0 | 0.00 | 0.00 | 0.00 | 26 | 1012.8 |
| 20260508231822 | 75 | 296 | 12.0 | 20.0 | 0.00 | 0.00 | 0.00 | 26 | 1012.8 |
| 20260508231749 | 75 | 289 | 12.0 | 20.0 | 0.00 | 0.00 | 0.00 | 26 | 1012.8 |
| 20260508231630 | 75 | 252 | 12.0 | 19.0 | 0.00 | 0.00 | 0.00 | 26 | 1012.8 |
| 20260508231533 | 75 | 276 | 13.0 | 19.0 | 0.00 | 0.00 | 0.00 | 26 | 1012.8 |
| 20260508231430 | 75 | 294 | 14.0 | 22.0 | 0.00 | 0.00 | 0.00 | 25 | 1012.7 |
| 20260508231356 | 75 | 303 | 13.0 | 22.0 | 0.00 | 0.00 | 0.00 | 25 | 1013.0 |
| 20260508231304 | 75 | 310 | 11.0 | 22.0 | 0.00 | 0.00 | 0.00 | 26 | 1012.7 |
| 20260508231118 | 75 | 260 | 12.0 | 22.0 | 0.00 | 0.00 | 0.00 | 25 | 1012.7 |
| 20260508231034 | 75 | 321 | 13.0 | 22.0 | 0.00 | 0.00 | 0.00 | 26 | 1012.7 |
| 20260508230939 | 75 | 261 | 14.0 | 22.0 | 0.00 | 0.00 | 0.00 | 26 | 1012.9 |
| 20260508230817 | 75 | 271 | 15.0 | 22.0 | 0.00 | 0.00 | 0.00 | 25 | 1012.8 |
| 20260508230745 | 75 | 281 | 15.0 | 22.0 | 0.00 | 0.00 | 0.00 | 25 | 1012.6 |
| 20260508230626 | 75 | 252 | 13.0 | 22.0 | 0.00 | 0.00 | 0.00 | 25 | 1012.6 |
| 20260508230522 | 75 | 260 | 10.0 | 21.0 | 0.00 | 0.00 | 0.00 | 25 | 1012.7 |
| 20260508230428 | 75 | 263 | 10.0 | 21.0 | 0.00 | 0.00 | 0.00 | 25 | 1012.7 |
| 20260508230324 | 75 | 253 | 11.0 | 22.0 | 0.00 | 0.00 | 0.00 | 24 | 1012.7 |
| 20260508230222 | 75 | 312 | 13.0 | 22.0 | 0.00 | 0.00 | 0.00 | 25 | 1012.6 |
| 20260508230147 | 75 | 298 | 13.0 | 22.0 | 0.00 | 0.00 | 0.00 | 25 | 1012.6 |
| 20260508230034 | 75 | 258 | 12.0 | 22.0 | 0.00 | 0.00 | 0.00 | 25 | 1012.6 |
| 20260508225931 | 75 | 242 | 13.0 | 26.0 | 0.00 | 0.00 | 0.00 | 25 | 1012.6 |
| 20260508225828 | 75 | 282 | 14.0 | 26.0 | 0.00 | 0.00 | 0.00 | 25 | 1012.7 |
| 20260508225754 | 75 | 281 | 15.0 | 26.0 | 0.00 | 0.00 | 0.00 | 25 | 1012.7 |
| 20260508225638 | 75 | 271 | 16.0 | 26.0 | 0.00 | 0.00 | 0.00 | 25 | 1012.7 |
| 20260508225602 | 75 | 297 | 17.0 | 26.0 | 0.00 | 0.00 | 0.00 | 25 | 1012.7 |
| 20260508225417 | 75 | 282 | 14.0 | 26.0 | 0.00 | 0.00 | 0.00 | 25 | 1012.6 |
| 20260508225319 | 75 | 308 | 14.0 | 26.0 | 0.00 | 0.00 | 0.00 | 25 | 1012.7 |
| 20260508225226 | 75 | 291 | 16.0 | 26.0 | 0.00 | 0.00 | 0.00 | 25 | 1012.7 |
| 20260508225121 | 75 | 288 | 14.0 | 26.0 | 0.00 | 0.00 | 0.00 | 25 | 1012.6 |
| 20260508225027 | 75 | 276 | 13.0 | 22.0 | 0.00 | 0.00 | 0.00 | 25 | 1012.6 |
| 20260508224943 | 75 | 254 | 16.0 | 22.0 | 0.00 | 0.00 | 0.00 | 25 | 1012.8 |
| 20260508224828 | 75 | 260 | 17.0 | 22.0 | 0.00 | 0.00 | 0.00 | 25 | 1012.8 |
| 20260508224724 | 76 | 289 | 15.0 | 20.0 | 0.00 | 0.00 | 0.00 | 25 | 1012.7 |
| 20260508224649 | 76 | 278 | 14.0 | 20.0 | 0.00 | 0.00 | 0.00 | 25 | 1012.7 |
| 20260508224552 | 76 | 299 | 15.0 | 20.0 | 0.00 | 0.00 | 0.00 | 25 | 1012.7 |
| 20260508224441 | 76 | 308 | 14.0 | 19.0 | 0.00 | 0.00 | 0.00 | 24 | 1012.7 |
| 20260508224316 | 76 | 298 | 12.0 | 19.0 | 0.00 | 0.00 | 0.00 | 25 | 1012.8 |
| 20260508224244 | 76 | 286 | 12.0 | 19.0 | 0.00 | 0.00 | 0.00 | 25 | 1012.8 |
| 20260508224117 | 76 | 275 | 13.0 | 20.0 | 0.00 | 0.00 | 0.00 | 24 | 1012.8 |
| 20260508224022 | 76 | 302 | 11.0 | 20.0 | 0.00 | 0.00 | 0.00 | 25 | 1012.9 |
| 20260508223918 | 76 | 273 | 9.0 | 20.0 | 0.00 | 0.00 | 0.00 | 25 | 1012.8 |
| 20260508223844 | 76 | 286 | 9.0 | 20.0 | 0.00 | 0.00 | 0.00 | 25 | 1012.8 |
| 20260508223744 | 76 | 302 | 12.0 | 20.0 | 0.00 | 0.00 | 0.00 | 25 | 1012.9 |
| 20260508223630 | 76 | 268 | 14.0 | 20.0 | 0.00 | 0.00 | 0.00 | 25 | 1012.9 |
| 20260508223525 | 76 | 295 | 12.0 | 20.0 | 0.00 | 0.00 | 0.00 | 24 | 1013.1 |
| 20260508223421 | 76 | 300 | 12.0 | 20.0 | 0.00 | 0.00 | 0.00 | 24 | 1012.9 |
| 20260508223326 | 76 | 289 | 13.0 | 20.0 | 0.00 | 0.00 | 0.00 | 24 | 1012.9 |
| 20260508223252 | 76 | 288 | 13.0 | 19.0 | 0.00 | 0.00 | 0.00 | 25 | 1013.0 |
| 20260508223128 | 76 | 281 | 12.0 | 22.0 | 0.00 | 0.00 | 0.00 | 25 | 1013.0 |
| 20260508223035 | 76 | 295 | 10.0 | 22.0 | 0.00 | 0.00 | 0.00 | 25 | 1012.8 |
| 20260508222932 | 76 | 269 | 10.0 | 22.0 | 0.00 | 0.00 | 0.00 | 24 | 1012.8 |
| 20260508222830 | 76 | 278 | 11.0 | 22.0 | 0.00 | 0.00 | 0.00 | 24 | 1012.9 |
| 20260508222737 | 76 | 311 | 11.0 | 22.0 | 0.00 | 0.00 | 0.00 | 24 | 1012.8 |
| 20260508222640 | 76 | 322 | 11.0 | 22.0 | 0.00 | 0.00 | 0.00 | 24 | 1012.9 |
| 20260508222516 | 76 | 305 | 12.0 | 22.0 | 0.00 | 0.00 | 0.00 | 24 | 1012.9 |
| 20260508222442 | 76 | 306 | 12.0 | 22.0 | 0.00 | 0.00 | 0.00 | 24 | 1012.9 |
| 20260508222323 | 76 | 289 | 10.0 | 22.0 | 0.00 | 0.00 | 0.00 | 24 | 1012.8 |
| 20260508222221 | 76 | 296 | 11.0 | 21.0 | 0.00 | 0.00 | 0.00 | 24 | 1012.9 |
| 20260508222123 | 76 | 277 | 13.0 | 21.0 | 0.00 | 0.00 | 0.00 | 24 | 1012.9 |
| 20260508222027 | 76 | 308 | 13.0 | 21.0 | 0.00 | 0.00 | 0.00 | 24 | 1012.9 |
| 20260508221942 | 76 | 312 | 13.0 | 21.0 | 0.00 | 0.00 | 0.00 | 24 | 1013.1 |
| 20260508221828 | 76 | 278 | 11.0 | 21.0 | 0.00 | 0.00 | 0.00 | 24 | 1013.1 |
| 20260508221732 | 77 | 301 | 9.0 | 21.0 | 0.00 | 0.00 | 0.00 | 24 | 1013.0 |
| 20260508221630 | 76 | 308 | 10.0 | 18.0 | 0.00 | 0.00 | 0.00 | 24 | 1012.9 |
| 20260508221532 | 76 | 249 | 10.0 | 18.0 | 0.00 | 0.00 | 0.00 | 24 | 1012.8 |
| 20260508221432 | 76 | 292 | 10.0 | 18.0 | 0.00 | 0.00 | 0.00 | 24 | 1012.9 |
| 20260508221338 | 76 | 271 | 11.0 | 18.0 | 0.00 | 0.00 | 0.00 | 24 | 1012.9 |
| 20260508221235 | 76 | 264 | 13.0 | 19.0 | 0.00 | 0.00 | 0.00 | 24 | 1012.8 |
| 20260508221203 | 76 | 285 | 14.0 | 19.0 | 0.00 | 0.00 | 0.00 | 24 | 1012.9 |
| 20260508221016 | 77 | 298 | 13.0 | 19.0 | 0.00 | 0.00 | 0.00 | 24 | 1012.8 |
| 20260508220943 | 77 | 285 | 12.0 | 19.0 | 0.00 | 0.00 | 0.00 | 24 | 1012.8 |
| 20260508220824 | 77 | 299 | 11.0 | 21.0 | 0.00 | 0.00 | 0.00 | 24 | 1012.7 |
| 20260508220730 | 77 | 306 | 13.0 | 21.0 | 0.00 | 0.00 | 0.00 | 24 | 1012.7 |
| 20260508220624 | 77 | 281 | 14.0 | 21.0 | 0.00 | 0.00 | 0.00 | 24 | 1012.8 |
| 20260508220527 | 77 | 271 | 14.0 | 21.0 | 0.00 | 0.00 | 0.00 | 23 | 1012.8 |
| 20260508220454 | 77 | 288 | 13.0 | 21.0 | 0.00 | 0.00 | 0.00 | 24 | 1012.8 |
| 20260508220328 | 77 | 280 | 13.0 | 21.0 | 0.00 | 0.00 | 0.00 | 24 | 1012.8 |
| 20260508220233 | 77 | 275 | 14.0 | 21.0 | 0.00 | 0.00 | 0.00 | 23 | 1012.7 |
| 20260508220133 | 78 | 291 | 12.0 | 21.0 | 0.00 | 0.00 | 0.00 | 24 | 1012.8 |
| 20260508220038 | 78 | 296 | 12.0 | 19.0 | 0.00 | 0.00 | 0.00 | 24 | 1012.8 |
| 20260508215939 | 78 | 278 | 14.0 | 19.0 | 0.00 | 0.00 | 0.00 | 24 | 1012.7 |
| 20260508215905 | 78 | 260 | 14.0 | 19.0 | 0.00 | 0.00 | 0.00 | 24 | 1012.7 |
| 20260508215740 | 78 | 269 | 13.0 | 19.0 | 0.00 | 0.00 | 0.00 | 24 | 1012.8 |
| 20260508215644 | 78 | 247 | 13.0 | 19.0 | 0.00 | 0.00 | 0.00 | 24 | 1012.7 |
| 20260508215519 | 78 | 289 | 11.0 | 18.0 | 0.00 | 0.00 | 0.00 | 24 | 1012.7 |
| 20260508215445 | 78 | 282 | 9.0 | 17.0 | 0.00 | 0.00 | 0.00 | 24 | 1012.7 |
| 20260508215328 | 78 | 294 | 9.0 | 17.0 | 0.00 | 0.00 | 0.00 | 24 | 1012.7 |
| 20260508215225 | 78 | 258 | 10.0 | 17.0 | 0.00 | 0.00 | 0.00 | 24 | 1012.7 |
| 20260508215135 | 77 | 248 | 11.0 | 19.0 | 0.00 | 0.00 | 0.00 | 25 | 1012.7 |
| 20260508215031 | 77 | 264 | 10.0 | 19.0 | 0.00 | 0.00 | 0.00 | 25 | 1012.7 |
| 20260508214936 | 77 | 273 | 8.0 | 19.0 | 0.00 | 0.00 | 0.00 | 25 | 1012.7 |
| 20260508214830 | 77 | 264 | 8.0 | 19.0 | 0.00 | 0.00 | 0.00 | 24 | 1012.7 |
| 20260508214727 | 77 | 254 | 11.0 | 19.0 | 0.00 | 0.00 | 0.00 | 24 | 1012.7 |
| 20260508214634 | 77 | 281 | 11.0 | 19.0 | 0.00 | 0.00 | 0.00 | 24 | 1012.8 |
| 20260508214530 | 77 | 276 | 10.0 | 19.0 | 0.00 | 0.00 | 0.00 | 24 | 1012.8 |
| 20260508214439 | 77 | 276 | 12.0 | 19.0 | 0.00 | 0.00 | 0.00 | 24 | 1012.8 |
| 20260508214403 | 77 | 255 | 11.0 | 19.0 | 0.00 | 0.00 | 0.00 | 25 | 1012.9 |
| 20260508214221 | 77 | 291 | 8.0 | 17.0 | 0.00 | 0.00 | 0.00 | 25 | 1012.8 |
| 20260508214116 | 76 | 263 | 8.0 | 19.0 | 0.00 | 0.00 | 0.00 | 24 | 1012.7 |
| 20260508214043 | 76 | 271 | 9.0 | 23.0 | 0.00 | 0.00 | 0.00 | 24 | 1012.7 |
| 20260508213920 | 76 | 269 | 10.0 | 23.0 | 0.00 | 0.00 | 0.00 | 24 | 1012.7 |
| 20260508213821 | 76 | 259 | 10.0 | 23.0 | 0.00 | 0.00 | 0.00 | 24 | 1012.8 |
| 20260508213727 | 76 | 293 | 10.0 | 23.0 | 0.00 | 0.00 | 0.00 | 24 | 1012.8 |
| 20260508213623 | 76 | 262 | 9.0 | 23.0 | 0.00 | 0.00 | 0.00 | 24 | 1012.8 |
| 20260508213527 | 76 | 256 | 11.0 | 23.0 | 0.00 | 0.00 | 0.00 | 24 | 1012.8 |
| 20260508213432 | 76 | 230 | 12.0 | 23.0 | 0.00 | 0.00 | 0.00 | 24 | 1012.7 |
| 20260508213327 | 76 | 262 | 14.0 | 23.0 | 0.00 | 0.00 | 0.00 | 24 | 1012.7 |
| 20260508213222 | 76 | 250 | 11.0 | 29.0 | 0.00 | 0.00 | 0.00 | 24 | 1012.8 |
| 20260508213129 | 76 | 264 | 8.0 | 29.0 | 0.00 | 0.00 | 0.00 | 24 | 1012.8 |
| 20260508213037 | 76 | 281 | 11.0 | 29.0 | 0.00 | 0.00 | 0.00 | 24 | 1012.8 |
| 20260508212933 | 76 | 299 | 14.0 | 29.0 | 0.00 | 0.00 | 0.00 | 24 | 1012.9 |
| 20260508212838 | 77 | 305 | 14.0 | 29.0 | 0.00 | 0.00 | 0.00 | 24 | 1012.9 |
| 20260508212805 | 77 | 287 | 13.0 | 29.0 | 0.00 | 0.00 | 0.00 | 24 | 1012.9 |
| 20260508212619 | 77 | 292 | 13.0 | 29.0 | 0.00 | 0.00 | 0.00 | 24 | 1012.8 |
| 20260508212544 | 77 | 281 | 17.0 | 29.0 | 0.00 | 0.00 | 0.00 | 23 | 1012.8 |
| 20260508212440 | 77 | 276 | 17.0 | 29.0 | 0.00 | 0.00 | 0.00 | 23 | 1012.8 |
| 20260508212344 | 77 | 275 | 14.0 | 24.0 | 0.00 | 0.00 | 0.00 | 24 | 1012.8 |
| 20260508212226 | 77 | 321 | 12.0 | 19.0 | 0.00 | 0.00 | 0.00 | 24 | 1012.7 |
| 20260508212121 | 77 | 272 | 9.0 | 23.0 | 0.00 | 0.00 | 0.00 | 25 | 1012.7 |
| 20260508212047 | 77 | 273 | 9.0 | 23.0 | 0.00 | 0.00 | 0.00 | 24 | 1012.7 |
| 20260508211923 | 76 | 273 | 10.0 | 23.0 | 0.00 | 0.00 | 0.00 | 24 | 1012.8 |
| 20260508211829 | 76 | 276 | 10.0 | 23.0 | 0.00 | 0.00 | 0.00 | 24 | 1012.8 |
| 20260508211725 | 76 | 296 | 11.0 | 23.0 | 0.00 | 0.00 | 0.00 | 23 | 1012.7 |
| 20260508211634 | 76 | 315 | 11.0 | 23.0 | 0.00 | 0.00 | 0.00 | 24 | 1012.9 |
| 20260508211533 | 76 | 300 | 12.0 | 23.0 | 0.00 | 0.00 | 0.00 | 24 | 1012.8 |
| 20260508211438 | 76 | 304 | 15.0 | 23.0 | 0.00 | 0.00 | 0.00 | 24 | 1012.8 |
| 20260508211354 | 76 | 256 | 15.0 | 23.0 | 0.00 | 0.00 | 0.00 | 24 | 1012.7 |
| 20260508211238 | 76 | 263 | 11.0 | 21.0 | 0.00 | 0.00 | 0.00 | 24 | 1012.7 |
| 20260508211144 | 76 | 294 | 11.0 | 21.0 | 0.00 | 0.00 | 0.00 | 24 | 1012.7 |
| 20260508211039 | 76 | 280 | 10.0 | 21.0 | 0.00 | 0.00 | 0.00 | 24 | 1012.7 |
| 20260508210942 | 76 | 260 | 12.0 | 26.0 | 0.00 | 0.00 | 0.00 | 24 | 1012.7 |
| 20260508210836 | 76 | 275 | 12.0 | 26.0 | 0.00 | 0.00 | 0.00 | 25 | 1012.7 |
| 20260508210727 | 75 | 260 | 12.0 | 26.0 | 0.00 | 0.00 | 0.00 | 24 | 1012.6 |
| 20260508210620 | 75 | 236 | 13.0 | 26.0 | 0.00 | 0.00 | 0.00 | 24 | 1012.7 |
| 20260508210524 | 75 | 253 | 11.0 | 26.0 | 0.00 | 0.00 | 0.00 | 23 | 1012.7 |
| 20260508210419 | 75 | 286 | 11.0 | 26.0 | 0.00 | 0.00 | 0.00 | 23 | 1012.6 |
| 20260508210325 | 76 | 298 | 12.0 | 26.0 | 0.00 | 0.00 | 0.00 | 23 | 1012.6 |
| 20260508210222 | 76 | 300 | 16.0 | 26.0 | 0.00 | 0.00 | 0.00 | 23 | 1012.7 |
| 20260508210150 | 76 | 294 | 15.0 | 26.0 | 0.00 | 0.00 | 0.00 | 22 | 1012.7 |
| 20260508210028 | 76 | 281 | 11.0 | 23.0 | 0.00 | 0.00 | 0.00 | 22 | 1012.6 |
| 20260508205955 | 76 | 291 | 11.0 | 23.0 | 0.00 | 0.00 | 0.00 | 22 | 1012.7 |
| 20260508205832 | 76 | 286 | 12.0 | 23.0 | 0.00 | 0.00 | 0.00 | 23 | 1012.6 |
| 20260508205738 | 76 | 264 | 14.0 | 23.0 | 0.00 | 0.00 | 0.00 | 23 | 1012.7 |
| 20260508205706 | 76 | 296 | 13.0 | 24.0 | 0.00 | 0.00 | 0.00 | 22 | 1012.7 |
| 20260508205521 | 76 | 270 | 14.0 | 24.0 | 0.00 | 0.00 | 0.00 | 22 | 1012.8 |
| 20260508205418 | 76 | 276 | 14.0 | 24.0 | 0.00 | 0.00 | 0.00 | 22 | 1012.7 |
| 20260508205328 | 76 | 265 | 14.0 | 24.0 | 0.00 | 0.00 | 0.00 | 22 | 1012.7 |
| 20260508205225 | 76 | 264 | 14.0 | 24.0 | 0.00 | 0.00 | 0.00 | 22 | 1012.7 |
| 20260508205154 | 76 | 269 | 15.0 | 24.0 | 0.00 | 0.00 | 0.00 | 22 | 1012.6 |
| 20260508205057 | 77 | 226 | 13.0 | 24.0 | 0.00 | 0.00 | 0.00 | 22 | 1012.7 |
| 20260508204932 | 76 | 246 | 13.0 | 24.0 | 0.00 | 0.00 | 0.00 | 22 | 1012.7 |
| 20260508204829 | 76 | 279 | 13.0 | 24.0 | 0.00 | 0.00 | 0.00 | 22 | 1012.6 |
| 20260508204737 | 76 | 282 | 12.0 | 20.0 | 0.00 | 0.00 | 0.00 | 22 | 1012.7 |
| 20260508204616 | 76 | 254 | 11.0 | 20.0 | 0.00 | 0.00 | 0.00 | 22 | 1012.6 |
| 20260508204542 | 76 | 237 | 10.0 | 19.0 | 0.00 | 0.00 | 0.00 | 22 | 1012.6 |
| 20260508204419 | 76 | 254 | 11.0 | 19.0 | 0.00 | 0.00 | 0.00 | 22 | 1012.7 |
| 20260508204344 | 76 | 255 | 12.0 | 19.0 | 0.00 | 0.00 | 0.00 | 22 | 1012.7 |
| 20260508204239 | 76 | 264 | 10.0 | 19.0 | 0.00 | 0.00 | 0.00 | 22 | 1012.6 |
| 20260508204207 | 76 | 271 | 7.0 | 23.0 | 0.00 | 0.00 | 0.00 | 22 | 1012.6 |
| 20260508204017 | 76 | 271 | 9.0 | 21.0 | 0.00 | 0.00 | 0.00 | 22 | 1012.6 |
| 20260508203942 | 76 | 288 | 11.0 | 21.0 | 0.00 | 0.00 | 0.00 | 22 | 1012.7 |
| 20260508203842 | 76 | 264 | 10.0 | 21.0 | 0.00 | 0.00 | 0.00 | 22 | 1012.6 |
| 20260508203729 | 76 | 289 | 10.0 | 21.0 | 0.00 | 0.00 | 0.00 | 22 | 1012.6 |
| 20260508203624 | 76 | 272 | 10.0 | 21.0 | 0.00 | 0.00 | 0.00 | 22 | 1012.7 |
| 20260508203530 | 76 | 302 | 10.0 | 21.0 | 0.00 | 0.00 | 0.00 | 22 | 1012.7 |
| 20260508203426 | 76 | 267 | 13.0 | 21.0 | 0.00 | 0.00 | 0.00 | 22 | 1012.7 |
| 20260508203332 | 76 | 281 | 16.0 | 21.0 | 0.00 | 0.00 | 0.00 | 22 | 1012.7 |
| 20260508203231 | 76 | 231 | 15.0 | 21.0 | 0.00 | 0.00 | 0.00 | 22 | 1012.6 |
| 20260508203118 | 76 | 268 | 11.0 | 21.0 | 0.00 | 0.00 | 0.00 | 22 | 1012.6 |
| 20260508203044 | 76 | 258 | 9.0 | 17.0 | 0.00 | 0.00 | 0.00 | 22 | 1012.6 |
| 20260508202922 | 76 | 275 | 10.0 | 17.0 | 0.00 | 0.00 | 0.00 | 22 | 1012.7 |
| 20260508202817 | 76 | 286 | 9.0 | 17.0 | 0.00 | 0.00 | 0.00 | 23 | 1012.7 |
| 20260508202723 | 76 | 301 | 9.0 | 17.0 | 0.00 | 0.00 | 0.00 | 23 | 1012.6 |
| 20260508202617 | 75 | 280 | 10.0 | 19.0 | 0.00 | 0.00 | 0.00 | 23 | 1012.6 |
| 20260508202524 | 75 | 296 | 12.0 | 19.0 | 0.00 | 0.00 | 0.00 | 23 | 1012.7 |
| 20260508202424 | 75 | 271 | 12.0 | 19.0 | 0.00 | 0.00 | 0.00 | 22 | 1012.9 |
| 20260508202329 | 75 | 277 | 10.0 | 19.0 | 0.00 | 0.00 | 0.00 | 23 | 1012.9 |
| 20260508202245 | 75 | 275 | 10.0 | 19.0 | 0.00 | 0.00 | 0.00 | 23 | 1012.6 |
| 20260508202152 | 75 | 260 | 10.0 | 19.0 | 0.00 | 0.00 | 0.00 | 23 | 1012.6 |
| 20260508202025 | 75 | 245 | 10.0 | 19.0 | 0.00 | 0.00 | 0.00 | 23 | 1012.6 |
| 20260508201932 | 75 | 269 | 12.0 | 19.0 | 0.00 | 0.00 | 0.00 | 22 | 1012.6 |
| 20260508201829 | 75 | 306 | 12.0 | 19.0 | 0.00 | 0.00 | 0.00 | 22 | 1012.8 |
| 20260508201735 | 75 | 285 | 11.0 | 19.0 | 0.00 | 0.00 | 0.00 | 22 | 1012.8 |
| 20260508201637 | 75 | 305 | 11.0 | 20.0 | 0.00 | 0.00 | 0.00 | 22 | 1012.7 |
| 20260508201542 | 76 | 287 | 13.0 | 20.0 | 0.00 | 0.00 | 0.00 | 22 | 1012.9 |
| 20260508201438 | 76 | 300 | 12.0 | 20.0 | 0.00 | 0.00 | 0.00 | 23 | 1012.8 |
| 20260508201342 | 75 | 268 | 12.0 | 20.0 | 0.00 | 0.00 | 0.00 | 22 | 1012.7 |
| 20260508201242 | 75 | 299 | 12.0 | 23.0 | 0.00 | 0.00 | 0.00 | 22 | 1012.7 |
| 20260508201125 | 75 | 268 | 11.0 | 23.0 | 0.00 | 0.00 | 0.00 | 23 | 1012.7 |
| 20260508201021 | 75 | 245 | 11.0 | 23.0 | 0.00 | 0.00 | 0.00 | 23 | 1012.7 |
| 20260508200931 | 75 | 293 | 13.0 | 23.0 | 0.00 | 0.00 | 0.00 | 22 | 1012.7 |
| 20260508200848 | 75 | 271 | 11.0 | 23.0 | 0.00 | 0.00 | 0.00 | 23 | 1012.7 |
| 20260508200732 | 75 | 283 | 10.0 | 23.0 | 0.00 | 0.00 | 0.00 | 22 | 1012.6 |
| 20260508200630 | 75 | 260 | 11.0 | 23.0 | 0.00 | 0.00 | 0.00 | 23 | 1012.7 |
| 20260508200554 | 75 | 221 | 10.0 | 23.0 | 0.00 | 0.00 | 0.00 | 23 | 1012.7 |
| 20260508200430 | 74 | 274 | 10.0 | 23.0 | 0.00 | 0.00 | 0.00 | 22 | 1012.7 |
| 20260508200336 | 74 | 291 | 9.0 | 23.0 | 0.00 | 0.00 | 0.00 | 22 | 1012.9 |
| 20260508200217 | 74 | 280 | 10.0 | 19.0 | 0.00 | 0.00 | 0.00 | 21 | 1012.7 |
| 20260508200146 | 74 | 287 | 11.0 | 19.0 | 0.00 | 0.00 | 0.00 | 21 | 1012.7 |
| 20260508200020 | 74 | 288 | 10.0 | 19.0 | 0.00 | 0.00 | 0.00 | 22 | 1012.7 |
| 20260508195917 | 74 | 271 | 12.0 | 19.0 | 0.00 | 0.00 | 0.00 | 22 | 1012.8 |
| 20260508195843 | 74 | 281 | 12.0 | 19.0 | 0.00 | 0.00 | 0.00 | 22 | 1012.7 |
| 20260508195720 | 74 | 302 | 11.0 | 19.0 | 0.00 | 0.00 | 0.00 | 21 | 1012.6 |
| 20260508195624 | 74 | 306 | 13.0 | 19.0 | 0.00 | 0.00 | 0.00 | 21 | 1012.6 |
| 20260508195524 | 74 | 279 | 12.0 | 19.0 | 0.00 | 0.00 | 0.00 | 21 | 1012.7 |
| 20260508195429 | 74 | 290 | 11.0 | 19.0 | 0.00 | 0.00 | 0.00 | 22 | 1012.7 |
| 20260508195325 | 74 | 273 | 10.0 | 19.0 | 0.00 | 0.00 | 0.00 | 21 | 1012.6 |
| 20260508195223 | 74 | 296 | 11.0 | 19.0 | 0.00 | 0.00 | 0.00 | 22 | 1012.6 |
| 20260508195146 | 74 | 250 | 11.0 | 22.0 | 0.00 | 0.00 | 0.00 | 22 | 1012.6 |
| 20260508195030 | 74 | 258 | 12.0 | 23.0 | 0.00 | 0.00 | 0.00 | 22 | 1012.6 |
| 20260508194927 | 74 | 260 | 13.0 | 23.0 | 0.00 | 0.00 | 0.00 | 21 | 1012.6 |
| 20260508194836 | 74 | 254 | 13.0 | 23.0 | 0.00 | 0.00 | 0.00 | 21 | 1012.6 |
| 20260508194732 | 74 | 269 | 13.0 | 23.0 | 0.00 | 0.00 | 0.00 | 21 | 1012.6 |
| 20260508194640 | 74 | 290 | 14.0 | 23.0 | 0.00 | 0.00 | 0.00 | 21 | 1012.6 |
| 20260508194533 | 74 | 267 | 13.0 | 23.0 | 0.00 | 0.00 | 0.00 | 21 | 1012.6 |
| 20260508194419 | 74 | 299 | 15.0 | 23.0 | 0.00 | 0.00 | 0.00 | 21 | 1012.6 |
| 20260508194317 | 74 | 258 | 14.0 | 23.0 | 0.00 | 0.00 | 0.00 | 20 | 1012.6 |
| 20260508194245 | 74 | 239 | 14.0 | 22.0 | 0.00 | 0.00 | 0.00 | 20 | 1012.5 |
| 20260508194122 | 74 | 246 | 13.0 | 24.0 | 0.00 | 0.00 | 0.00 | 20 | 1012.7 |
| 20260508194025 | 74 | 243 | 12.0 | 24.0 | 0.00 | 0.00 | 0.00 | 20 | 1012.5 |
| 20260508193922 | 74 | 254 | 12.0 | 24.0 | 0.00 | 0.00 | 0.00 | 21 | 1012.6 |
| 20260508193817 | 73 | 256 | 14.0 | 24.0 | 0.00 | 0.00 | 0.00 | 22 | 1012.6 |
| 20260508193723 | 73 | 255 | 14.0 | 24.0 | 0.00 | 0.00 | 0.00 | 22 | 1012.6 |
| 20260508193649 | 73 | 249 | 14.0 | 24.0 | 0.00 | 0.00 | 0.00 | 21 | 1012.6 |
| 20260508193523 | 73 | 248 | 13.0 | 24.0 | 0.00 | 0.00 | 0.00 | 21 | 1012.6 |
| 20260508193434 | 73 | 257 | 13.0 | 24.0 | 0.00 | 0.00 | 0.00 | 21 | 1012.6 |
| 20260508193328 | 73 | 260 | 15.0 | 24.0 | 0.00 | 0.00 | 0.00 | 22 | 1012.7 |
| 20260508193224 | 73 | 261 | 14.0 | 24.0 | 0.00 | 0.00 | 0.00 | 22 | 1012.7 |
| 20260508193150 | 72 | 262 | 12.0 | 23.0 | 0.00 | 0.00 | 0.00 | 22 | 1012.7 |
| 20260508193054 | 72 | 280 | 13.0 | 23.0 | 0.00 | 0.00 | 0.00 | 22 | 1012.9 |
| 20260508192929 | 72 | 250 | 14.0 | 23.0 | 0.00 | 0.00 | 0.00 | 21 | 1012.8 |
| 20260508192836 | 72 | 282 | 15.0 | 23.0 | 0.00 | 0.00 | 0.00 | 21 | 1012.8 |
| 20260508192732 | 72 | 270 | 13.0 | 23.0 | 0.00 | 0.00 | 0.00 | 21 | 1012.7 |
| 20260508192639 | 72 | 274 | 13.0 | 23.0 | 0.00 | 0.00 | 0.00 | 20 | 1012.7 |
| 20260508192534 | 72 | 268 | 15.0 | 23.0 | 0.00 | 0.00 | 0.00 | 20 | 1012.7 |
| 20260508192441 | 72 | 278 | 16.0 | 23.0 | 0.00 | 0.00 | 0.00 | 20 | 1012.8 |
| 20260508192318 | 72 | 271 | 15.0 | 22.0 | 0.00 | 0.00 | 0.00 | 21 | 1012.7 |
| 20260508192248 | 72 | 279 | 15.0 | 22.0 | 0.00 | 0.00 | 0.00 | 21 | 1012.7 |
| 20260508192120 | 72 | 300 | 14.0 | 22.0 | 0.00 | 0.00 | 0.00 | 22 | 1012.7 |
| 20260508192024 | 72 | 272 | 15.0 | 22.0 | 0.00 | 0.00 | 0.00 | 22 | 1012.8 |
| 20260508191922 | 72 | 260 | 16.0 | 22.0 | 0.00 | 0.00 | 0.00 | 22 | 1012.8 |
| 20260508191827 | 72 | 264 | 16.0 | 22.0 | 0.00 | 0.00 | 0.00 | 21 | 1012.8 |
| 20260508191753 | 72 | 250 | 15.0 | 22.0 | 0.00 | 0.00 | 0.00 | 22 | 1012.8 |
| 20260508191630 | 72 | 260 | 13.0 | 22.0 | 0.00 | 0.00 | 0.00 | 23 | 1012.7 |
| 20260508191525 | 72 | 249 | 12.0 | 20.0 | 0.00 | 0.00 | 0.00 | 22 | 1012.7 |
| 20260508191432 | 71 | 262 | 12.0 | 20.0 | 0.00 | 0.00 | 0.00 | 23 | 1012.6 |
| 20260508191336 | 71 | 244 | 11.0 | 20.0 | 0.00 | 0.00 | 0.00 | 22 | 1012.7 |
| 20260508191217 | 71 | 308 | 12.0 | 20.0 | 0.00 | 0.00 | 0.00 | 23 | 1012.7 |
| 20260508191144 | 71 | 250 | 13.0 | 20.0 | 0.00 | 0.00 | 0.00 | 23 | 1012.7 |
| 20260508191018 | 71 | 273 | 15.0 | 20.0 | 0.00 | 0.00 | 0.00 | 23 | 1012.7 |
| 20260508190935 | 71 | 265 | 15.0 | 21.0 | 0.00 | 0.00 | 0.00 | 23 | 1012.7 |
| 20260508190842 | 71 | 257 | 13.0 | 21.0 | 0.00 | 0.00 | 0.00 | 23 | 1012.7 |
| 20260508190720 | 70 | 264 | 11.0 | 21.0 | 0.00 | 0.00 | 0.00 | 22 | 1012.7 |
| 20260508190624 | 70 | 280 | 12.0 | 21.0 | 0.00 | 0.00 | 0.00 | 22 | 1012.8 |
| 20260508190526 | 70 | 280 | 13.0 | 21.0 | 0.00 | 0.00 | 0.00 | 22 | 1012.8 |
| 20260508190425 | 70 | 290 | 12.0 | 21.0 | 0.00 | 0.00 | 0.00 | 23 | 1012.8 |
| 20260508190320 | 70 | 252 | 12.0 | 21.0 | 0.00 | 0.00 | 0.00 | 24 | 1012.8 |
| 20260508190228 | 70 | 283 | 13.0 | 21.0 | 0.00 | 0.00 | 0.00 | 24 | 1012.8 |
| 20260508190122 | 70 | 259 | 14.0 | 21.0 | 0.00 | 0.00 | 0.00 | 24 | 1012.7 |
| 20260508190028 | 70 | 240 | 13.0 | 20.0 | 0.00 | 0.00 | 0.00 | 24 | 1012.7 |
| 20260508185924 | 70 | 250 | 14.0 | 19.0 | 0.00 | 0.00 | 0.00 | 24 | 1012.7 |
| 20260508185824 | 70 | 267 | 13.0 | 19.0 | 0.00 | 0.00 | 0.00 | 25 | 1012.7 |
| 20260508185730 | 70 | 273 | 11.0 | 19.0 | 0.00 | 0.00 | 0.00 | 25 | 1012.7 |
| 20260508185625 | 70 | 313 | 12.0 | 19.0 | 0.00 | 0.00 | 0.00 | 25 | 1012.7 |
| 20260508185528 | 70 | 251 | 13.0 | 19.0 | 0.00 | 0.00 | 0.00 | 26 | 1012.7 |
| 20260508185425 | 70 | 261 | 11.0 | 22.0 | 0.00 | 0.00 | 0.00 | 25 | 1012.7 |
| 20260508185330 | 70 | 285 | 10.0 | 22.0 | 0.00 | 0.00 | 0.00 | 25 | 1012.7 |
| 20260508185226 | 70 | 282 | 10.0 | 22.0 | 0.00 | 0.00 | 0.00 | 25 | 1012.7 |
| 20260508185137 | 70 | 279 | 9.0 | 22.0 | 0.00 | 0.00 | 0.00 | 25 | 1012.7 |
| 20260508185050 | 70 | 273 | 11.0 | 22.0 | 0.00 | 0.00 | 0.00 | 25 | 1012.7 |
| 20260508184931 | 70 | 269 | 12.0 | 22.0 | 0.00 | 0.00 | 0.00 | 25 | 1012.7 |
| 20260508184828 | 70 | 308 | 12.0 | 22.0 | 0.00 | 0.00 | 0.00 | 26 | 1012.7 |
| 20260508184755 | 70 | 264 | 13.0 | 22.0 | 0.00 | 0.00 | 0.00 | 26 | 1012.7 |
| 20260508184632 | 69 | 264 | 13.0 | 22.0 | 0.00 | 0.00 | 0.00 | 26 | 1012.7 |
| 20260508184537 | 69 | 248 | 11.0 | 21.0 | 0.00 | 0.00 | 0.00 | 26 | 1012.7 |
| 20260508184418 | 69 | 264 | 12.0 | 21.0 | 0.00 | 0.00 | 0.00 | 26 | 1012.7 |
| 20260508184344 | 69 | 260 | 13.0 | 21.0 | 0.00 | 0.00 | 0.00 | 26 | 1012.7 |